<?xml version="1.0" encoding="UTF-8" standalone="no" ?>
<gpx xmlns="http://www.topografix.com/GPX/1/1" xmlns:xsi="http://www.w3.org/2001/XMLSchema-instance" xsi:schemaLocation="http://www.topografix.com/GPX/1/1 http://www.topografix.com/GPX/1/1/gpx.xsd" version="1.1" creator="VisuGPX - https://www.visugpx.com">
  <metadata>
    <name>Les Crésonnières de l'Aubette</name>
    <desc><![CDATA[Randonnée de 22 km en boucle à partir de Nurcourt]]></desc>
  </metadata>
  <trk>
    <name><![CDATA[Les Crésonnières de l'Aubette_R]]></name>
    <trkseg>
      <trkpt lat="49.15831" lon="1.85431">
        <ele>116.66</ele>
        <time>2022-08-14T07:19:04Z</time>
      </trkpt>
      <trkpt lat="49.15831" lon="1.85431">
        <ele>116.66</ele>
        <time>2022-08-14T07:19:05Z</time>
      </trkpt>
      <trkpt lat="49.15831" lon="1.85431">
        <ele>116.96</ele>
        <time>2022-08-14T07:19:27Z</time>
      </trkpt>
      <trkpt lat="49.15831" lon="1.85432">
        <ele>116.58</ele>
        <time>2022-08-14T07:19:55Z</time>
      </trkpt>
      <trkpt lat="49.1583" lon="1.85437">
        <ele>117.19</ele>
        <time>2022-08-14T07:20:13Z</time>
      </trkpt>
      <trkpt lat="49.15829" lon="1.8544">
        <ele>117.3</ele>
        <time>2022-08-14T07:20:31Z</time>
      </trkpt>
      <trkpt lat="49.1583" lon="1.8544">
        <ele>119.15</ele>
        <time>2022-08-14T07:25:29Z</time>
      </trkpt>
      <trkpt lat="49.15824" lon="1.85445">
        <ele>119.45</ele>
        <time>2022-08-14T07:26:26Z</time>
      </trkpt>
      <trkpt lat="49.15814" lon="1.8545">
        <ele>120.06</ele>
        <time>2022-08-14T07:26:41Z</time>
      </trkpt>
      <trkpt lat="49.15811" lon="1.85452">
        <ele>120.04</ele>
        <time>2022-08-14T07:26:44Z</time>
      </trkpt>
      <trkpt lat="49.15803" lon="1.85455">
        <ele>119.91</ele>
        <time>2022-08-14T07:26:52Z</time>
      </trkpt>
      <trkpt lat="49.15791" lon="1.85464">
        <ele>120.59</ele>
        <time>2022-08-14T07:27:04Z</time>
      </trkpt>
      <trkpt lat="49.1578" lon="1.85462">
        <ele>120.58</ele>
        <time>2022-08-14T07:27:15Z</time>
      </trkpt>
      <trkpt lat="49.15778" lon="1.85462">
        <ele>120.74</ele>
        <time>2022-08-14T07:27:17Z</time>
      </trkpt>
      <trkpt lat="49.15766" lon="1.8547">
        <ele>120.73</ele>
        <time>2022-08-14T07:27:28Z</time>
      </trkpt>
      <trkpt lat="49.15762" lon="1.85477">
        <ele>121.17</ele>
        <time>2022-08-14T07:27:35Z</time>
      </trkpt>
      <trkpt lat="49.15757" lon="1.85481">
        <ele>121.76</ele>
        <time>2022-08-14T07:27:40Z</time>
      </trkpt>
      <trkpt lat="49.1575" lon="1.85489">
        <ele>121.97</ele>
        <time>2022-08-14T07:27:49Z</time>
      </trkpt>
      <trkpt lat="49.15744" lon="1.85493">
        <ele>122.01</ele>
        <time>2022-08-14T07:27:58Z</time>
      </trkpt>
      <trkpt lat="49.15734" lon="1.85503">
        <ele>122.61</ele>
        <time>2022-08-14T07:28:09Z</time>
      </trkpt>
      <trkpt lat="49.15722" lon="1.85509">
        <ele>122.94</ele>
        <time>2022-08-14T07:28:20Z</time>
      </trkpt>
      <trkpt lat="49.1572" lon="1.85511">
        <ele>122.89</ele>
        <time>2022-08-14T07:28:23Z</time>
      </trkpt>
      <trkpt lat="49.15711" lon="1.85516">
        <ele>123.48</ele>
        <time>2022-08-14T07:28:31Z</time>
      </trkpt>
      <trkpt lat="49.15694" lon="1.85528">
        <ele>123.7</ele>
        <time>2022-08-14T07:28:48Z</time>
      </trkpt>
      <trkpt lat="49.15682" lon="1.85538">
        <ele>124.37</ele>
        <time>2022-08-14T07:29:02Z</time>
      </trkpt>
      <trkpt lat="49.15678" lon="1.85542">
        <ele>124.29</ele>
        <time>2022-08-14T07:29:09Z</time>
      </trkpt>
      <trkpt lat="49.15673" lon="1.85543">
        <ele>124.31</ele>
        <time>2022-08-14T07:29:15Z</time>
      </trkpt>
      <trkpt lat="49.15671" lon="1.85545">
        <ele>124.44</ele>
        <time>2022-08-14T07:29:18Z</time>
      </trkpt>
      <trkpt lat="49.15659" lon="1.85554">
        <ele>124.38</ele>
        <time>2022-08-14T07:29:30Z</time>
      </trkpt>
      <trkpt lat="49.15646" lon="1.8556">
        <ele>124.37</ele>
        <time>2022-08-14T07:29:43Z</time>
      </trkpt>
      <trkpt lat="49.15639" lon="1.85564">
        <ele>124.7</ele>
        <time>2022-08-14T07:29:50Z</time>
      </trkpt>
      <trkpt lat="49.1562" lon="1.85575">
        <ele>124.6</ele>
        <time>2022-08-14T07:30:07Z</time>
      </trkpt>
      <trkpt lat="49.15617" lon="1.85577">
        <ele>124.58</ele>
        <time>2022-08-14T07:30:14Z</time>
      </trkpt>
      <trkpt lat="49.156" lon="1.85571">
        <ele>124.1</ele>
        <time>2022-08-14T07:30:29Z</time>
      </trkpt>
      <trkpt lat="49.15593" lon="1.85566">
        <ele>124.58</ele>
        <time>2022-08-14T07:30:36Z</time>
      </trkpt>
      <trkpt lat="49.15583" lon="1.8556">
        <ele>124.55</ele>
        <time>2022-08-14T07:30:45Z</time>
      </trkpt>
      <trkpt lat="49.15574" lon="1.85548">
        <ele>124.41</ele>
        <time>2022-08-14T07:30:56Z</time>
      </trkpt>
      <trkpt lat="49.15571" lon="1.85546">
        <ele>124.72</ele>
        <time>2022-08-14T07:30:58Z</time>
      </trkpt>
      <trkpt lat="49.1556" lon="1.85538">
        <ele>124.55</ele>
        <time>2022-08-14T07:31:09Z</time>
      </trkpt>
      <trkpt lat="49.15555" lon="1.85534">
        <ele>124.53</ele>
        <time>2022-08-14T07:31:13Z</time>
      </trkpt>
      <trkpt lat="49.15544" lon="1.85526">
        <ele>125.2</ele>
        <time>2022-08-14T07:31:23Z</time>
      </trkpt>
      <trkpt lat="49.15528" lon="1.85522">
        <ele>125.73</ele>
        <time>2022-08-14T07:31:36Z</time>
      </trkpt>
      <trkpt lat="49.15506" lon="1.85518">
        <ele>125.44</ele>
        <time>2022-08-14T07:31:53Z</time>
      </trkpt>
      <trkpt lat="49.15488" lon="1.85511">
        <ele>125.54</ele>
        <time>2022-08-14T07:32:08Z</time>
      </trkpt>
      <trkpt lat="49.15482" lon="1.85511">
        <ele>125.44</ele>
        <time>2022-08-14T07:32:14Z</time>
      </trkpt>
      <trkpt lat="49.15465" lon="1.8551">
        <ele>124.97</ele>
        <time>2022-08-14T07:32:28Z</time>
      </trkpt>
      <trkpt lat="49.15455" lon="1.85507">
        <ele>125.16</ele>
        <time>2022-08-14T07:32:37Z</time>
      </trkpt>
      <trkpt lat="49.15448" lon="1.85506">
        <ele>125.01</ele>
        <time>2022-08-14T07:32:42Z</time>
      </trkpt>
      <trkpt lat="49.15433" lon="1.85501">
        <ele>124.76</ele>
        <time>2022-08-14T07:32:54Z</time>
      </trkpt>
      <trkpt lat="49.1543" lon="1.85502">
        <ele>125.16</ele>
        <time>2022-08-14T07:32:57Z</time>
      </trkpt>
      <trkpt lat="49.15418" lon="1.855">
        <ele>124.96</ele>
        <time>2022-08-14T07:33:06Z</time>
      </trkpt>
      <trkpt lat="49.15405" lon="1.855">
        <ele>124.81</ele>
        <time>2022-08-14T07:33:17Z</time>
      </trkpt>
      <trkpt lat="49.15395" lon="1.85501">
        <ele>125.21</ele>
        <time>2022-08-14T07:33:27Z</time>
      </trkpt>
      <trkpt lat="49.15394" lon="1.85501">
        <ele>124.95</ele>
        <time>2022-08-14T07:33:28Z</time>
      </trkpt>
      <trkpt lat="49.15383" lon="1.85505">
        <ele>125.26</ele>
        <time>2022-08-14T07:33:39Z</time>
      </trkpt>
      <trkpt lat="49.15373" lon="1.85508">
        <ele>124.65</ele>
        <time>2022-08-14T07:33:48Z</time>
      </trkpt>
      <trkpt lat="49.15357" lon="1.85506">
        <ele>124.92</ele>
        <time>2022-08-14T07:34:01Z</time>
      </trkpt>
      <trkpt lat="49.15341" lon="1.85505">
        <ele>124.52</ele>
        <time>2022-08-14T07:34:14Z</time>
      </trkpt>
      <trkpt lat="49.1534" lon="1.85506">
        <ele>125.02</ele>
        <time>2022-08-14T07:34:15Z</time>
      </trkpt>
      <trkpt lat="49.15336" lon="1.85509">
        <ele>124.55</ele>
        <time>2022-08-14T07:34:19Z</time>
      </trkpt>
      <trkpt lat="49.1533" lon="1.85509">
        <ele>124.87</ele>
        <time>2022-08-14T07:34:31Z</time>
      </trkpt>
      <trkpt lat="49.15329" lon="1.85508">
        <ele>125.26</ele>
        <time>2022-08-14T07:34:34Z</time>
      </trkpt>
      <trkpt lat="49.15321" lon="1.85506">
        <ele>125.23</ele>
        <time>2022-08-14T07:34:42Z</time>
      </trkpt>
      <trkpt lat="49.15317" lon="1.85506">
        <ele>125.1</ele>
        <time>2022-08-14T07:34:48Z</time>
      </trkpt>
      <trkpt lat="49.15316" lon="1.85505">
        <ele>124.9</ele>
        <time>2022-08-14T07:34:50Z</time>
      </trkpt>
      <trkpt lat="49.15311" lon="1.85506">
        <ele>125.07</ele>
        <time>2022-08-14T07:34:55Z</time>
      </trkpt>
      <trkpt lat="49.15298" lon="1.85506">
        <ele>125.33</ele>
        <time>2022-08-14T07:35:07Z</time>
      </trkpt>
      <trkpt lat="49.15285" lon="1.85506">
        <ele>124.68</ele>
        <time>2022-08-14T07:35:19Z</time>
      </trkpt>
      <trkpt lat="49.15282" lon="1.85507">
        <ele>124.15</ele>
        <time>2022-08-14T07:35:22Z</time>
      </trkpt>
      <trkpt lat="49.15267" lon="1.85508">
        <ele>124.92</ele>
        <time>2022-08-14T07:35:36Z</time>
      </trkpt>
      <trkpt lat="49.15253" lon="1.85511">
        <ele>124.62</ele>
        <time>2022-08-14T07:35:48Z</time>
      </trkpt>
      <trkpt lat="49.15248" lon="1.85511">
        <ele>124.6</ele>
        <time>2022-08-14T07:35:53Z</time>
      </trkpt>
      <trkpt lat="49.15241" lon="1.85511">
        <ele>124.42</ele>
        <time>2022-08-14T07:35:59Z</time>
      </trkpt>
      <trkpt lat="49.15224" lon="1.85514">
        <ele>124.8</ele>
        <time>2022-08-14T07:36:14Z</time>
      </trkpt>
      <trkpt lat="49.15208" lon="1.85517">
        <ele>124.73</ele>
        <time>2022-08-14T07:36:27Z</time>
      </trkpt>
      <trkpt lat="49.15195" lon="1.85521">
        <ele>124.77</ele>
        <time>2022-08-14T07:36:38Z</time>
      </trkpt>
      <trkpt lat="49.15182" lon="1.85525">
        <ele>124.56</ele>
        <time>2022-08-14T07:36:49Z</time>
      </trkpt>
      <trkpt lat="49.15169" lon="1.85529">
        <ele>124.89</ele>
        <time>2022-08-14T07:37:00Z</time>
      </trkpt>
      <trkpt lat="49.15152" lon="1.85532">
        <ele>124.82</ele>
        <time>2022-08-14T07:37:14Z</time>
      </trkpt>
      <trkpt lat="49.15145" lon="1.85537">
        <ele>125.06</ele>
        <time>2022-08-14T07:37:20Z</time>
      </trkpt>
      <trkpt lat="49.15131" lon="1.85541">
        <ele>124.71</ele>
        <time>2022-08-14T07:37:33Z</time>
      </trkpt>
      <trkpt lat="49.1513" lon="1.85542">
        <ele>124.62</ele>
        <time>2022-08-14T07:37:34Z</time>
      </trkpt>
      <trkpt lat="49.15126" lon="1.85543">
        <ele>124.49</ele>
        <time>2022-08-14T07:37:38Z</time>
      </trkpt>
      <trkpt lat="49.15109" lon="1.85549">
        <ele>124.5</ele>
        <time>2022-08-14T07:37:53Z</time>
      </trkpt>
      <trkpt lat="49.15101" lon="1.85552">
        <ele>124.85</ele>
        <time>2022-08-14T07:38:01Z</time>
      </trkpt>
      <trkpt lat="49.15089" lon="1.85555">
        <ele>124.25</ele>
        <time>2022-08-14T07:38:12Z</time>
      </trkpt>
      <trkpt lat="49.15083" lon="1.85558">
        <ele>124.28</ele>
        <time>2022-08-14T07:38:17Z</time>
      </trkpt>
      <trkpt lat="49.15069" lon="1.85563">
        <ele>124.26</ele>
        <time>2022-08-14T07:38:30Z</time>
      </trkpt>
      <trkpt lat="49.15064" lon="1.85565">
        <ele>124.48</ele>
        <time>2022-08-14T07:38:34Z</time>
      </trkpt>
      <trkpt lat="49.15054" lon="1.85569">
        <ele>124.37</ele>
        <time>2022-08-14T07:38:46Z</time>
      </trkpt>
      <trkpt lat="49.15055" lon="1.8557">
        <ele>124.73</ele>
        <time>2022-08-14T07:39:06Z</time>
      </trkpt>
      <trkpt lat="49.15055" lon="1.8557">
        <ele>124.28</ele>
        <time>2022-08-14T07:39:32Z</time>
      </trkpt>
      <trkpt lat="49.1505" lon="1.85572">
        <ele>124.54</ele>
        <time>2022-08-14T07:39:41Z</time>
      </trkpt>
      <trkpt lat="49.15046" lon="1.85573">
        <ele>123.97</ele>
        <time>2022-08-14T07:40:03Z</time>
      </trkpt>
      <trkpt lat="49.15046" lon="1.85574">
        <ele>123.9</ele>
        <time>2022-08-14T07:40:04Z</time>
      </trkpt>
      <trkpt lat="49.15039" lon="1.85577">
        <ele>124.16</ele>
        <time>2022-08-14T07:40:16Z</time>
      </trkpt>
      <trkpt lat="49.1503" lon="1.85579">
        <ele>123.99</ele>
        <time>2022-08-14T07:40:27Z</time>
      </trkpt>
      <trkpt lat="49.15022" lon="1.85582">
        <ele>124.33</ele>
        <time>2022-08-14T07:40:38Z</time>
      </trkpt>
      <trkpt lat="49.15013" lon="1.85584">
        <ele>123.78</ele>
        <time>2022-08-14T07:40:48Z</time>
      </trkpt>
      <trkpt lat="49.15003" lon="1.85588">
        <ele>123.44</ele>
        <time>2022-08-14T07:40:56Z</time>
      </trkpt>
      <trkpt lat="49.14988" lon="1.85593">
        <ele>123.34</ele>
        <time>2022-08-14T07:41:10Z</time>
      </trkpt>
      <trkpt lat="49.14975" lon="1.85598">
        <ele>123.3</ele>
        <time>2022-08-14T07:41:22Z</time>
      </trkpt>
      <trkpt lat="49.14962" lon="1.85603">
        <ele>123.23</ele>
        <time>2022-08-14T07:41:34Z</time>
      </trkpt>
      <trkpt lat="49.14953" lon="1.85608">
        <ele>122.77</ele>
        <time>2022-08-14T07:41:44Z</time>
      </trkpt>
      <trkpt lat="49.14949" lon="1.8561">
        <ele>122.5</ele>
        <time>2022-08-14T07:41:48Z</time>
      </trkpt>
      <trkpt lat="49.14936" lon="1.85614">
        <ele>122.63</ele>
        <time>2022-08-14T07:41:59Z</time>
      </trkpt>
      <trkpt lat="49.14928" lon="1.85618">
        <ele>122.25</ele>
        <time>2022-08-14T07:42:06Z</time>
      </trkpt>
      <trkpt lat="49.14923" lon="1.8562">
        <ele>122.63</ele>
        <time>2022-08-14T07:42:10Z</time>
      </trkpt>
      <trkpt lat="49.14915" lon="1.85622">
        <ele>121.12</ele>
        <time>2022-08-14T07:42:17Z</time>
      </trkpt>
      <trkpt lat="49.14913" lon="1.85623">
        <ele>121.12</ele>
        <time>2022-08-14T07:42:19Z</time>
      </trkpt>
      <trkpt lat="49.149" lon="1.85626">
        <ele>122.6</ele>
        <time>2022-08-14T07:42:32Z</time>
      </trkpt>
      <trkpt lat="49.14886" lon="1.85631">
        <ele>122.15</ele>
        <time>2022-08-14T07:42:44Z</time>
      </trkpt>
      <trkpt lat="49.14872" lon="1.85637">
        <ele>122.28</ele>
        <time>2022-08-14T07:42:56Z</time>
      </trkpt>
      <trkpt lat="49.14858" lon="1.85641">
        <ele>121.95</ele>
        <time>2022-08-14T07:43:09Z</time>
      </trkpt>
      <trkpt lat="49.14845" lon="1.85644">
        <ele>121.73</ele>
        <time>2022-08-14T07:43:20Z</time>
      </trkpt>
      <trkpt lat="49.14837" lon="1.85647">
        <ele>122.05</ele>
        <time>2022-08-14T07:43:29Z</time>
      </trkpt>
      <trkpt lat="49.14822" lon="1.85652">
        <ele>122.59</ele>
        <time>2022-08-14T07:43:43Z</time>
      </trkpt>
      <trkpt lat="49.14819" lon="1.85653">
        <ele>121.35</ele>
        <time>2022-08-14T07:43:46Z</time>
      </trkpt>
      <trkpt lat="49.14803" lon="1.85659">
        <ele>122.27</ele>
        <time>2022-08-14T07:44:00Z</time>
      </trkpt>
      <trkpt lat="49.14789" lon="1.85664">
        <ele>122.31</ele>
        <time>2022-08-14T07:44:13Z</time>
      </trkpt>
      <trkpt lat="49.14773" lon="1.85669">
        <ele>122.84</ele>
        <time>2022-08-14T07:44:27Z</time>
      </trkpt>
      <trkpt lat="49.14767" lon="1.85672">
        <ele>122.43</ele>
        <time>2022-08-14T07:44:36Z</time>
      </trkpt>
      <trkpt lat="49.14762" lon="1.85673">
        <ele>122.48</ele>
        <time>2022-08-14T07:44:40Z</time>
      </trkpt>
      <trkpt lat="49.14743" lon="1.85678">
        <ele>122.66</ele>
        <time>2022-08-14T07:44:56Z</time>
      </trkpt>
      <trkpt lat="49.14738" lon="1.85681">
        <ele>122.6</ele>
        <time>2022-08-14T07:45:01Z</time>
      </trkpt>
      <trkpt lat="49.14732" lon="1.85683">
        <ele>122.84</ele>
        <time>2022-08-14T07:45:06Z</time>
      </trkpt>
      <trkpt lat="49.14727" lon="1.85683">
        <ele>122</ele>
        <time>2022-08-14T07:45:10Z</time>
      </trkpt>
      <trkpt lat="49.14712" lon="1.85688">
        <ele>122.91</ele>
        <time>2022-08-14T07:45:23Z</time>
      </trkpt>
      <trkpt lat="49.14699" lon="1.85692">
        <ele>122.63</ele>
        <time>2022-08-14T07:45:34Z</time>
      </trkpt>
      <trkpt lat="49.14683" lon="1.85697">
        <ele>123.25</ele>
        <time>2022-08-14T07:45:48Z</time>
      </trkpt>
      <trkpt lat="49.1466" lon="1.85705">
        <ele>123.61</ele>
        <time>2022-08-14T07:46:09Z</time>
      </trkpt>
      <trkpt lat="49.14636" lon="1.85714">
        <ele>123.6</ele>
        <time>2022-08-14T07:46:30Z</time>
      </trkpt>
      <trkpt lat="49.14627" lon="1.85717">
        <ele>122.99</ele>
        <time>2022-08-14T07:46:38Z</time>
      </trkpt>
      <trkpt lat="49.14624" lon="1.85716">
        <ele>124.11</ele>
        <time>2022-08-14T07:46:42Z</time>
      </trkpt>
      <trkpt lat="49.14612" lon="1.85723">
        <ele>122.85</ele>
        <time>2022-08-14T07:46:55Z</time>
      </trkpt>
      <trkpt lat="49.146" lon="1.85727">
        <ele>123.57</ele>
        <time>2022-08-14T07:47:06Z</time>
      </trkpt>
      <trkpt lat="49.14586" lon="1.8573">
        <ele>123.12</ele>
        <time>2022-08-14T07:47:18Z</time>
      </trkpt>
      <trkpt lat="49.14574" lon="1.85735">
        <ele>123.41</ele>
        <time>2022-08-14T07:47:29Z</time>
      </trkpt>
      <trkpt lat="49.14569" lon="1.85737">
        <ele>123.25</ele>
        <time>2022-08-14T07:47:33Z</time>
      </trkpt>
      <trkpt lat="49.14564" lon="1.85737">
        <ele>123.47</ele>
        <time>2022-08-14T07:47:37Z</time>
      </trkpt>
      <trkpt lat="49.14559" lon="1.85738">
        <ele>123.47</ele>
        <time>2022-08-14T07:47:41Z</time>
      </trkpt>
      <trkpt lat="49.14545" lon="1.85744">
        <ele>124.14</ele>
        <time>2022-08-14T07:47:54Z</time>
      </trkpt>
      <trkpt lat="49.14528" lon="1.85755">
        <ele>124.07</ele>
        <time>2022-08-14T07:48:10Z</time>
      </trkpt>
      <trkpt lat="49.14525" lon="1.85756">
        <ele>123.79</ele>
        <time>2022-08-14T07:48:13Z</time>
      </trkpt>
      <trkpt lat="49.14516" lon="1.85756">
        <ele>123.64</ele>
        <time>2022-08-14T07:48:20Z</time>
      </trkpt>
      <trkpt lat="49.14508" lon="1.85762">
        <ele>123.84</ele>
        <time>2022-08-14T07:48:27Z</time>
      </trkpt>
      <trkpt lat="49.14504" lon="1.85763">
        <ele>123.96</ele>
        <time>2022-08-14T07:48:31Z</time>
      </trkpt>
      <trkpt lat="49.14499" lon="1.85766">
        <ele>124.13</ele>
        <time>2022-08-14T07:48:36Z</time>
      </trkpt>
      <trkpt lat="49.14485" lon="1.8577">
        <ele>123.89</ele>
        <time>2022-08-14T07:48:48Z</time>
      </trkpt>
      <trkpt lat="49.14468" lon="1.85772">
        <ele>123.17</ele>
        <time>2022-08-14T07:49:03Z</time>
      </trkpt>
      <trkpt lat="49.1445" lon="1.85777">
        <ele>123.03</ele>
        <time>2022-08-14T07:49:18Z</time>
      </trkpt>
      <trkpt lat="49.1443" lon="1.85781">
        <ele>123.88</ele>
        <time>2022-08-14T07:49:34Z</time>
      </trkpt>
      <trkpt lat="49.1441" lon="1.85785">
        <ele>122.74</ele>
        <time>2022-08-14T07:49:51Z</time>
      </trkpt>
      <trkpt lat="49.14396" lon="1.85785">
        <ele>123.69</ele>
        <time>2022-08-14T07:50:05Z</time>
      </trkpt>
      <trkpt lat="49.14393" lon="1.85786">
        <ele>123.42</ele>
        <time>2022-08-14T07:50:20Z</time>
      </trkpt>
      <trkpt lat="49.14386" lon="1.85786">
        <ele>123.36</ele>
        <time>2022-08-14T07:50:33Z</time>
      </trkpt>
      <trkpt lat="49.14386" lon="1.85788">
        <ele>123.7</ele>
        <time>2022-08-14T07:50:49Z</time>
      </trkpt>
      <trkpt lat="49.14381" lon="1.85791">
        <ele>123.09</ele>
        <time>2022-08-14T07:51:08Z</time>
      </trkpt>
      <trkpt lat="49.1438" lon="1.85791">
        <ele>123.03</ele>
        <time>2022-08-14T07:51:09Z</time>
      </trkpt>
      <trkpt lat="49.14367" lon="1.85782">
        <ele>122.31</ele>
        <time>2022-08-14T07:51:21Z</time>
      </trkpt>
      <trkpt lat="49.14354" lon="1.85772">
        <ele>121.9</ele>
        <time>2022-08-14T07:51:33Z</time>
      </trkpt>
      <trkpt lat="49.14343" lon="1.85764">
        <ele>122.55</ele>
        <time>2022-08-14T07:51:44Z</time>
      </trkpt>
      <trkpt lat="49.14329" lon="1.85753">
        <ele>122.95</ele>
        <time>2022-08-14T07:51:58Z</time>
      </trkpt>
      <trkpt lat="49.14326" lon="1.85751">
        <ele>122.85</ele>
        <time>2022-08-14T07:52:01Z</time>
      </trkpt>
      <trkpt lat="49.14322" lon="1.85749">
        <ele>123.31</ele>
        <time>2022-08-14T07:52:05Z</time>
      </trkpt>
      <trkpt lat="49.14308" lon="1.85739">
        <ele>123.06</ele>
        <time>2022-08-14T07:52:19Z</time>
      </trkpt>
      <trkpt lat="49.14303" lon="1.85734">
        <ele>123.19</ele>
        <time>2022-08-14T07:52:26Z</time>
      </trkpt>
      <trkpt lat="49.14291" lon="1.85724">
        <ele>123.15</ele>
        <time>2022-08-14T07:52:40Z</time>
      </trkpt>
      <trkpt lat="49.14279" lon="1.85716">
        <ele>123.07</ele>
        <time>2022-08-14T07:52:52Z</time>
      </trkpt>
      <trkpt lat="49.14268" lon="1.85706">
        <ele>122.09</ele>
        <time>2022-08-14T07:53:04Z</time>
      </trkpt>
      <trkpt lat="49.14256" lon="1.85697">
        <ele>122.29</ele>
        <time>2022-08-14T07:53:16Z</time>
      </trkpt>
      <trkpt lat="49.14245" lon="1.85689">
        <ele>122.43</ele>
        <time>2022-08-14T07:53:27Z</time>
      </trkpt>
      <trkpt lat="49.14235" lon="1.85682">
        <ele>121.89</ele>
        <time>2022-08-14T07:53:37Z</time>
      </trkpt>
      <trkpt lat="49.14224" lon="1.85673">
        <ele>121.59</ele>
        <time>2022-08-14T07:53:49Z</time>
      </trkpt>
      <trkpt lat="49.14221" lon="1.85671">
        <ele>121.17</ele>
        <time>2022-08-14T07:53:52Z</time>
      </trkpt>
      <trkpt lat="49.14212" lon="1.85664">
        <ele>121.71</ele>
        <time>2022-08-14T07:54:02Z</time>
      </trkpt>
      <trkpt lat="49.14202" lon="1.85656">
        <ele>121.9</ele>
        <time>2022-08-14T07:54:13Z</time>
      </trkpt>
      <trkpt lat="49.14191" lon="1.85647">
        <ele>122.19</ele>
        <time>2022-08-14T07:54:25Z</time>
      </trkpt>
      <trkpt lat="49.14182" lon="1.85641">
        <ele>122.65</ele>
        <time>2022-08-14T07:54:34Z</time>
      </trkpt>
      <trkpt lat="49.14169" lon="1.85631">
        <ele>122.94</ele>
        <time>2022-08-14T07:54:47Z</time>
      </trkpt>
      <trkpt lat="49.1416" lon="1.85624">
        <ele>123.25</ele>
        <time>2022-08-14T07:54:57Z</time>
      </trkpt>
      <trkpt lat="49.14152" lon="1.85618">
        <ele>123.45</ele>
        <time>2022-08-14T07:55:05Z</time>
      </trkpt>
      <trkpt lat="49.14145" lon="1.85613">
        <ele>124.74</ele>
        <time>2022-08-14T07:55:12Z</time>
      </trkpt>
      <trkpt lat="49.14141" lon="1.8561">
        <ele>124.56</ele>
        <time>2022-08-14T07:55:16Z</time>
      </trkpt>
      <trkpt lat="49.14138" lon="1.85609">
        <ele>124.06</ele>
        <time>2022-08-14T07:55:18Z</time>
      </trkpt>
      <trkpt lat="49.1413" lon="1.85604">
        <ele>124.38</ele>
        <time>2022-08-14T07:55:26Z</time>
      </trkpt>
      <trkpt lat="49.1412" lon="1.85596">
        <ele>125.05</ele>
        <time>2022-08-14T07:55:36Z</time>
      </trkpt>
      <trkpt lat="49.14117" lon="1.85589">
        <ele>125.93</ele>
        <time>2022-08-14T07:55:45Z</time>
      </trkpt>
      <trkpt lat="49.14115" lon="1.85592">
        <ele>125.58</ele>
        <time>2022-08-14T07:55:56Z</time>
      </trkpt>
      <trkpt lat="49.14114" lon="1.85592">
        <ele>125.3</ele>
        <time>2022-08-14T07:56:03Z</time>
      </trkpt>
      <trkpt lat="49.14108" lon="1.85588">
        <ele>125.21</ele>
        <time>2022-08-14T07:56:10Z</time>
      </trkpt>
      <trkpt lat="49.14103" lon="1.85585">
        <ele>125.67</ele>
        <time>2022-08-14T07:56:15Z</time>
      </trkpt>
      <trkpt lat="49.14101" lon="1.85583">
        <ele>125.79</ele>
        <time>2022-08-14T07:56:17Z</time>
      </trkpt>
      <trkpt lat="49.1409" lon="1.85573">
        <ele>125.6</ele>
        <time>2022-08-14T07:56:28Z</time>
      </trkpt>
      <trkpt lat="49.14085" lon="1.85569">
        <ele>125.99</ele>
        <time>2022-08-14T07:56:33Z</time>
      </trkpt>
      <trkpt lat="49.14076" lon="1.85561">
        <ele>125.88</ele>
        <time>2022-08-14T07:56:42Z</time>
      </trkpt>
      <trkpt lat="49.14072" lon="1.85558">
        <ele>126.38</ele>
        <time>2022-08-14T07:56:46Z</time>
      </trkpt>
      <trkpt lat="49.14071" lon="1.85557">
        <ele>126.37</ele>
        <time>2022-08-14T07:56:48Z</time>
      </trkpt>
      <trkpt lat="49.1406" lon="1.85549">
        <ele>126.14</ele>
        <time>2022-08-14T07:56:59Z</time>
      </trkpt>
      <trkpt lat="49.14047" lon="1.85541">
        <ele>126.05</ele>
        <time>2022-08-14T07:57:11Z</time>
      </trkpt>
      <trkpt lat="49.14045" lon="1.85539">
        <ele>127.21</ele>
        <time>2022-08-14T07:57:14Z</time>
      </trkpt>
      <trkpt lat="49.14033" lon="1.85529">
        <ele>126.46</ele>
        <time>2022-08-14T07:57:25Z</time>
      </trkpt>
      <trkpt lat="49.14022" lon="1.8552">
        <ele>127</ele>
        <time>2022-08-14T07:57:36Z</time>
      </trkpt>
      <trkpt lat="49.14011" lon="1.85513">
        <ele>127.02</ele>
        <time>2022-08-14T07:57:47Z</time>
      </trkpt>
      <trkpt lat="49.14004" lon="1.85507">
        <ele>127.1</ele>
        <time>2022-08-14T07:57:55Z</time>
      </trkpt>
      <trkpt lat="49.14002" lon="1.85505">
        <ele>127.14</ele>
        <time>2022-08-14T07:57:57Z</time>
      </trkpt>
      <trkpt lat="49.13992" lon="1.85496">
        <ele>127.76</ele>
        <time>2022-08-14T07:58:08Z</time>
      </trkpt>
      <trkpt lat="49.1398" lon="1.85486">
        <ele>126.89</ele>
        <time>2022-08-14T07:58:19Z</time>
      </trkpt>
      <trkpt lat="49.13968" lon="1.85478">
        <ele>126.66</ele>
        <time>2022-08-14T07:58:30Z</time>
      </trkpt>
      <trkpt lat="49.13956" lon="1.85469">
        <ele>126.13</ele>
        <time>2022-08-14T07:58:41Z</time>
      </trkpt>
      <trkpt lat="49.13946" lon="1.85461">
        <ele>126.66</ele>
        <time>2022-08-14T07:58:51Z</time>
      </trkpt>
      <trkpt lat="49.13939" lon="1.85456">
        <ele>126.22</ele>
        <time>2022-08-14T07:58:57Z</time>
      </trkpt>
      <trkpt lat="49.13937" lon="1.85454">
        <ele>126.44</ele>
        <time>2022-08-14T07:58:59Z</time>
      </trkpt>
      <trkpt lat="49.13935" lon="1.85453">
        <ele>126.32</ele>
        <time>2022-08-14T07:59:01Z</time>
      </trkpt>
      <trkpt lat="49.13934" lon="1.85452">
        <ele>126.55</ele>
        <time>2022-08-14T07:59:02Z</time>
      </trkpt>
      <trkpt lat="49.13933" lon="1.85452">
        <ele>126.53</ele>
        <time>2022-08-14T07:59:03Z</time>
      </trkpt>
      <trkpt lat="49.13932" lon="1.85451">
        <ele>126.46</ele>
        <time>2022-08-14T07:59:04Z</time>
      </trkpt>
      <trkpt lat="49.13931" lon="1.8545">
        <ele>126.62</ele>
        <time>2022-08-14T07:59:05Z</time>
      </trkpt>
      <trkpt lat="49.1392" lon="1.85443">
        <ele>126.29</ele>
        <time>2022-08-14T07:59:14Z</time>
      </trkpt>
      <trkpt lat="49.13912" lon="1.85436">
        <ele>125.82</ele>
        <time>2022-08-14T07:59:23Z</time>
      </trkpt>
      <trkpt lat="49.13911" lon="1.85435">
        <ele>126.27</ele>
        <time>2022-08-14T07:59:24Z</time>
      </trkpt>
      <trkpt lat="49.13909" lon="1.85435">
        <ele>125.68</ele>
        <time>2022-08-14T07:59:25Z</time>
      </trkpt>
      <trkpt lat="49.13908" lon="1.85434">
        <ele>125.82</ele>
        <time>2022-08-14T07:59:26Z</time>
      </trkpt>
      <trkpt lat="49.13907" lon="1.85433">
        <ele>125.97</ele>
        <time>2022-08-14T07:59:27Z</time>
      </trkpt>
      <trkpt lat="49.13903" lon="1.85429">
        <ele>125.54</ele>
        <time>2022-08-14T07:59:31Z</time>
      </trkpt>
      <trkpt lat="49.13902" lon="1.85428">
        <ele>125.48</ele>
        <time>2022-08-14T07:59:32Z</time>
      </trkpt>
      <trkpt lat="49.13901" lon="1.85427">
        <ele>125.4</ele>
        <time>2022-08-14T07:59:33Z</time>
      </trkpt>
      <trkpt lat="49.139" lon="1.85426">
        <ele>125.57</ele>
        <time>2022-08-14T07:59:34Z</time>
      </trkpt>
      <trkpt lat="49.13899" lon="1.85425">
        <ele>125.96</ele>
        <time>2022-08-14T07:59:35Z</time>
      </trkpt>
      <trkpt lat="49.13894" lon="1.85421">
        <ele>124.99</ele>
        <time>2022-08-14T07:59:40Z</time>
      </trkpt>
      <trkpt lat="49.13893" lon="1.8542">
        <ele>125.44</ele>
        <time>2022-08-14T07:59:41Z</time>
      </trkpt>
      <trkpt lat="49.13885" lon="1.85415">
        <ele>125.34</ele>
        <time>2022-08-14T07:59:49Z</time>
      </trkpt>
      <trkpt lat="49.13882" lon="1.85413">
        <ele>125.26</ele>
        <time>2022-08-14T07:59:52Z</time>
      </trkpt>
      <trkpt lat="49.13874" lon="1.85405">
        <ele>124.91</ele>
        <time>2022-08-14T08:00:02Z</time>
      </trkpt>
      <trkpt lat="49.13865" lon="1.85398">
        <ele>124.88</ele>
        <time>2022-08-14T08:00:11Z</time>
      </trkpt>
      <trkpt lat="49.13864" lon="1.85397">
        <ele>124.87</ele>
        <time>2022-08-14T08:00:12Z</time>
      </trkpt>
      <trkpt lat="49.13863" lon="1.85396">
        <ele>125.2</ele>
        <time>2022-08-14T08:00:13Z</time>
      </trkpt>
      <trkpt lat="49.13862" lon="1.85396">
        <ele>125.25</ele>
        <time>2022-08-14T08:00:14Z</time>
      </trkpt>
      <trkpt lat="49.13861" lon="1.85395">
        <ele>125</ele>
        <time>2022-08-14T08:00:15Z</time>
      </trkpt>
      <trkpt lat="49.13849" lon="1.85387">
        <ele>125.63</ele>
        <time>2022-08-14T08:00:25Z</time>
      </trkpt>
      <trkpt lat="49.13839" lon="1.85379">
        <ele>124.7</ele>
        <time>2022-08-14T08:00:35Z</time>
      </trkpt>
      <trkpt lat="49.13829" lon="1.85372">
        <ele>124.66</ele>
        <time>2022-08-14T08:00:44Z</time>
      </trkpt>
      <trkpt lat="49.13828" lon="1.85372">
        <ele>125.13</ele>
        <time>2022-08-14T08:00:45Z</time>
      </trkpt>
      <trkpt lat="49.13827" lon="1.85371">
        <ele>124.84</ele>
        <time>2022-08-14T08:00:46Z</time>
      </trkpt>
      <trkpt lat="49.13827" lon="1.85369">
        <ele>125</ele>
        <time>2022-08-14T08:00:47Z</time>
      </trkpt>
      <trkpt lat="49.13826" lon="1.85368">
        <ele>125.06</ele>
        <time>2022-08-14T08:00:48Z</time>
      </trkpt>
      <trkpt lat="49.13825" lon="1.85367">
        <ele>125.13</ele>
        <time>2022-08-14T08:00:49Z</time>
      </trkpt>
      <trkpt lat="49.13813" lon="1.85359">
        <ele>124.87</ele>
        <time>2022-08-14T08:01:00Z</time>
      </trkpt>
      <trkpt lat="49.13798" lon="1.85348">
        <ele>125.2</ele>
        <time>2022-08-14T08:01:14Z</time>
      </trkpt>
      <trkpt lat="49.13787" lon="1.8534">
        <ele>125.12</ele>
        <time>2022-08-14T08:01:25Z</time>
      </trkpt>
      <trkpt lat="49.13774" lon="1.85331">
        <ele>124.9</ele>
        <time>2022-08-14T08:01:38Z</time>
      </trkpt>
      <trkpt lat="49.13772" lon="1.8533">
        <ele>124.84</ele>
        <time>2022-08-14T08:01:39Z</time>
      </trkpt>
      <trkpt lat="49.13771" lon="1.85329">
        <ele>124.73</ele>
        <time>2022-08-14T08:01:40Z</time>
      </trkpt>
      <trkpt lat="49.1377" lon="1.85328">
        <ele>124.55</ele>
        <time>2022-08-14T08:01:41Z</time>
      </trkpt>
      <trkpt lat="49.13769" lon="1.85327">
        <ele>124.52</ele>
        <time>2022-08-14T08:01:42Z</time>
      </trkpt>
      <trkpt lat="49.13768" lon="1.85326">
        <ele>124.64</ele>
        <time>2022-08-14T08:01:43Z</time>
      </trkpt>
      <trkpt lat="49.13763" lon="1.85323">
        <ele>125.34</ele>
        <time>2022-08-14T08:01:48Z</time>
      </trkpt>
      <trkpt lat="49.13761" lon="1.85323">
        <ele>124.66</ele>
        <time>2022-08-14T08:01:49Z</time>
      </trkpt>
      <trkpt lat="49.1376" lon="1.85322">
        <ele>124.72</ele>
        <time>2022-08-14T08:01:50Z</time>
      </trkpt>
      <trkpt lat="49.13759" lon="1.85321">
        <ele>124.78</ele>
        <time>2022-08-14T08:01:51Z</time>
      </trkpt>
      <trkpt lat="49.13758" lon="1.85321">
        <ele>124.97</ele>
        <time>2022-08-14T08:01:52Z</time>
      </trkpt>
      <trkpt lat="49.13755" lon="1.85318">
        <ele>124.5</ele>
        <time>2022-08-14T08:01:55Z</time>
      </trkpt>
      <trkpt lat="49.13754" lon="1.85318">
        <ele>124.26</ele>
        <time>2022-08-14T08:01:56Z</time>
      </trkpt>
      <trkpt lat="49.13743" lon="1.85309">
        <ele>124.63</ele>
        <time>2022-08-14T08:02:07Z</time>
      </trkpt>
      <trkpt lat="49.13733" lon="1.85301">
        <ele>124.39</ele>
        <time>2022-08-14T08:02:17Z</time>
      </trkpt>
      <trkpt lat="49.13724" lon="1.85295">
        <ele>124.08</ele>
        <time>2022-08-14T08:02:26Z</time>
      </trkpt>
      <trkpt lat="49.13717" lon="1.85291">
        <ele>124.15</ele>
        <time>2022-08-14T08:02:32Z</time>
      </trkpt>
      <trkpt lat="49.1371" lon="1.85285">
        <ele>124.03</ele>
        <time>2022-08-14T08:02:39Z</time>
      </trkpt>
      <trkpt lat="49.137" lon="1.85276">
        <ele>124.57</ele>
        <time>2022-08-14T08:02:49Z</time>
      </trkpt>
      <trkpt lat="49.1369" lon="1.85268">
        <ele>123.84</ele>
        <time>2022-08-14T08:02:59Z</time>
      </trkpt>
      <trkpt lat="49.1368" lon="1.85261">
        <ele>123.86</ele>
        <time>2022-08-14T08:03:08Z</time>
      </trkpt>
      <trkpt lat="49.13669" lon="1.85252">
        <ele>124.43</ele>
        <time>2022-08-14T08:03:19Z</time>
      </trkpt>
      <trkpt lat="49.13657" lon="1.85245">
        <ele>123.66</ele>
        <time>2022-08-14T08:03:29Z</time>
      </trkpt>
      <trkpt lat="49.13646" lon="1.85236">
        <ele>123.93</ele>
        <time>2022-08-14T08:03:40Z</time>
      </trkpt>
      <trkpt lat="49.13644" lon="1.85235">
        <ele>123.47</ele>
        <time>2022-08-14T08:03:43Z</time>
      </trkpt>
      <trkpt lat="49.13643" lon="1.85234">
        <ele>124.06</ele>
        <time>2022-08-14T08:03:44Z</time>
      </trkpt>
      <trkpt lat="49.1364" lon="1.85232">
        <ele>123.67</ele>
        <time>2022-08-14T08:03:46Z</time>
      </trkpt>
      <trkpt lat="49.13639" lon="1.85231">
        <ele>123.85</ele>
        <time>2022-08-14T08:03:47Z</time>
      </trkpt>
      <trkpt lat="49.13638" lon="1.8523">
        <ele>123.64</ele>
        <time>2022-08-14T08:03:48Z</time>
      </trkpt>
      <trkpt lat="49.13637" lon="1.85229">
        <ele>124.29</ele>
        <time>2022-08-14T08:03:49Z</time>
      </trkpt>
      <trkpt lat="49.13636" lon="1.85228">
        <ele>123.67</ele>
        <time>2022-08-14T08:03:50Z</time>
      </trkpt>
      <trkpt lat="49.13635" lon="1.85227">
        <ele>123.95</ele>
        <time>2022-08-14T08:03:51Z</time>
      </trkpt>
      <trkpt lat="49.1363" lon="1.85224">
        <ele>124.14</ele>
        <time>2022-08-14T08:03:55Z</time>
      </trkpt>
      <trkpt lat="49.13629" lon="1.85223">
        <ele>123.7</ele>
        <time>2022-08-14T08:03:56Z</time>
      </trkpt>
      <trkpt lat="49.13628" lon="1.85222">
        <ele>123.28</ele>
        <time>2022-08-14T08:03:57Z</time>
      </trkpt>
      <trkpt lat="49.13624" lon="1.85218">
        <ele>123.59</ele>
        <time>2022-08-14T08:04:01Z</time>
      </trkpt>
      <trkpt lat="49.13623" lon="1.85217">
        <ele>123.48</ele>
        <time>2022-08-14T08:04:02Z</time>
      </trkpt>
      <trkpt lat="49.13613" lon="1.85209">
        <ele>123.76</ele>
        <time>2022-08-14T08:04:11Z</time>
      </trkpt>
      <trkpt lat="49.13612" lon="1.85209">
        <ele>123.84</ele>
        <time>2022-08-14T08:04:12Z</time>
      </trkpt>
      <trkpt lat="49.13611" lon="1.85208">
        <ele>123.99</ele>
        <time>2022-08-14T08:04:13Z</time>
      </trkpt>
      <trkpt lat="49.1361" lon="1.85207">
        <ele>124.01</ele>
        <time>2022-08-14T08:04:14Z</time>
      </trkpt>
      <trkpt lat="49.13609" lon="1.85206">
        <ele>123.67</ele>
        <time>2022-08-14T08:04:15Z</time>
      </trkpt>
      <trkpt lat="49.13608" lon="1.85206">
        <ele>123.4</ele>
        <time>2022-08-14T08:04:16Z</time>
      </trkpt>
      <trkpt lat="49.13597" lon="1.85198">
        <ele>123.17</ele>
        <time>2022-08-14T08:04:26Z</time>
      </trkpt>
      <trkpt lat="49.13586" lon="1.85189">
        <ele>123.98</ele>
        <time>2022-08-14T08:04:37Z</time>
      </trkpt>
      <trkpt lat="49.1358" lon="1.85185">
        <ele>124.46</ele>
        <time>2022-08-14T08:04:42Z</time>
      </trkpt>
      <trkpt lat="49.13579" lon="1.85185">
        <ele>124.64</ele>
        <time>2022-08-14T08:04:43Z</time>
      </trkpt>
      <trkpt lat="49.13577" lon="1.85184">
        <ele>124.76</ele>
        <time>2022-08-14T08:04:45Z</time>
      </trkpt>
      <trkpt lat="49.13575" lon="1.85184">
        <ele>124.7</ele>
        <time>2022-08-14T08:04:47Z</time>
      </trkpt>
      <trkpt lat="49.13568" lon="1.85177">
        <ele>125.32</ele>
        <time>2022-08-14T08:04:55Z</time>
      </trkpt>
      <trkpt lat="49.13567" lon="1.85176">
        <ele>125.85</ele>
        <time>2022-08-14T08:04:56Z</time>
      </trkpt>
      <trkpt lat="49.13566" lon="1.85175">
        <ele>125.84</ele>
        <time>2022-08-14T08:04:57Z</time>
      </trkpt>
      <trkpt lat="49.13565" lon="1.85174">
        <ele>125.85</ele>
        <time>2022-08-14T08:04:58Z</time>
      </trkpt>
      <trkpt lat="49.13564" lon="1.85174">
        <ele>125.85</ele>
        <time>2022-08-14T08:04:59Z</time>
      </trkpt>
      <trkpt lat="49.13563" lon="1.85173">
        <ele>125.84</ele>
        <time>2022-08-14T08:05:00Z</time>
      </trkpt>
      <trkpt lat="49.13551" lon="1.85164">
        <ele>126.33</ele>
        <time>2022-08-14T08:05:12Z</time>
      </trkpt>
      <trkpt lat="49.13547" lon="1.8516">
        <ele>126.7</ele>
        <time>2022-08-14T08:05:16Z</time>
      </trkpt>
      <trkpt lat="49.13545" lon="1.85158">
        <ele>126.42</ele>
        <time>2022-08-14T08:05:19Z</time>
      </trkpt>
      <trkpt lat="49.13544" lon="1.85157">
        <ele>126.44</ele>
        <time>2022-08-14T08:05:20Z</time>
      </trkpt>
      <trkpt lat="49.13533" lon="1.85148">
        <ele>127.91</ele>
        <time>2022-08-14T08:05:31Z</time>
      </trkpt>
      <trkpt lat="49.13523" lon="1.8514">
        <ele>127.71</ele>
        <time>2022-08-14T08:05:42Z</time>
      </trkpt>
      <trkpt lat="49.13512" lon="1.85133">
        <ele>128.29</ele>
        <time>2022-08-14T08:05:53Z</time>
      </trkpt>
      <trkpt lat="49.13504" lon="1.85125">
        <ele>128.84</ele>
        <time>2022-08-14T08:06:02Z</time>
      </trkpt>
      <trkpt lat="49.13494" lon="1.85118">
        <ele>128.63</ele>
        <time>2022-08-14T08:06:11Z</time>
      </trkpt>
      <trkpt lat="49.13486" lon="1.85113">
        <ele>129.84</ele>
        <time>2022-08-14T08:06:20Z</time>
      </trkpt>
      <trkpt lat="49.13476" lon="1.85105">
        <ele>130.69</ele>
        <time>2022-08-14T08:06:31Z</time>
      </trkpt>
      <trkpt lat="49.13475" lon="1.85104">
        <ele>130.45</ele>
        <time>2022-08-14T08:06:32Z</time>
      </trkpt>
      <trkpt lat="49.13474" lon="1.85103">
        <ele>130</ele>
        <time>2022-08-14T08:06:33Z</time>
      </trkpt>
      <trkpt lat="49.13473" lon="1.85102">
        <ele>130.52</ele>
        <time>2022-08-14T08:06:35Z</time>
      </trkpt>
      <trkpt lat="49.13472" lon="1.85101">
        <ele>130.53</ele>
        <time>2022-08-14T08:06:36Z</time>
      </trkpt>
      <trkpt lat="49.13471" lon="1.851">
        <ele>130.41</ele>
        <time>2022-08-14T08:06:37Z</time>
      </trkpt>
      <trkpt lat="49.1347" lon="1.85099">
        <ele>130.21</ele>
        <time>2022-08-14T08:06:38Z</time>
      </trkpt>
      <trkpt lat="49.13469" lon="1.85099">
        <ele>130.71</ele>
        <time>2022-08-14T08:06:39Z</time>
      </trkpt>
      <trkpt lat="49.13468" lon="1.85098">
        <ele>130.6</ele>
        <time>2022-08-14T08:06:40Z</time>
      </trkpt>
      <trkpt lat="49.13458" lon="1.85091">
        <ele>130.43</ele>
        <time>2022-08-14T08:06:50Z</time>
      </trkpt>
      <trkpt lat="49.13457" lon="1.85091">
        <ele>130.84</ele>
        <time>2022-08-14T08:06:51Z</time>
      </trkpt>
      <trkpt lat="49.13454" lon="1.85087">
        <ele>130.87</ele>
        <time>2022-08-14T08:06:54Z</time>
      </trkpt>
      <trkpt lat="49.13453" lon="1.85087">
        <ele>131.22</ele>
        <time>2022-08-14T08:06:55Z</time>
      </trkpt>
      <trkpt lat="49.13442" lon="1.85079">
        <ele>131.63</ele>
        <time>2022-08-14T08:07:07Z</time>
      </trkpt>
      <trkpt lat="49.13436" lon="1.85075">
        <ele>132.33</ele>
        <time>2022-08-14T08:07:18Z</time>
      </trkpt>
      <trkpt lat="49.13436" lon="1.85076">
        <ele>132.74</ele>
        <time>2022-08-14T08:07:32Z</time>
      </trkpt>
      <trkpt lat="49.13437" lon="1.85077">
        <ele>132.75</ele>
        <time>2022-08-14T08:07:51Z</time>
      </trkpt>
      <trkpt lat="49.13436" lon="1.85078">
        <ele>132.39</ele>
        <time>2022-08-14T08:08:14Z</time>
      </trkpt>
      <trkpt lat="49.13436" lon="1.8508">
        <ele>132.56</ele>
        <time>2022-08-14T08:08:32Z</time>
      </trkpt>
      <trkpt lat="49.13437" lon="1.8508">
        <ele>132.27</ele>
        <time>2022-08-14T08:08:55Z</time>
      </trkpt>
      <trkpt lat="49.13437" lon="1.85078">
        <ele>132.22</ele>
        <time>2022-08-14T08:09:12Z</time>
      </trkpt>
      <trkpt lat="49.13437" lon="1.85075">
        <ele>132.34</ele>
        <time>2022-08-14T08:09:16Z</time>
      </trkpt>
      <trkpt lat="49.13438" lon="1.8507">
        <ele>131.89</ele>
        <time>2022-08-14T08:09:25Z</time>
      </trkpt>
      <trkpt lat="49.13439" lon="1.85069">
        <ele>132.11</ele>
        <time>2022-08-14T08:09:26Z</time>
      </trkpt>
      <trkpt lat="49.13439" lon="1.85067">
        <ele>131.63</ele>
        <time>2022-08-14T08:09:27Z</time>
      </trkpt>
      <trkpt lat="49.1344" lon="1.85065">
        <ele>132.18</ele>
        <time>2022-08-14T08:09:28Z</time>
      </trkpt>
      <trkpt lat="49.1344" lon="1.85064">
        <ele>131.8</ele>
        <time>2022-08-14T08:09:29Z</time>
      </trkpt>
      <trkpt lat="49.13441" lon="1.85061">
        <ele>132.19</ele>
        <time>2022-08-14T08:09:37Z</time>
      </trkpt>
      <trkpt lat="49.13439" lon="1.85063">
        <ele>132.38</ele>
        <time>2022-08-14T08:09:47Z</time>
      </trkpt>
      <trkpt lat="49.13444" lon="1.85051">
        <ele>131.62</ele>
        <time>2022-08-14T08:09:57Z</time>
      </trkpt>
      <trkpt lat="49.13452" lon="1.85033">
        <ele>131.49</ele>
        <time>2022-08-14T08:10:09Z</time>
      </trkpt>
      <trkpt lat="49.13459" lon="1.85019">
        <ele>131.64</ele>
        <time>2022-08-14T08:10:20Z</time>
      </trkpt>
      <trkpt lat="49.13462" lon="1.85009">
        <ele>131.63</ele>
        <time>2022-08-14T08:10:27Z</time>
      </trkpt>
      <trkpt lat="49.13463" lon="1.85007">
        <ele>131.66</ele>
        <time>2022-08-14T08:10:28Z</time>
      </trkpt>
      <trkpt lat="49.13469" lon="1.84988">
        <ele>130.37</ele>
        <time>2022-08-14T08:10:40Z</time>
      </trkpt>
      <trkpt lat="49.13475" lon="1.84968">
        <ele>130.83</ele>
        <time>2022-08-14T08:10:53Z</time>
      </trkpt>
      <trkpt lat="49.13477" lon="1.84962">
        <ele>130.21</ele>
        <time>2022-08-14T08:10:57Z</time>
      </trkpt>
      <trkpt lat="49.13478" lon="1.8496">
        <ele>130.69</ele>
        <time>2022-08-14T08:10:58Z</time>
      </trkpt>
      <trkpt lat="49.13478" lon="1.84958">
        <ele>130.38</ele>
        <time>2022-08-14T08:10:59Z</time>
      </trkpt>
      <trkpt lat="49.13479" lon="1.84957">
        <ele>130.11</ele>
        <time>2022-08-14T08:11:00Z</time>
      </trkpt>
      <trkpt lat="49.13479" lon="1.84955">
        <ele>130.24</ele>
        <time>2022-08-14T08:11:01Z</time>
      </trkpt>
      <trkpt lat="49.13479" lon="1.84953">
        <ele>130.58</ele>
        <time>2022-08-14T08:11:02Z</time>
      </trkpt>
      <trkpt lat="49.1348" lon="1.84951">
        <ele>130.6</ele>
        <time>2022-08-14T08:11:03Z</time>
      </trkpt>
      <trkpt lat="49.1348" lon="1.8495">
        <ele>130.56</ele>
        <time>2022-08-14T08:11:04Z</time>
      </trkpt>
      <trkpt lat="49.13486" lon="1.84932">
        <ele>130.76</ele>
        <time>2022-08-14T08:11:16Z</time>
      </trkpt>
      <trkpt lat="49.13499" lon="1.84912">
        <ele>130.54</ele>
        <time>2022-08-14T08:11:32Z</time>
      </trkpt>
      <trkpt lat="49.13507" lon="1.84895">
        <ele>131.02</ele>
        <time>2022-08-14T08:11:44Z</time>
      </trkpt>
      <trkpt lat="49.13516" lon="1.84879">
        <ele>132.11</ele>
        <time>2022-08-14T08:11:57Z</time>
      </trkpt>
      <trkpt lat="49.13516" lon="1.84878">
        <ele>132.11</ele>
        <time>2022-08-14T08:11:58Z</time>
      </trkpt>
      <trkpt lat="49.13517" lon="1.84877">
        <ele>132.1</ele>
        <time>2022-08-14T08:11:59Z</time>
      </trkpt>
      <trkpt lat="49.13519" lon="1.8487">
        <ele>131.55</ele>
        <time>2022-08-14T08:12:07Z</time>
      </trkpt>
      <trkpt lat="49.13518" lon="1.84868">
        <ele>131.36</ele>
        <time>2022-08-14T08:12:10Z</time>
      </trkpt>
      <trkpt lat="49.13519" lon="1.84861">
        <ele>131.74</ele>
        <time>2022-08-14T08:12:17Z</time>
      </trkpt>
      <trkpt lat="49.13522" lon="1.84851">
        <ele>131.89</ele>
        <time>2022-08-14T08:12:28Z</time>
      </trkpt>
      <trkpt lat="49.13528" lon="1.8485">
        <ele>131.01</ele>
        <time>2022-08-14T08:12:38Z</time>
      </trkpt>
      <trkpt lat="49.13533" lon="1.8485">
        <ele>132.15</ele>
        <time>2022-08-14T08:12:48Z</time>
      </trkpt>
      <trkpt lat="49.13534" lon="1.84849">
        <ele>132.17</ele>
        <time>2022-08-14T08:12:49Z</time>
      </trkpt>
      <trkpt lat="49.13534" lon="1.84848">
        <ele>132.48</ele>
        <time>2022-08-14T08:12:57Z</time>
      </trkpt>
      <trkpt lat="49.13538" lon="1.84842">
        <ele>132.26</ele>
        <time>2022-08-14T08:13:04Z</time>
      </trkpt>
      <trkpt lat="49.13541" lon="1.84835">
        <ele>132.5</ele>
        <time>2022-08-14T08:13:11Z</time>
      </trkpt>
      <trkpt lat="49.13542" lon="1.84832">
        <ele>132.77</ele>
        <time>2022-08-14T08:13:22Z</time>
      </trkpt>
      <trkpt lat="49.13544" lon="1.84832">
        <ele>132.49</ele>
        <time>2022-08-14T08:13:40Z</time>
      </trkpt>
      <trkpt lat="49.13544" lon="1.84831">
        <ele>132.66</ele>
        <time>2022-08-14T08:13:58Z</time>
      </trkpt>
      <trkpt lat="49.1355" lon="1.8482">
        <ele>133.27</ele>
        <time>2022-08-14T08:14:12Z</time>
      </trkpt>
      <trkpt lat="49.13552" lon="1.84818">
        <ele>132.49</ele>
        <time>2022-08-14T08:14:25Z</time>
      </trkpt>
      <trkpt lat="49.13554" lon="1.84816">
        <ele>132.99</ele>
        <time>2022-08-14T08:14:28Z</time>
      </trkpt>
      <trkpt lat="49.13555" lon="1.84813">
        <ele>133.06</ele>
        <time>2022-08-14T08:14:30Z</time>
      </trkpt>
      <trkpt lat="49.13556" lon="1.84812">
        <ele>133.05</ele>
        <time>2022-08-14T08:14:31Z</time>
      </trkpt>
      <trkpt lat="49.13561" lon="1.84803">
        <ele>133.26</ele>
        <time>2022-08-14T08:14:38Z</time>
      </trkpt>
      <trkpt lat="49.13563" lon="1.84799">
        <ele>132.72</ele>
        <time>2022-08-14T08:14:41Z</time>
      </trkpt>
      <trkpt lat="49.13564" lon="1.84798">
        <ele>133.54</ele>
        <time>2022-08-14T08:14:42Z</time>
      </trkpt>
      <trkpt lat="49.13564" lon="1.84796">
        <ele>132.95</ele>
        <time>2022-08-14T08:14:43Z</time>
      </trkpt>
      <trkpt lat="49.13572" lon="1.84782">
        <ele>133.29</ele>
        <time>2022-08-14T08:14:54Z</time>
      </trkpt>
      <trkpt lat="49.13573" lon="1.84779">
        <ele>133.54</ele>
        <time>2022-08-14T08:14:56Z</time>
      </trkpt>
      <trkpt lat="49.13573" lon="1.84778">
        <ele>133.81</ele>
        <time>2022-08-14T08:14:57Z</time>
      </trkpt>
      <trkpt lat="49.13577" lon="1.84771">
        <ele>133.33</ele>
        <time>2022-08-14T08:15:03Z</time>
      </trkpt>
      <trkpt lat="49.13578" lon="1.8477">
        <ele>134.17</ele>
        <time>2022-08-14T08:15:04Z</time>
      </trkpt>
      <trkpt lat="49.13579" lon="1.84769">
        <ele>134.03</ele>
        <time>2022-08-14T08:15:05Z</time>
      </trkpt>
      <trkpt lat="49.13579" lon="1.84767">
        <ele>133.53</ele>
        <time>2022-08-14T08:15:06Z</time>
      </trkpt>
      <trkpt lat="49.1358" lon="1.84766">
        <ele>133.9</ele>
        <time>2022-08-14T08:15:07Z</time>
      </trkpt>
      <trkpt lat="49.13592" lon="1.84741">
        <ele>134.18</ele>
        <time>2022-08-14T08:15:26Z</time>
      </trkpt>
      <trkpt lat="49.13593" lon="1.84738">
        <ele>134.52</ele>
        <time>2022-08-14T08:15:28Z</time>
      </trkpt>
      <trkpt lat="49.13593" lon="1.84737">
        <ele>134.14</ele>
        <time>2022-08-14T08:15:29Z</time>
      </trkpt>
      <trkpt lat="49.13594" lon="1.84736">
        <ele>134.17</ele>
        <time>2022-08-14T08:15:30Z</time>
      </trkpt>
      <trkpt lat="49.13594" lon="1.84734">
        <ele>134.29</ele>
        <time>2022-08-14T08:15:31Z</time>
      </trkpt>
      <trkpt lat="49.136" lon="1.84722">
        <ele>134.21</ele>
        <time>2022-08-14T08:15:40Z</time>
      </trkpt>
      <trkpt lat="49.13606" lon="1.8471">
        <ele>134.07</ele>
        <time>2022-08-14T08:15:50Z</time>
      </trkpt>
      <trkpt lat="49.13616" lon="1.84694">
        <ele>135.02</ele>
        <time>2022-08-14T08:16:03Z</time>
      </trkpt>
      <trkpt lat="49.13623" lon="1.84679">
        <ele>135.08</ele>
        <time>2022-08-14T08:16:14Z</time>
      </trkpt>
      <trkpt lat="49.13629" lon="1.84666">
        <ele>135.38</ele>
        <time>2022-08-14T08:16:24Z</time>
      </trkpt>
      <trkpt lat="49.13632" lon="1.84659">
        <ele>135.65</ele>
        <time>2022-08-14T08:16:29Z</time>
      </trkpt>
      <trkpt lat="49.13632" lon="1.84658">
        <ele>135.7</ele>
        <time>2022-08-14T08:16:30Z</time>
      </trkpt>
      <trkpt lat="49.13633" lon="1.84656">
        <ele>135.63</ele>
        <time>2022-08-14T08:16:31Z</time>
      </trkpt>
      <trkpt lat="49.13634" lon="1.84655">
        <ele>135.56</ele>
        <time>2022-08-14T08:16:32Z</time>
      </trkpt>
      <trkpt lat="49.13634" lon="1.84654">
        <ele>135.43</ele>
        <time>2022-08-14T08:16:33Z</time>
      </trkpt>
      <trkpt lat="49.13635" lon="1.84652">
        <ele>135.76</ele>
        <time>2022-08-14T08:16:34Z</time>
      </trkpt>
      <trkpt lat="49.13639" lon="1.84638">
        <ele>135.83</ele>
        <time>2022-08-14T08:16:44Z</time>
      </trkpt>
      <trkpt lat="49.13642" lon="1.84629">
        <ele>136.28</ele>
        <time>2022-08-14T08:16:51Z</time>
      </trkpt>
      <trkpt lat="49.13643" lon="1.84627">
        <ele>135.67</ele>
        <time>2022-08-14T08:16:52Z</time>
      </trkpt>
      <trkpt lat="49.13644" lon="1.84626">
        <ele>135.96</ele>
        <time>2022-08-14T08:16:53Z</time>
      </trkpt>
      <trkpt lat="49.13652" lon="1.84605">
        <ele>136.39</ele>
        <time>2022-08-14T08:17:08Z</time>
      </trkpt>
      <trkpt lat="49.13658" lon="1.84589">
        <ele>136.93</ele>
        <time>2022-08-14T08:17:20Z</time>
      </trkpt>
      <trkpt lat="49.13664" lon="1.84572">
        <ele>137.09</ele>
        <time>2022-08-14T08:17:32Z</time>
      </trkpt>
      <trkpt lat="49.13671" lon="1.84553">
        <ele>136.69</ele>
        <time>2022-08-14T08:17:44Z</time>
      </trkpt>
      <trkpt lat="49.13674" lon="1.84544">
        <ele>136.86</ele>
        <time>2022-08-14T08:17:50Z</time>
      </trkpt>
      <trkpt lat="49.13674" lon="1.84542">
        <ele>136.79</ele>
        <time>2022-08-14T08:17:51Z</time>
      </trkpt>
      <trkpt lat="49.13674" lon="1.8454">
        <ele>137.37</ele>
        <time>2022-08-14T08:17:52Z</time>
      </trkpt>
      <trkpt lat="49.13674" lon="1.84539">
        <ele>137.17</ele>
        <time>2022-08-14T08:17:53Z</time>
      </trkpt>
      <trkpt lat="49.13674" lon="1.84537">
        <ele>136.61</ele>
        <time>2022-08-14T08:17:54Z</time>
      </trkpt>
      <trkpt lat="49.13675" lon="1.84535">
        <ele>137.04</ele>
        <time>2022-08-14T08:17:55Z</time>
      </trkpt>
      <trkpt lat="49.13675" lon="1.84534">
        <ele>137.26</ele>
        <time>2022-08-14T08:17:56Z</time>
      </trkpt>
      <trkpt lat="49.13676" lon="1.84532">
        <ele>137.03</ele>
        <time>2022-08-14T08:17:57Z</time>
      </trkpt>
      <trkpt lat="49.13676" lon="1.8453">
        <ele>137.18</ele>
        <time>2022-08-14T08:17:58Z</time>
      </trkpt>
      <trkpt lat="49.13677" lon="1.84529">
        <ele>136.72</ele>
        <time>2022-08-14T08:17:59Z</time>
      </trkpt>
      <trkpt lat="49.13677" lon="1.84527">
        <ele>137.08</ele>
        <time>2022-08-14T08:18:00Z</time>
      </trkpt>
      <trkpt lat="49.1368" lon="1.84515">
        <ele>137</ele>
        <time>2022-08-14T08:18:10Z</time>
      </trkpt>
      <trkpt lat="49.1368" lon="1.84517">
        <ele>136.81</ele>
        <time>2022-08-14T08:18:21Z</time>
      </trkpt>
      <trkpt lat="49.1368" lon="1.84516">
        <ele>137.41</ele>
        <time>2022-08-14T08:18:39Z</time>
      </trkpt>
      <trkpt lat="49.13681" lon="1.84514">
        <ele>137.23</ele>
        <time>2022-08-14T08:18:58Z</time>
      </trkpt>
      <trkpt lat="49.13679" lon="1.84515">
        <ele>137.48</ele>
        <time>2022-08-14T08:19:21Z</time>
      </trkpt>
      <trkpt lat="49.13678" lon="1.84513">
        <ele>137.74</ele>
        <time>2022-08-14T08:19:46Z</time>
      </trkpt>
      <trkpt lat="49.1368" lon="1.84512">
        <ele>137.92</ele>
        <time>2022-08-14T08:19:57Z</time>
      </trkpt>
      <trkpt lat="49.13681" lon="1.84511">
        <ele>138.08</ele>
        <time>2022-08-14T08:19:58Z</time>
      </trkpt>
      <trkpt lat="49.13683" lon="1.84511">
        <ele>137.77</ele>
        <time>2022-08-14T08:19:59Z</time>
      </trkpt>
      <trkpt lat="49.13689" lon="1.84499">
        <ele>137.88</ele>
        <time>2022-08-14T08:20:09Z</time>
      </trkpt>
      <trkpt lat="49.13691" lon="1.84494">
        <ele>138.06</ele>
        <time>2022-08-14T08:20:16Z</time>
      </trkpt>
      <trkpt lat="49.13695" lon="1.8448">
        <ele>138.75</ele>
        <time>2022-08-14T08:20:26Z</time>
      </trkpt>
      <trkpt lat="49.13698" lon="1.84471">
        <ele>137.77</ele>
        <time>2022-08-14T08:20:32Z</time>
      </trkpt>
      <trkpt lat="49.13699" lon="1.84469">
        <ele>138.41</ele>
        <time>2022-08-14T08:20:33Z</time>
      </trkpt>
      <trkpt lat="49.13699" lon="1.84467">
        <ele>137.71</ele>
        <time>2022-08-14T08:20:34Z</time>
      </trkpt>
      <trkpt lat="49.13699" lon="1.84466">
        <ele>138.15</ele>
        <time>2022-08-14T08:20:35Z</time>
      </trkpt>
      <trkpt lat="49.137" lon="1.84465">
        <ele>137.8</ele>
        <time>2022-08-14T08:20:36Z</time>
      </trkpt>
      <trkpt lat="49.137" lon="1.84463">
        <ele>138.59</ele>
        <time>2022-08-14T08:20:37Z</time>
      </trkpt>
      <trkpt lat="49.13701" lon="1.84462">
        <ele>138.28</ele>
        <time>2022-08-14T08:20:38Z</time>
      </trkpt>
      <trkpt lat="49.13701" lon="1.8446">
        <ele>137.92</ele>
        <time>2022-08-14T08:20:39Z</time>
      </trkpt>
      <trkpt lat="49.13703" lon="1.84454">
        <ele>138.27</ele>
        <time>2022-08-14T08:20:43Z</time>
      </trkpt>
      <trkpt lat="49.13703" lon="1.84452">
        <ele>138.34</ele>
        <time>2022-08-14T08:20:44Z</time>
      </trkpt>
      <trkpt lat="49.13703" lon="1.84451">
        <ele>138.02</ele>
        <time>2022-08-14T08:20:45Z</time>
      </trkpt>
      <trkpt lat="49.13704" lon="1.8445">
        <ele>137.89</ele>
        <time>2022-08-14T08:20:46Z</time>
      </trkpt>
      <trkpt lat="49.13704" lon="1.84448">
        <ele>138.34</ele>
        <time>2022-08-14T08:20:47Z</time>
      </trkpt>
      <trkpt lat="49.13709" lon="1.84433">
        <ele>138.2</ele>
        <time>2022-08-14T08:20:56Z</time>
      </trkpt>
      <trkpt lat="49.1371" lon="1.84431">
        <ele>138.92</ele>
        <time>2022-08-14T08:20:57Z</time>
      </trkpt>
      <trkpt lat="49.1371" lon="1.8443">
        <ele>137.97</ele>
        <time>2022-08-14T08:20:58Z</time>
      </trkpt>
      <trkpt lat="49.1371" lon="1.84428">
        <ele>137.99</ele>
        <time>2022-08-14T08:20:59Z</time>
      </trkpt>
      <trkpt lat="49.13711" lon="1.84427">
        <ele>138.08</ele>
        <time>2022-08-14T08:21:00Z</time>
      </trkpt>
      <trkpt lat="49.13711" lon="1.84425">
        <ele>137.88</ele>
        <time>2022-08-14T08:21:01Z</time>
      </trkpt>
      <trkpt lat="49.13712" lon="1.84424">
        <ele>138.38</ele>
        <time>2022-08-14T08:21:02Z</time>
      </trkpt>
      <trkpt lat="49.13712" lon="1.84422">
        <ele>137.83</ele>
        <time>2022-08-14T08:21:03Z</time>
      </trkpt>
      <trkpt lat="49.13713" lon="1.84421">
        <ele>138.61</ele>
        <time>2022-08-14T08:21:04Z</time>
      </trkpt>
      <trkpt lat="49.13718" lon="1.84403">
        <ele>138.32</ele>
        <time>2022-08-14T08:21:15Z</time>
      </trkpt>
      <trkpt lat="49.13724" lon="1.84387">
        <ele>137.59</ele>
        <time>2022-08-14T08:21:25Z</time>
      </trkpt>
      <trkpt lat="49.13727" lon="1.84381">
        <ele>137.46</ele>
        <time>2022-08-14T08:21:29Z</time>
      </trkpt>
      <trkpt lat="49.13728" lon="1.8438">
        <ele>137.56</ele>
        <time>2022-08-14T08:21:30Z</time>
      </trkpt>
      <trkpt lat="49.13728" lon="1.84378">
        <ele>137.99</ele>
        <time>2022-08-14T08:21:31Z</time>
      </trkpt>
      <trkpt lat="49.13729" lon="1.84377">
        <ele>137.49</ele>
        <time>2022-08-14T08:21:32Z</time>
      </trkpt>
      <trkpt lat="49.1373" lon="1.84376">
        <ele>137.44</ele>
        <time>2022-08-14T08:21:33Z</time>
      </trkpt>
      <trkpt lat="49.13731" lon="1.84374">
        <ele>137.68</ele>
        <time>2022-08-14T08:21:34Z</time>
      </trkpt>
      <trkpt lat="49.13732" lon="1.84373">
        <ele>137.98</ele>
        <time>2022-08-14T08:21:35Z</time>
      </trkpt>
      <trkpt lat="49.13733" lon="1.84371">
        <ele>137.59</ele>
        <time>2022-08-14T08:21:36Z</time>
      </trkpt>
      <trkpt lat="49.13733" lon="1.84369">
        <ele>138.03</ele>
        <time>2022-08-14T08:21:37Z</time>
      </trkpt>
      <trkpt lat="49.13734" lon="1.84368">
        <ele>137.35</ele>
        <time>2022-08-14T08:21:38Z</time>
      </trkpt>
      <trkpt lat="49.13734" lon="1.84366">
        <ele>137.43</ele>
        <time>2022-08-14T08:21:39Z</time>
      </trkpt>
      <trkpt lat="49.13742" lon="1.84347">
        <ele>137.42</ele>
        <time>2022-08-14T08:21:51Z</time>
      </trkpt>
      <trkpt lat="49.13749" lon="1.84329">
        <ele>137.17</ele>
        <time>2022-08-14T08:22:03Z</time>
      </trkpt>
      <trkpt lat="49.13754" lon="1.84322">
        <ele>136.62</ele>
        <time>2022-08-14T08:22:09Z</time>
      </trkpt>
      <trkpt lat="49.13755" lon="1.84321">
        <ele>136.72</ele>
        <time>2022-08-14T08:22:10Z</time>
      </trkpt>
      <trkpt lat="49.13755" lon="1.84319">
        <ele>136.7</ele>
        <time>2022-08-14T08:22:11Z</time>
      </trkpt>
      <trkpt lat="49.13756" lon="1.84317">
        <ele>137.07</ele>
        <time>2022-08-14T08:22:12Z</time>
      </trkpt>
      <trkpt lat="49.13757" lon="1.84316">
        <ele>136.82</ele>
        <time>2022-08-14T08:22:13Z</time>
      </trkpt>
      <trkpt lat="49.13758" lon="1.84315">
        <ele>137.05</ele>
        <time>2022-08-14T08:22:14Z</time>
      </trkpt>
      <trkpt lat="49.13766" lon="1.84296">
        <ele>136.85</ele>
        <time>2022-08-14T08:22:27Z</time>
      </trkpt>
      <trkpt lat="49.13768" lon="1.84293">
        <ele>136.53</ele>
        <time>2022-08-14T08:22:29Z</time>
      </trkpt>
      <trkpt lat="49.13768" lon="1.84291">
        <ele>136.61</ele>
        <time>2022-08-14T08:22:30Z</time>
      </trkpt>
      <trkpt lat="49.13769" lon="1.8429">
        <ele>136.77</ele>
        <time>2022-08-14T08:22:31Z</time>
      </trkpt>
      <trkpt lat="49.13779" lon="1.8427">
        <ele>136.3</ele>
        <time>2022-08-14T08:22:45Z</time>
      </trkpt>
      <trkpt lat="49.13788" lon="1.84251">
        <ele>136.66</ele>
        <time>2022-08-14T08:22:58Z</time>
      </trkpt>
      <trkpt lat="49.13792" lon="1.84242">
        <ele>136.56</ele>
        <time>2022-08-14T08:23:04Z</time>
      </trkpt>
      <trkpt lat="49.13792" lon="1.8424">
        <ele>136.13</ele>
        <time>2022-08-14T08:23:05Z</time>
      </trkpt>
      <trkpt lat="49.13792" lon="1.84239">
        <ele>135.91</ele>
        <time>2022-08-14T08:23:06Z</time>
      </trkpt>
      <trkpt lat="49.138" lon="1.8422">
        <ele>135.9</ele>
        <time>2022-08-14T08:23:18Z</time>
      </trkpt>
      <trkpt lat="49.13803" lon="1.84211">
        <ele>135.71</ele>
        <time>2022-08-14T08:23:23Z</time>
      </trkpt>
      <trkpt lat="49.13804" lon="1.84209">
        <ele>135.6</ele>
        <time>2022-08-14T08:23:24Z</time>
      </trkpt>
      <trkpt lat="49.13804" lon="1.84208">
        <ele>135.75</ele>
        <time>2022-08-14T08:23:25Z</time>
      </trkpt>
      <trkpt lat="49.13805" lon="1.84206">
        <ele>135.71</ele>
        <time>2022-08-14T08:23:26Z</time>
      </trkpt>
      <trkpt lat="49.13805" lon="1.84204">
        <ele>135.24</ele>
        <time>2022-08-14T08:23:27Z</time>
      </trkpt>
      <trkpt lat="49.13812" lon="1.84188">
        <ele>135.58</ele>
        <time>2022-08-14T08:23:38Z</time>
      </trkpt>
      <trkpt lat="49.13817" lon="1.8417">
        <ele>135.17</ele>
        <time>2022-08-14T08:23:49Z</time>
      </trkpt>
      <trkpt lat="49.13817" lon="1.84169">
        <ele>135.6</ele>
        <time>2022-08-14T08:23:50Z</time>
      </trkpt>
      <trkpt lat="49.13818" lon="1.84167">
        <ele>135.03</ele>
        <time>2022-08-14T08:23:51Z</time>
      </trkpt>
      <trkpt lat="49.13818" lon="1.84165">
        <ele>135.23</ele>
        <time>2022-08-14T08:23:52Z</time>
      </trkpt>
      <trkpt lat="49.13819" lon="1.84163">
        <ele>135.04</ele>
        <time>2022-08-14T08:23:53Z</time>
      </trkpt>
      <trkpt lat="49.13819" lon="1.84162">
        <ele>135.28</ele>
        <time>2022-08-14T08:23:54Z</time>
      </trkpt>
      <trkpt lat="49.1382" lon="1.8416">
        <ele>135.31</ele>
        <time>2022-08-14T08:23:55Z</time>
      </trkpt>
      <trkpt lat="49.13821" lon="1.84159">
        <ele>135.22</ele>
        <time>2022-08-14T08:23:56Z</time>
      </trkpt>
      <trkpt lat="49.13822" lon="1.84157">
        <ele>135.1</ele>
        <time>2022-08-14T08:23:57Z</time>
      </trkpt>
      <trkpt lat="49.13822" lon="1.84156">
        <ele>135.15</ele>
        <time>2022-08-14T08:23:58Z</time>
      </trkpt>
      <trkpt lat="49.13823" lon="1.84154">
        <ele>134.96</ele>
        <time>2022-08-14T08:23:59Z</time>
      </trkpt>
      <trkpt lat="49.13824" lon="1.84153">
        <ele>135.43</ele>
        <time>2022-08-14T08:24:00Z</time>
      </trkpt>
      <trkpt lat="49.13825" lon="1.84151">
        <ele>135.03</ele>
        <time>2022-08-14T08:24:01Z</time>
      </trkpt>
      <trkpt lat="49.13826" lon="1.8415">
        <ele>135.27</ele>
        <time>2022-08-14T08:24:02Z</time>
      </trkpt>
      <trkpt lat="49.13826" lon="1.84148">
        <ele>135.21</ele>
        <time>2022-08-14T08:24:03Z</time>
      </trkpt>
      <trkpt lat="49.13831" lon="1.84133">
        <ele>134.96</ele>
        <time>2022-08-14T08:24:13Z</time>
      </trkpt>
      <trkpt lat="49.13832" lon="1.84132">
        <ele>134.95</ele>
        <time>2022-08-14T08:24:14Z</time>
      </trkpt>
      <trkpt lat="49.13833" lon="1.8413">
        <ele>135.09</ele>
        <time>2022-08-14T08:24:15Z</time>
      </trkpt>
      <trkpt lat="49.13834" lon="1.84129">
        <ele>134.99</ele>
        <time>2022-08-14T08:24:16Z</time>
      </trkpt>
      <trkpt lat="49.13834" lon="1.84127">
        <ele>135.3</ele>
        <time>2022-08-14T08:24:17Z</time>
      </trkpt>
      <trkpt lat="49.13834" lon="1.84126">
        <ele>135.53</ele>
        <time>2022-08-14T08:24:18Z</time>
      </trkpt>
      <trkpt lat="49.13835" lon="1.84124">
        <ele>135.75</ele>
        <time>2022-08-14T08:24:19Z</time>
      </trkpt>
      <trkpt lat="49.13835" lon="1.84122">
        <ele>135.03</ele>
        <time>2022-08-14T08:24:20Z</time>
      </trkpt>
      <trkpt lat="49.1384" lon="1.84109">
        <ele>135.83</ele>
        <time>2022-08-14T08:24:28Z</time>
      </trkpt>
      <trkpt lat="49.13848" lon="1.84091">
        <ele>135.86</ele>
        <time>2022-08-14T08:24:40Z</time>
      </trkpt>
      <trkpt lat="49.13852" lon="1.84081">
        <ele>135.85</ele>
        <time>2022-08-14T08:24:47Z</time>
      </trkpt>
      <trkpt lat="49.13852" lon="1.84079">
        <ele>136.3</ele>
        <time>2022-08-14T08:24:48Z</time>
      </trkpt>
      <trkpt lat="49.13853" lon="1.84077">
        <ele>136.51</ele>
        <time>2022-08-14T08:24:49Z</time>
      </trkpt>
      <trkpt lat="49.13855" lon="1.84073">
        <ele>136.21</ele>
        <time>2022-08-14T08:24:52Z</time>
      </trkpt>
      <trkpt lat="49.1386" lon="1.84058">
        <ele>136.07</ele>
        <time>2022-08-14T08:25:02Z</time>
      </trkpt>
      <trkpt lat="49.13862" lon="1.84055">
        <ele>136.84</ele>
        <time>2022-08-14T08:25:04Z</time>
      </trkpt>
      <trkpt lat="49.13868" lon="1.84041">
        <ele>137.01</ele>
        <time>2022-08-14T08:25:14Z</time>
      </trkpt>
      <trkpt lat="49.13875" lon="1.84027">
        <ele>137.94</ele>
        <time>2022-08-14T08:25:25Z</time>
      </trkpt>
      <trkpt lat="49.1388" lon="1.84018">
        <ele>137.14</ele>
        <time>2022-08-14T08:25:32Z</time>
      </trkpt>
      <trkpt lat="49.13881" lon="1.84016">
        <ele>137.68</ele>
        <time>2022-08-14T08:25:33Z</time>
      </trkpt>
      <trkpt lat="49.13882" lon="1.84015">
        <ele>137.44</ele>
        <time>2022-08-14T08:25:34Z</time>
      </trkpt>
      <trkpt lat="49.13882" lon="1.84014">
        <ele>137.66</ele>
        <time>2022-08-14T08:25:35Z</time>
      </trkpt>
      <trkpt lat="49.13883" lon="1.84012">
        <ele>137.64</ele>
        <time>2022-08-14T08:25:36Z</time>
      </trkpt>
      <trkpt lat="49.13884" lon="1.84011">
        <ele>137.64</ele>
        <time>2022-08-14T08:25:37Z</time>
      </trkpt>
      <trkpt lat="49.13888" lon="1.84001">
        <ele>138.23</ele>
        <time>2022-08-14T08:25:44Z</time>
      </trkpt>
      <trkpt lat="49.13889" lon="1.84">
        <ele>138.09</ele>
        <time>2022-08-14T08:25:45Z</time>
      </trkpt>
      <trkpt lat="49.13892" lon="1.83994">
        <ele>138.78</ele>
        <time>2022-08-14T08:25:49Z</time>
      </trkpt>
      <trkpt lat="49.13894" lon="1.83989">
        <ele>138.24</ele>
        <time>2022-08-14T08:25:52Z</time>
      </trkpt>
      <trkpt lat="49.139" lon="1.83978">
        <ele>138.79</ele>
        <time>2022-08-14T08:26:01Z</time>
      </trkpt>
      <trkpt lat="49.13902" lon="1.83974">
        <ele>139.23</ele>
        <time>2022-08-14T08:26:04Z</time>
      </trkpt>
      <trkpt lat="49.13903" lon="1.83972">
        <ele>139.19</ele>
        <time>2022-08-14T08:26:05Z</time>
      </trkpt>
      <trkpt lat="49.13903" lon="1.83971">
        <ele>139.2</ele>
        <time>2022-08-14T08:26:06Z</time>
      </trkpt>
      <trkpt lat="49.13912" lon="1.83953">
        <ele>140.21</ele>
        <time>2022-08-14T08:26:19Z</time>
      </trkpt>
      <trkpt lat="49.13913" lon="1.8395">
        <ele>140.19</ele>
        <time>2022-08-14T08:26:21Z</time>
      </trkpt>
      <trkpt lat="49.13914" lon="1.83949">
        <ele>139.89</ele>
        <time>2022-08-14T08:26:22Z</time>
      </trkpt>
      <trkpt lat="49.13915" lon="1.83947">
        <ele>140.27</ele>
        <time>2022-08-14T08:26:23Z</time>
      </trkpt>
      <trkpt lat="49.13915" lon="1.83946">
        <ele>140.26</ele>
        <time>2022-08-14T08:26:24Z</time>
      </trkpt>
      <trkpt lat="49.13916" lon="1.83945">
        <ele>140.53</ele>
        <time>2022-08-14T08:26:25Z</time>
      </trkpt>
      <trkpt lat="49.13923" lon="1.83927">
        <ele>141.04</ele>
        <time>2022-08-14T08:26:37Z</time>
      </trkpt>
      <trkpt lat="49.13925" lon="1.83923">
        <ele>140.97</ele>
        <time>2022-08-14T08:26:40Z</time>
      </trkpt>
      <trkpt lat="49.13925" lon="1.83921">
        <ele>140.59</ele>
        <time>2022-08-14T08:26:41Z</time>
      </trkpt>
      <trkpt lat="49.13929" lon="1.83915">
        <ele>140.83</ele>
        <time>2022-08-14T08:26:46Z</time>
      </trkpt>
      <trkpt lat="49.1393" lon="1.83912">
        <ele>141.21</ele>
        <time>2022-08-14T08:26:48Z</time>
      </trkpt>
      <trkpt lat="49.13933" lon="1.83906">
        <ele>140.59</ele>
        <time>2022-08-14T08:26:53Z</time>
      </trkpt>
      <trkpt lat="49.13934" lon="1.83904">
        <ele>141.04</ele>
        <time>2022-08-14T08:26:54Z</time>
      </trkpt>
      <trkpt lat="49.13941" lon="1.83887">
        <ele>141.53</ele>
        <time>2022-08-14T08:27:07Z</time>
      </trkpt>
      <trkpt lat="49.13948" lon="1.83869">
        <ele>141.91</ele>
        <time>2022-08-14T08:27:19Z</time>
      </trkpt>
      <trkpt lat="49.13955" lon="1.83852">
        <ele>141.93</ele>
        <time>2022-08-14T08:27:31Z</time>
      </trkpt>
      <trkpt lat="49.13956" lon="1.83851">
        <ele>141.84</ele>
        <time>2022-08-14T08:27:32Z</time>
      </trkpt>
      <trkpt lat="49.13957" lon="1.83849">
        <ele>142.29</ele>
        <time>2022-08-14T08:27:33Z</time>
      </trkpt>
      <trkpt lat="49.13958" lon="1.83848">
        <ele>141.62</ele>
        <time>2022-08-14T08:27:34Z</time>
      </trkpt>
      <trkpt lat="49.13958" lon="1.83846">
        <ele>141.17</ele>
        <time>2022-08-14T08:27:35Z</time>
      </trkpt>
      <trkpt lat="49.13959" lon="1.83845">
        <ele>141.22</ele>
        <time>2022-08-14T08:27:36Z</time>
      </trkpt>
      <trkpt lat="49.13959" lon="1.83844">
        <ele>141.57</ele>
        <time>2022-08-14T08:27:37Z</time>
      </trkpt>
      <trkpt lat="49.13966" lon="1.83831">
        <ele>142.41</ele>
        <time>2022-08-14T08:27:47Z</time>
      </trkpt>
      <trkpt lat="49.13972" lon="1.83835">
        <ele>141.23</ele>
        <time>2022-08-14T08:27:55Z</time>
      </trkpt>
      <trkpt lat="49.13973" lon="1.83836">
        <ele>141.06</ele>
        <time>2022-08-14T08:27:56Z</time>
      </trkpt>
      <trkpt lat="49.13974" lon="1.83837">
        <ele>141.71</ele>
        <time>2022-08-14T08:27:57Z</time>
      </trkpt>
      <trkpt lat="49.13975" lon="1.83838">
        <ele>141.34</ele>
        <time>2022-08-14T08:27:58Z</time>
      </trkpt>
      <trkpt lat="49.13976" lon="1.83839">
        <ele>140.84</ele>
        <time>2022-08-14T08:27:59Z</time>
      </trkpt>
      <trkpt lat="49.13977" lon="1.8384">
        <ele>141.48</ele>
        <time>2022-08-14T08:28:00Z</time>
      </trkpt>
      <trkpt lat="49.13983" lon="1.83845">
        <ele>141.23</ele>
        <time>2022-08-14T08:28:06Z</time>
      </trkpt>
      <trkpt lat="49.1399" lon="1.83849">
        <ele>141.59</ele>
        <time>2022-08-14T08:28:13Z</time>
      </trkpt>
      <trkpt lat="49.13992" lon="1.83851">
        <ele>141.37</ele>
        <time>2022-08-14T08:28:16Z</time>
      </trkpt>
      <trkpt lat="49.13995" lon="1.83853">
        <ele>140.72</ele>
        <time>2022-08-14T08:28:19Z</time>
      </trkpt>
      <trkpt lat="49.14004" lon="1.83859">
        <ele>140.59</ele>
        <time>2022-08-14T08:28:26Z</time>
      </trkpt>
      <trkpt lat="49.14006" lon="1.83861">
        <ele>140.84</ele>
        <time>2022-08-14T08:28:28Z</time>
      </trkpt>
      <trkpt lat="49.14017" lon="1.83869">
        <ele>140.46</ele>
        <time>2022-08-14T08:28:38Z</time>
      </trkpt>
      <trkpt lat="49.14028" lon="1.83877">
        <ele>140.32</ele>
        <time>2022-08-14T08:28:49Z</time>
      </trkpt>
      <trkpt lat="49.14037" lon="1.83884">
        <ele>140.04</ele>
        <time>2022-08-14T08:28:59Z</time>
      </trkpt>
      <trkpt lat="49.14042" lon="1.83887">
        <ele>139.51</ele>
        <time>2022-08-14T08:29:04Z</time>
      </trkpt>
      <trkpt lat="49.14043" lon="1.83888">
        <ele>139.57</ele>
        <time>2022-08-14T08:29:05Z</time>
      </trkpt>
      <trkpt lat="49.14044" lon="1.83889">
        <ele>139.51</ele>
        <time>2022-08-14T08:29:06Z</time>
      </trkpt>
      <trkpt lat="49.14055" lon="1.83894">
        <ele>139.29</ele>
        <time>2022-08-14T08:29:16Z</time>
      </trkpt>
      <trkpt lat="49.14065" lon="1.83901">
        <ele>139.4</ele>
        <time>2022-08-14T08:29:26Z</time>
      </trkpt>
      <trkpt lat="49.14076" lon="1.83909">
        <ele>138.67</ele>
        <time>2022-08-14T08:29:37Z</time>
      </trkpt>
      <trkpt lat="49.1408" lon="1.83912">
        <ele>138.51</ele>
        <time>2022-08-14T08:29:41Z</time>
      </trkpt>
      <trkpt lat="49.14082" lon="1.83914">
        <ele>138.68</ele>
        <time>2022-08-14T08:29:44Z</time>
      </trkpt>
      <trkpt lat="49.14084" lon="1.83915">
        <ele>138.73</ele>
        <time>2022-08-14T08:29:45Z</time>
      </trkpt>
      <trkpt lat="49.14098" lon="1.83922">
        <ele>139.04</ele>
        <time>2022-08-14T08:29:58Z</time>
      </trkpt>
      <trkpt lat="49.14111" lon="1.83932">
        <ele>138.59</ele>
        <time>2022-08-14T08:30:11Z</time>
      </trkpt>
      <trkpt lat="49.14122" lon="1.83939">
        <ele>138.1</ele>
        <time>2022-08-14T08:30:22Z</time>
      </trkpt>
      <trkpt lat="49.14131" lon="1.83944">
        <ele>137.14</ele>
        <time>2022-08-14T08:30:32Z</time>
      </trkpt>
      <trkpt lat="49.14141" lon="1.83951">
        <ele>137.5</ele>
        <time>2022-08-14T08:30:42Z</time>
      </trkpt>
      <trkpt lat="49.14152" lon="1.83958">
        <ele>136.6</ele>
        <time>2022-08-14T08:30:52Z</time>
      </trkpt>
      <trkpt lat="49.14158" lon="1.83962">
        <ele>136.4</ele>
        <time>2022-08-14T08:31:02Z</time>
      </trkpt>
      <trkpt lat="49.14169" lon="1.83968">
        <ele>136.12</ele>
        <time>2022-08-14T08:31:13Z</time>
      </trkpt>
      <trkpt lat="49.14178" lon="1.83974">
        <ele>135.95</ele>
        <time>2022-08-14T08:31:22Z</time>
      </trkpt>
      <trkpt lat="49.14179" lon="1.83975">
        <ele>135.95</ele>
        <time>2022-08-14T08:31:23Z</time>
      </trkpt>
      <trkpt lat="49.14188" lon="1.8398">
        <ele>135.2</ele>
        <time>2022-08-14T08:31:32Z</time>
      </trkpt>
      <trkpt lat="49.14189" lon="1.83981">
        <ele>135.46</ele>
        <time>2022-08-14T08:31:33Z</time>
      </trkpt>
      <trkpt lat="49.1419" lon="1.83982">
        <ele>135.44</ele>
        <time>2022-08-14T08:31:34Z</time>
      </trkpt>
      <trkpt lat="49.14203" lon="1.8399">
        <ele>135.26</ele>
        <time>2022-08-14T08:31:47Z</time>
      </trkpt>
      <trkpt lat="49.14214" lon="1.83998">
        <ele>134.67</ele>
        <time>2022-08-14T08:31:59Z</time>
      </trkpt>
      <trkpt lat="49.14226" lon="1.84005">
        <ele>134.55</ele>
        <time>2022-08-14T08:32:10Z</time>
      </trkpt>
      <trkpt lat="49.14239" lon="1.84014">
        <ele>134.43</ele>
        <time>2022-08-14T08:32:22Z</time>
      </trkpt>
      <trkpt lat="49.14253" lon="1.84023">
        <ele>133.43</ele>
        <time>2022-08-14T08:32:36Z</time>
      </trkpt>
      <trkpt lat="49.14266" lon="1.84032">
        <ele>132.83</ele>
        <time>2022-08-14T08:32:49Z</time>
      </trkpt>
      <trkpt lat="49.14266" lon="1.84032">
        <ele>132.86</ele>
        <time>2022-08-14T08:33:07Z</time>
      </trkpt>
      <trkpt lat="49.14271" lon="1.84036">
        <ele>132.71</ele>
        <time>2022-08-14T08:33:20Z</time>
      </trkpt>
      <trkpt lat="49.14283" lon="1.84044">
        <ele>132.2</ele>
        <time>2022-08-14T08:33:32Z</time>
      </trkpt>
      <trkpt lat="49.14296" lon="1.84051">
        <ele>131.03</ele>
        <time>2022-08-14T08:33:43Z</time>
      </trkpt>
      <trkpt lat="49.1431" lon="1.84064">
        <ele>130.65</ele>
        <time>2022-08-14T08:33:56Z</time>
      </trkpt>
      <trkpt lat="49.14326" lon="1.84072">
        <ele>130.64</ele>
        <time>2022-08-14T08:34:09Z</time>
      </trkpt>
      <trkpt lat="49.14343" lon="1.84083">
        <ele>130.24</ele>
        <time>2022-08-14T08:34:23Z</time>
      </trkpt>
      <trkpt lat="49.14348" lon="1.84086">
        <ele>130.08</ele>
        <time>2022-08-14T08:34:28Z</time>
      </trkpt>
      <trkpt lat="49.14349" lon="1.84087">
        <ele>130.4</ele>
        <time>2022-08-14T08:34:29Z</time>
      </trkpt>
      <trkpt lat="49.1435" lon="1.84087">
        <ele>130.02</ele>
        <time>2022-08-14T08:34:30Z</time>
      </trkpt>
      <trkpt lat="49.14363" lon="1.84096">
        <ele>130.59</ele>
        <time>2022-08-14T08:34:42Z</time>
      </trkpt>
      <trkpt lat="49.14364" lon="1.84096">
        <ele>130.26</ele>
        <time>2022-08-14T08:34:43Z</time>
      </trkpt>
      <trkpt lat="49.14365" lon="1.84097">
        <ele>129.9</ele>
        <time>2022-08-14T08:34:44Z</time>
      </trkpt>
      <trkpt lat="49.14366" lon="1.84098">
        <ele>130.32</ele>
        <time>2022-08-14T08:34:45Z</time>
      </trkpt>
      <trkpt lat="49.14367" lon="1.84099">
        <ele>129.97</ele>
        <time>2022-08-14T08:34:46Z</time>
      </trkpt>
      <trkpt lat="49.14368" lon="1.841">
        <ele>130.33</ele>
        <time>2022-08-14T08:34:47Z</time>
      </trkpt>
      <trkpt lat="49.1438" lon="1.84106">
        <ele>130.11</ele>
        <time>2022-08-14T08:34:58Z</time>
      </trkpt>
      <trkpt lat="49.14396" lon="1.84118">
        <ele>129.67</ele>
        <time>2022-08-14T08:35:14Z</time>
      </trkpt>
      <trkpt lat="49.1441" lon="1.84125">
        <ele>129.81</ele>
        <time>2022-08-14T08:35:26Z</time>
      </trkpt>
      <trkpt lat="49.14411" lon="1.84126">
        <ele>129.28</ele>
        <time>2022-08-14T08:35:27Z</time>
      </trkpt>
      <trkpt lat="49.14424" lon="1.84135">
        <ele>128.96</ele>
        <time>2022-08-14T08:35:39Z</time>
      </trkpt>
      <trkpt lat="49.14437" lon="1.84142">
        <ele>128.91</ele>
        <time>2022-08-14T08:35:51Z</time>
      </trkpt>
      <trkpt lat="49.14449" lon="1.84152">
        <ele>128.46</ele>
        <time>2022-08-14T08:36:03Z</time>
      </trkpt>
      <trkpt lat="49.14453" lon="1.84154">
        <ele>128.82</ele>
        <time>2022-08-14T08:36:07Z</time>
      </trkpt>
      <trkpt lat="49.14454" lon="1.84154">
        <ele>128.62</ele>
        <time>2022-08-14T08:36:08Z</time>
      </trkpt>
      <trkpt lat="49.14455" lon="1.84155">
        <ele>128.61</ele>
        <time>2022-08-14T08:36:09Z</time>
      </trkpt>
      <trkpt lat="49.14466" lon="1.84162">
        <ele>127.93</ele>
        <time>2022-08-14T08:36:19Z</time>
      </trkpt>
      <trkpt lat="49.14479" lon="1.84171">
        <ele>127.97</ele>
        <time>2022-08-14T08:36:31Z</time>
      </trkpt>
      <trkpt lat="49.14493" lon="1.8418">
        <ele>128.36</ele>
        <time>2022-08-14T08:36:46Z</time>
      </trkpt>
      <trkpt lat="49.14504" lon="1.84187">
        <ele>128.35</ele>
        <time>2022-08-14T08:36:57Z</time>
      </trkpt>
      <trkpt lat="49.14505" lon="1.84188">
        <ele>128.45</ele>
        <time>2022-08-14T08:36:58Z</time>
      </trkpt>
      <trkpt lat="49.14516" lon="1.84193">
        <ele>127.98</ele>
        <time>2022-08-14T08:37:08Z</time>
      </trkpt>
      <trkpt lat="49.14522" lon="1.84197">
        <ele>128.46</ele>
        <time>2022-08-14T08:37:18Z</time>
      </trkpt>
      <trkpt lat="49.14535" lon="1.84207">
        <ele>128.83</ele>
        <time>2022-08-14T08:37:30Z</time>
      </trkpt>
      <trkpt lat="49.14538" lon="1.84211">
        <ele>127.93</ele>
        <time>2022-08-14T08:37:38Z</time>
      </trkpt>
      <trkpt lat="49.14541" lon="1.84211">
        <ele>128.09</ele>
        <time>2022-08-14T08:37:49Z</time>
      </trkpt>
      <trkpt lat="49.14549" lon="1.84217">
        <ele>128.09</ele>
        <time>2022-08-14T08:37:58Z</time>
      </trkpt>
      <trkpt lat="49.14551" lon="1.84219">
        <ele>127.99</ele>
        <time>2022-08-14T08:38:01Z</time>
      </trkpt>
      <trkpt lat="49.14552" lon="1.8422">
        <ele>128.06</ele>
        <time>2022-08-14T08:38:02Z</time>
      </trkpt>
      <trkpt lat="49.14553" lon="1.84221">
        <ele>128.01</ele>
        <time>2022-08-14T08:38:03Z</time>
      </trkpt>
      <trkpt lat="49.14554" lon="1.84221">
        <ele>128</ele>
        <time>2022-08-14T08:38:04Z</time>
      </trkpt>
      <trkpt lat="49.14562" lon="1.84225">
        <ele>127.79</ele>
        <time>2022-08-14T08:38:12Z</time>
      </trkpt>
      <trkpt lat="49.14563" lon="1.84227">
        <ele>127.76</ele>
        <time>2022-08-14T08:38:13Z</time>
      </trkpt>
      <trkpt lat="49.14564" lon="1.84228">
        <ele>127.42</ele>
        <time>2022-08-14T08:38:14Z</time>
      </trkpt>
      <trkpt lat="49.14565" lon="1.84228">
        <ele>127.31</ele>
        <time>2022-08-14T08:38:15Z</time>
      </trkpt>
      <trkpt lat="49.14566" lon="1.84229">
        <ele>127.42</ele>
        <time>2022-08-14T08:38:16Z</time>
      </trkpt>
      <trkpt lat="49.14576" lon="1.84235">
        <ele>127.73</ele>
        <time>2022-08-14T08:38:27Z</time>
      </trkpt>
      <trkpt lat="49.14585" lon="1.84242">
        <ele>127.74</ele>
        <time>2022-08-14T08:38:36Z</time>
      </trkpt>
      <trkpt lat="49.14597" lon="1.8425">
        <ele>127.24</ele>
        <time>2022-08-14T08:38:48Z</time>
      </trkpt>
      <trkpt lat="49.1461" lon="1.84258">
        <ele>127.18</ele>
        <time>2022-08-14T08:39:00Z</time>
      </trkpt>
      <trkpt lat="49.14621" lon="1.84266">
        <ele>127.31</ele>
        <time>2022-08-14T08:39:11Z</time>
      </trkpt>
      <trkpt lat="49.14635" lon="1.84261">
        <ele>126.71</ele>
        <time>2022-08-14T08:39:25Z</time>
      </trkpt>
      <trkpt lat="49.1464" lon="1.84244">
        <ele>126.67</ele>
        <time>2022-08-14T08:39:36Z</time>
      </trkpt>
      <trkpt lat="49.1464" lon="1.84243">
        <ele>126.02</ele>
        <time>2022-08-14T08:39:37Z</time>
      </trkpt>
      <trkpt lat="49.14641" lon="1.8424">
        <ele>126.25</ele>
        <time>2022-08-14T08:39:39Z</time>
      </trkpt>
      <trkpt lat="49.14644" lon="1.84225">
        <ele>126.29</ele>
        <time>2022-08-14T08:39:49Z</time>
      </trkpt>
      <trkpt lat="49.14644" lon="1.84223">
        <ele>126.29</ele>
        <time>2022-08-14T08:39:50Z</time>
      </trkpt>
      <trkpt lat="49.14644" lon="1.84222">
        <ele>126.8</ele>
        <time>2022-08-14T08:39:51Z</time>
      </trkpt>
      <trkpt lat="49.14644" lon="1.8422">
        <ele>126.75</ele>
        <time>2022-08-14T08:39:52Z</time>
      </trkpt>
      <trkpt lat="49.14645" lon="1.84218">
        <ele>126.67</ele>
        <time>2022-08-14T08:39:53Z</time>
      </trkpt>
      <trkpt lat="49.14645" lon="1.84217">
        <ele>127.08</ele>
        <time>2022-08-14T08:39:54Z</time>
      </trkpt>
      <trkpt lat="49.14646" lon="1.84215">
        <ele>126.84</ele>
        <time>2022-08-14T08:39:55Z</time>
      </trkpt>
      <trkpt lat="49.14646" lon="1.84214">
        <ele>126.99</ele>
        <time>2022-08-14T08:39:56Z</time>
      </trkpt>
      <trkpt lat="49.14646" lon="1.84212">
        <ele>126.92</ele>
        <time>2022-08-14T08:39:57Z</time>
      </trkpt>
      <trkpt lat="49.14648" lon="1.84205">
        <ele>127.01</ele>
        <time>2022-08-14T08:40:01Z</time>
      </trkpt>
      <trkpt lat="49.14648" lon="1.84204">
        <ele>126.78</ele>
        <time>2022-08-14T08:40:02Z</time>
      </trkpt>
      <trkpt lat="49.14652" lon="1.84195">
        <ele>126.79</ele>
        <time>2022-08-14T08:40:08Z</time>
      </trkpt>
      <trkpt lat="49.14652" lon="1.84194">
        <ele>126.97</ele>
        <time>2022-08-14T08:40:09Z</time>
      </trkpt>
      <trkpt lat="49.14653" lon="1.84192">
        <ele>126.98</ele>
        <time>2022-08-14T08:40:10Z</time>
      </trkpt>
      <trkpt lat="49.1466" lon="1.84172">
        <ele>127</ele>
        <time>2022-08-14T08:40:24Z</time>
      </trkpt>
      <trkpt lat="49.14663" lon="1.8416">
        <ele>127.39</ele>
        <time>2022-08-14T08:40:31Z</time>
      </trkpt>
      <trkpt lat="49.14664" lon="1.84158">
        <ele>127.18</ele>
        <time>2022-08-14T08:40:32Z</time>
      </trkpt>
      <trkpt lat="49.14664" lon="1.84156">
        <ele>127.45</ele>
        <time>2022-08-14T08:40:33Z</time>
      </trkpt>
      <trkpt lat="49.14664" lon="1.84155">
        <ele>127.31</ele>
        <time>2022-08-14T08:40:34Z</time>
      </trkpt>
      <trkpt lat="49.14665" lon="1.84153">
        <ele>127.7</ele>
        <time>2022-08-14T08:40:35Z</time>
      </trkpt>
      <trkpt lat="49.14668" lon="1.84142">
        <ele>127.54</ele>
        <time>2022-08-14T08:40:46Z</time>
      </trkpt>
      <trkpt lat="49.14669" lon="1.8414">
        <ele>127.9</ele>
        <time>2022-08-14T08:40:47Z</time>
      </trkpt>
      <trkpt lat="49.14669" lon="1.84137">
        <ele>126.99</ele>
        <time>2022-08-14T08:40:49Z</time>
      </trkpt>
      <trkpt lat="49.1467" lon="1.84133">
        <ele>127.75</ele>
        <time>2022-08-14T08:40:52Z</time>
      </trkpt>
      <trkpt lat="49.14671" lon="1.84131">
        <ele>128.25</ele>
        <time>2022-08-14T08:41:04Z</time>
      </trkpt>
      <trkpt lat="49.14672" lon="1.84129">
        <ele>128.08</ele>
        <time>2022-08-14T08:41:09Z</time>
      </trkpt>
      <trkpt lat="49.14673" lon="1.84126">
        <ele>127.86</ele>
        <time>2022-08-14T08:41:11Z</time>
      </trkpt>
      <trkpt lat="49.14673" lon="1.84124">
        <ele>127.83</ele>
        <time>2022-08-14T08:41:12Z</time>
      </trkpt>
      <trkpt lat="49.14674" lon="1.84122">
        <ele>127.68</ele>
        <time>2022-08-14T08:41:13Z</time>
      </trkpt>
      <trkpt lat="49.14674" lon="1.84121">
        <ele>128.1</ele>
        <time>2022-08-14T08:41:14Z</time>
      </trkpt>
      <trkpt lat="49.14675" lon="1.8412">
        <ele>128.08</ele>
        <time>2022-08-14T08:41:15Z</time>
      </trkpt>
      <trkpt lat="49.14675" lon="1.84118">
        <ele>127.7</ele>
        <time>2022-08-14T08:41:16Z</time>
      </trkpt>
      <trkpt lat="49.14677" lon="1.84113">
        <ele>127.91</ele>
        <time>2022-08-14T08:41:20Z</time>
      </trkpt>
      <trkpt lat="49.14677" lon="1.84111">
        <ele>127.87</ele>
        <time>2022-08-14T08:41:21Z</time>
      </trkpt>
      <trkpt lat="49.14677" lon="1.84109">
        <ele>128.3</ele>
        <time>2022-08-14T08:41:22Z</time>
      </trkpt>
      <trkpt lat="49.14678" lon="1.84107">
        <ele>128.89</ele>
        <time>2022-08-14T08:41:23Z</time>
      </trkpt>
      <trkpt lat="49.14678" lon="1.84105">
        <ele>128.7</ele>
        <time>2022-08-14T08:41:24Z</time>
      </trkpt>
      <trkpt lat="49.14681" lon="1.84095">
        <ele>128.59</ele>
        <time>2022-08-14T08:41:31Z</time>
      </trkpt>
      <trkpt lat="49.14682" lon="1.84094">
        <ele>128.57</ele>
        <time>2022-08-14T08:41:32Z</time>
      </trkpt>
      <trkpt lat="49.14682" lon="1.84092">
        <ele>128.63</ele>
        <time>2022-08-14T08:41:33Z</time>
      </trkpt>
      <trkpt lat="49.1469" lon="1.84069">
        <ele>129.26</ele>
        <time>2022-08-14T08:41:48Z</time>
      </trkpt>
      <trkpt lat="49.14691" lon="1.84065">
        <ele>129.26</ele>
        <time>2022-08-14T08:41:50Z</time>
      </trkpt>
      <trkpt lat="49.14694" lon="1.84053">
        <ele>129.15</ele>
        <time>2022-08-14T08:41:59Z</time>
      </trkpt>
      <trkpt lat="49.14695" lon="1.8405">
        <ele>129.16</ele>
        <time>2022-08-14T08:42:01Z</time>
      </trkpt>
      <trkpt lat="49.14695" lon="1.84048">
        <ele>129.33</ele>
        <time>2022-08-14T08:42:02Z</time>
      </trkpt>
      <trkpt lat="49.14696" lon="1.84045">
        <ele>129.54</ele>
        <time>2022-08-14T08:42:04Z</time>
      </trkpt>
      <trkpt lat="49.14696" lon="1.84044">
        <ele>129.88</ele>
        <time>2022-08-14T08:42:05Z</time>
      </trkpt>
      <trkpt lat="49.14699" lon="1.84035">
        <ele>129.43</ele>
        <time>2022-08-14T08:42:11Z</time>
      </trkpt>
      <trkpt lat="49.147" lon="1.84034">
        <ele>129.39</ele>
        <time>2022-08-14T08:42:12Z</time>
      </trkpt>
      <trkpt lat="49.14703" lon="1.84023">
        <ele>129.74</ele>
        <time>2022-08-14T08:42:19Z</time>
      </trkpt>
      <trkpt lat="49.14704" lon="1.84021">
        <ele>130</ele>
        <time>2022-08-14T08:42:20Z</time>
      </trkpt>
      <trkpt lat="49.14704" lon="1.8402">
        <ele>129.58</ele>
        <time>2022-08-14T08:42:21Z</time>
      </trkpt>
      <trkpt lat="49.14704" lon="1.84018">
        <ele>130.15</ele>
        <time>2022-08-14T08:42:22Z</time>
      </trkpt>
      <trkpt lat="49.14704" lon="1.84016">
        <ele>129.97</ele>
        <time>2022-08-14T08:42:23Z</time>
      </trkpt>
      <trkpt lat="49.14704" lon="1.84014">
        <ele>129.67</ele>
        <time>2022-08-14T08:42:24Z</time>
      </trkpt>
      <trkpt lat="49.14704" lon="1.84012">
        <ele>130.01</ele>
        <time>2022-08-14T08:42:25Z</time>
      </trkpt>
      <trkpt lat="49.14705" lon="1.8401">
        <ele>129.79</ele>
        <time>2022-08-14T08:42:26Z</time>
      </trkpt>
      <trkpt lat="49.14705" lon="1.84009">
        <ele>129.86</ele>
        <time>2022-08-14T08:42:27Z</time>
      </trkpt>
      <trkpt lat="49.1471" lon="1.83994">
        <ele>130.11</ele>
        <time>2022-08-14T08:42:37Z</time>
      </trkpt>
      <trkpt lat="49.14714" lon="1.8398">
        <ele>130.37</ele>
        <time>2022-08-14T08:42:46Z</time>
      </trkpt>
      <trkpt lat="49.14714" lon="1.83979">
        <ele>130.65</ele>
        <time>2022-08-14T08:42:47Z</time>
      </trkpt>
      <trkpt lat="49.14715" lon="1.83977">
        <ele>130.47</ele>
        <time>2022-08-14T08:42:48Z</time>
      </trkpt>
      <trkpt lat="49.14718" lon="1.83966">
        <ele>130.16</ele>
        <time>2022-08-14T08:42:56Z</time>
      </trkpt>
      <trkpt lat="49.14719" lon="1.83964">
        <ele>130.29</ele>
        <time>2022-08-14T08:42:57Z</time>
      </trkpt>
      <trkpt lat="49.14719" lon="1.83963">
        <ele>129.97</ele>
        <time>2022-08-14T08:42:58Z</time>
      </trkpt>
      <trkpt lat="49.14719" lon="1.83961">
        <ele>130.13</ele>
        <time>2022-08-14T08:42:59Z</time>
      </trkpt>
      <trkpt lat="49.1472" lon="1.8396">
        <ele>130.24</ele>
        <time>2022-08-14T08:43:00Z</time>
      </trkpt>
      <trkpt lat="49.14722" lon="1.83949">
        <ele>130.79</ele>
        <time>2022-08-14T08:43:07Z</time>
      </trkpt>
      <trkpt lat="49.14722" lon="1.83948">
        <ele>130.66</ele>
        <time>2022-08-14T08:43:08Z</time>
      </trkpt>
      <trkpt lat="49.14723" lon="1.83946">
        <ele>130.82</ele>
        <time>2022-08-14T08:43:09Z</time>
      </trkpt>
      <trkpt lat="49.14723" lon="1.83945">
        <ele>130.69</ele>
        <time>2022-08-14T08:43:10Z</time>
      </trkpt>
      <trkpt lat="49.14724" lon="1.83943">
        <ele>130.95</ele>
        <time>2022-08-14T08:43:11Z</time>
      </trkpt>
      <trkpt lat="49.14725" lon="1.83942">
        <ele>130.49</ele>
        <time>2022-08-14T08:43:12Z</time>
      </trkpt>
      <trkpt lat="49.14725" lon="1.8394">
        <ele>130.28</ele>
        <time>2022-08-14T08:43:13Z</time>
      </trkpt>
      <trkpt lat="49.14726" lon="1.83939">
        <ele>130.77</ele>
        <time>2022-08-14T08:43:14Z</time>
      </trkpt>
      <trkpt lat="49.14727" lon="1.83934">
        <ele>130.55</ele>
        <time>2022-08-14T08:43:17Z</time>
      </trkpt>
      <trkpt lat="49.14728" lon="1.83932">
        <ele>131.38</ele>
        <time>2022-08-14T08:43:18Z</time>
      </trkpt>
      <trkpt lat="49.14728" lon="1.83931">
        <ele>131.26</ele>
        <time>2022-08-14T08:43:19Z</time>
      </trkpt>
      <trkpt lat="49.14729" lon="1.83929">
        <ele>131.29</ele>
        <time>2022-08-14T08:43:20Z</time>
      </trkpt>
      <trkpt lat="49.14729" lon="1.83928">
        <ele>130.8</ele>
        <time>2022-08-14T08:43:21Z</time>
      </trkpt>
      <trkpt lat="49.1473" lon="1.83926">
        <ele>131.12</ele>
        <time>2022-08-14T08:43:22Z</time>
      </trkpt>
      <trkpt lat="49.14734" lon="1.83915">
        <ele>131.24</ele>
        <time>2022-08-14T08:43:30Z</time>
      </trkpt>
      <trkpt lat="49.14737" lon="1.83903">
        <ele>131.37</ele>
        <time>2022-08-14T08:43:39Z</time>
      </trkpt>
      <trkpt lat="49.1474" lon="1.83888">
        <ele>131.14</ele>
        <time>2022-08-14T08:43:49Z</time>
      </trkpt>
      <trkpt lat="49.14741" lon="1.83883">
        <ele>130.98</ele>
        <time>2022-08-14T08:43:52Z</time>
      </trkpt>
      <trkpt lat="49.14742" lon="1.83881">
        <ele>131.22</ele>
        <time>2022-08-14T08:43:53Z</time>
      </trkpt>
      <trkpt lat="49.14747" lon="1.83865">
        <ele>130.45</ele>
        <time>2022-08-14T08:44:03Z</time>
      </trkpt>
      <trkpt lat="49.14749" lon="1.8386">
        <ele>131.62</ele>
        <time>2022-08-14T08:44:07Z</time>
      </trkpt>
      <trkpt lat="49.14751" lon="1.83849">
        <ele>131.5</ele>
        <time>2022-08-14T08:44:15Z</time>
      </trkpt>
      <trkpt lat="49.14754" lon="1.83839">
        <ele>131.64</ele>
        <time>2022-08-14T08:44:21Z</time>
      </trkpt>
      <trkpt lat="49.14758" lon="1.83826">
        <ele>132.7</ele>
        <time>2022-08-14T08:44:30Z</time>
      </trkpt>
      <trkpt lat="49.1476" lon="1.83821">
        <ele>130.99</ele>
        <time>2022-08-14T08:44:33Z</time>
      </trkpt>
      <trkpt lat="49.14761" lon="1.83819">
        <ele>132.46</ele>
        <time>2022-08-14T08:44:35Z</time>
      </trkpt>
      <trkpt lat="49.14766" lon="1.83802">
        <ele>131.67</ele>
        <time>2022-08-14T08:44:46Z</time>
      </trkpt>
      <trkpt lat="49.14771" lon="1.83788">
        <ele>131.9</ele>
        <time>2022-08-14T08:44:55Z</time>
      </trkpt>
      <trkpt lat="49.14776" lon="1.83771">
        <ele>131.67</ele>
        <time>2022-08-14T08:45:06Z</time>
      </trkpt>
      <trkpt lat="49.1478" lon="1.83759">
        <ele>132.28</ele>
        <time>2022-08-14T08:45:13Z</time>
      </trkpt>
      <trkpt lat="49.1478" lon="1.83758">
        <ele>132</ele>
        <time>2022-08-14T08:45:14Z</time>
      </trkpt>
      <trkpt lat="49.14781" lon="1.83756">
        <ele>132.17</ele>
        <time>2022-08-14T08:45:15Z</time>
      </trkpt>
      <trkpt lat="49.14783" lon="1.83744">
        <ele>132.24</ele>
        <time>2022-08-14T08:45:23Z</time>
      </trkpt>
      <trkpt lat="49.14783" lon="1.83743">
        <ele>132.25</ele>
        <time>2022-08-14T08:45:24Z</time>
      </trkpt>
      <trkpt lat="49.14784" lon="1.8374">
        <ele>132.24</ele>
        <time>2022-08-14T08:45:26Z</time>
      </trkpt>
      <trkpt lat="49.14785" lon="1.83738">
        <ele>132.16</ele>
        <time>2022-08-14T08:45:27Z</time>
      </trkpt>
      <trkpt lat="49.14785" lon="1.83736">
        <ele>132.31</ele>
        <time>2022-08-14T08:45:28Z</time>
      </trkpt>
      <trkpt lat="49.14786" lon="1.83734">
        <ele>132.16</ele>
        <time>2022-08-14T08:45:29Z</time>
      </trkpt>
      <trkpt lat="49.14786" lon="1.83733">
        <ele>132.2</ele>
        <time>2022-08-14T08:45:30Z</time>
      </trkpt>
      <trkpt lat="49.14786" lon="1.83731">
        <ele>132.58</ele>
        <time>2022-08-14T08:45:31Z</time>
      </trkpt>
      <trkpt lat="49.14787" lon="1.8373">
        <ele>132.47</ele>
        <time>2022-08-14T08:45:32Z</time>
      </trkpt>
      <trkpt lat="49.14792" lon="1.8371">
        <ele>132.33</ele>
        <time>2022-08-14T08:45:45Z</time>
      </trkpt>
      <trkpt lat="49.14793" lon="1.83709">
        <ele>132.77</ele>
        <time>2022-08-14T08:45:46Z</time>
      </trkpt>
      <trkpt lat="49.14796" lon="1.83699">
        <ele>132.66</ele>
        <time>2022-08-14T08:45:56Z</time>
      </trkpt>
      <trkpt lat="49.14797" lon="1.83693">
        <ele>132.43</ele>
        <time>2022-08-14T08:46:01Z</time>
      </trkpt>
      <trkpt lat="49.14797" lon="1.83691">
        <ele>132.24</ele>
        <time>2022-08-14T08:46:02Z</time>
      </trkpt>
      <trkpt lat="49.14803" lon="1.83672">
        <ele>132.79</ele>
        <time>2022-08-14T08:46:15Z</time>
      </trkpt>
      <trkpt lat="49.1481" lon="1.83649">
        <ele>132.73</ele>
        <time>2022-08-14T08:46:29Z</time>
      </trkpt>
      <trkpt lat="49.14818" lon="1.83632">
        <ele>132.53</ele>
        <time>2022-08-14T08:46:42Z</time>
      </trkpt>
      <trkpt lat="49.14823" lon="1.83625">
        <ele>132.42</ele>
        <time>2022-08-14T08:46:48Z</time>
      </trkpt>
      <trkpt lat="49.14824" lon="1.83624">
        <ele>132.41</ele>
        <time>2022-08-14T08:46:49Z</time>
      </trkpt>
      <trkpt lat="49.14834" lon="1.83611">
        <ele>131.86</ele>
        <time>2022-08-14T08:47:01Z</time>
      </trkpt>
      <trkpt lat="49.14843" lon="1.83593">
        <ele>132.03</ele>
        <time>2022-08-14T08:47:14Z</time>
      </trkpt>
      <trkpt lat="49.14844" lon="1.83592">
        <ele>132.16</ele>
        <time>2022-08-14T08:47:15Z</time>
      </trkpt>
      <trkpt lat="49.14847" lon="1.83588">
        <ele>132.18</ele>
        <time>2022-08-14T08:47:19Z</time>
      </trkpt>
      <trkpt lat="49.14848" lon="1.83587">
        <ele>132.55</ele>
        <time>2022-08-14T08:47:20Z</time>
      </trkpt>
      <trkpt lat="49.14849" lon="1.83585">
        <ele>132.58</ele>
        <time>2022-08-14T08:47:22Z</time>
      </trkpt>
      <trkpt lat="49.14852" lon="1.83582">
        <ele>131.6</ele>
        <time>2022-08-14T08:47:26Z</time>
      </trkpt>
      <trkpt lat="49.14861" lon="1.83568">
        <ele>132.37</ele>
        <time>2022-08-14T08:47:37Z</time>
      </trkpt>
      <trkpt lat="49.14869" lon="1.83555">
        <ele>131.94</ele>
        <time>2022-08-14T08:47:47Z</time>
      </trkpt>
      <trkpt lat="49.14877" lon="1.8354">
        <ele>131.7</ele>
        <time>2022-08-14T08:47:58Z</time>
      </trkpt>
      <trkpt lat="49.14884" lon="1.83532">
        <ele>130.64</ele>
        <time>2022-08-14T08:48:05Z</time>
      </trkpt>
      <trkpt lat="49.14884" lon="1.83531">
        <ele>130.43</ele>
        <time>2022-08-14T08:48:06Z</time>
      </trkpt>
      <trkpt lat="49.14885" lon="1.8353">
        <ele>131.32</ele>
        <time>2022-08-14T08:48:07Z</time>
      </trkpt>
      <trkpt lat="49.14886" lon="1.83528">
        <ele>131.18</ele>
        <time>2022-08-14T08:48:08Z</time>
      </trkpt>
      <trkpt lat="49.14886" lon="1.83526">
        <ele>131.61</ele>
        <time>2022-08-14T08:48:09Z</time>
      </trkpt>
      <trkpt lat="49.14887" lon="1.83525">
        <ele>131.1</ele>
        <time>2022-08-14T08:48:10Z</time>
      </trkpt>
      <trkpt lat="49.14888" lon="1.83523">
        <ele>130.93</ele>
        <time>2022-08-14T08:48:11Z</time>
      </trkpt>
      <trkpt lat="49.14889" lon="1.83522">
        <ele>130.49</ele>
        <time>2022-08-14T08:48:12Z</time>
      </trkpt>
      <trkpt lat="49.14898" lon="1.83505">
        <ele>130.75</ele>
        <time>2022-08-14T08:48:24Z</time>
      </trkpt>
      <trkpt lat="49.14898" lon="1.83504">
        <ele>130.31</ele>
        <time>2022-08-14T08:48:25Z</time>
      </trkpt>
      <trkpt lat="49.14899" lon="1.83502">
        <ele>131.02</ele>
        <time>2022-08-14T08:48:26Z</time>
      </trkpt>
      <trkpt lat="49.149" lon="1.83501">
        <ele>131.4</ele>
        <time>2022-08-14T08:48:27Z</time>
      </trkpt>
      <trkpt lat="49.14901" lon="1.835">
        <ele>131.13</ele>
        <time>2022-08-14T08:48:28Z</time>
      </trkpt>
      <trkpt lat="49.14902" lon="1.83499">
        <ele>131.08</ele>
        <time>2022-08-14T08:48:29Z</time>
      </trkpt>
      <trkpt lat="49.14908" lon="1.83491">
        <ele>131.41</ele>
        <time>2022-08-14T08:48:36Z</time>
      </trkpt>
      <trkpt lat="49.14921" lon="1.83477">
        <ele>130.83</ele>
        <time>2022-08-14T08:48:49Z</time>
      </trkpt>
      <trkpt lat="49.14923" lon="1.83474">
        <ele>130.44</ele>
        <time>2022-08-14T08:48:51Z</time>
      </trkpt>
      <trkpt lat="49.14923" lon="1.83473">
        <ele>130.99</ele>
        <time>2022-08-14T08:48:52Z</time>
      </trkpt>
      <trkpt lat="49.14924" lon="1.83472">
        <ele>130.77</ele>
        <time>2022-08-14T08:48:53Z</time>
      </trkpt>
      <trkpt lat="49.14925" lon="1.83471">
        <ele>130.77</ele>
        <time>2022-08-14T08:48:54Z</time>
      </trkpt>
      <trkpt lat="49.14926" lon="1.8347">
        <ele>130.29</ele>
        <time>2022-08-14T08:48:55Z</time>
      </trkpt>
      <trkpt lat="49.14932" lon="1.83463">
        <ele>130.74</ele>
        <time>2022-08-14T08:49:02Z</time>
      </trkpt>
      <trkpt lat="49.14933" lon="1.83462">
        <ele>130.37</ele>
        <time>2022-08-14T08:49:03Z</time>
      </trkpt>
      <trkpt lat="49.14934" lon="1.83461">
        <ele>131.24</ele>
        <time>2022-08-14T08:49:04Z</time>
      </trkpt>
      <trkpt lat="49.14935" lon="1.8346">
        <ele>130.48</ele>
        <time>2022-08-14T08:49:05Z</time>
      </trkpt>
      <trkpt lat="49.14936" lon="1.83459">
        <ele>131.2</ele>
        <time>2022-08-14T08:49:06Z</time>
      </trkpt>
      <trkpt lat="49.14939" lon="1.83456">
        <ele>130.8</ele>
        <time>2022-08-14T08:49:09Z</time>
      </trkpt>
      <trkpt lat="49.14939" lon="1.83455">
        <ele>130.13</ele>
        <time>2022-08-14T08:49:10Z</time>
      </trkpt>
      <trkpt lat="49.1494" lon="1.83454">
        <ele>130.48</ele>
        <time>2022-08-14T08:49:11Z</time>
      </trkpt>
      <trkpt lat="49.14941" lon="1.83453">
        <ele>130.65</ele>
        <time>2022-08-14T08:49:12Z</time>
      </trkpt>
      <trkpt lat="49.14943" lon="1.83452">
        <ele>130.63</ele>
        <time>2022-08-14T08:49:13Z</time>
      </trkpt>
      <trkpt lat="49.14944" lon="1.83451">
        <ele>130.41</ele>
        <time>2022-08-14T08:49:14Z</time>
      </trkpt>
      <trkpt lat="49.14949" lon="1.83446">
        <ele>129.81</ele>
        <time>2022-08-14T08:49:20Z</time>
      </trkpt>
      <trkpt lat="49.14961" lon="1.83432">
        <ele>130.28</ele>
        <time>2022-08-14T08:49:32Z</time>
      </trkpt>
      <trkpt lat="49.1497" lon="1.8342">
        <ele>128.81</ele>
        <time>2022-08-14T08:49:43Z</time>
      </trkpt>
      <trkpt lat="49.14971" lon="1.83417">
        <ele>129.37</ele>
        <time>2022-08-14T08:49:45Z</time>
      </trkpt>
      <trkpt lat="49.14974" lon="1.83415">
        <ele>129.89</ele>
        <time>2022-08-14T08:49:48Z</time>
      </trkpt>
      <trkpt lat="49.14975" lon="1.83415">
        <ele>129.8</ele>
        <time>2022-08-14T08:49:49Z</time>
      </trkpt>
      <trkpt lat="49.14977" lon="1.83414">
        <ele>129.6</ele>
        <time>2022-08-14T08:49:50Z</time>
      </trkpt>
      <trkpt lat="49.14978" lon="1.83412">
        <ele>130.11</ele>
        <time>2022-08-14T08:49:52Z</time>
      </trkpt>
      <trkpt lat="49.14979" lon="1.8341">
        <ele>130.27</ele>
        <time>2022-08-14T08:49:53Z</time>
      </trkpt>
      <trkpt lat="49.1498" lon="1.83409">
        <ele>129.75</ele>
        <time>2022-08-14T08:49:54Z</time>
      </trkpt>
      <trkpt lat="49.14981" lon="1.83408">
        <ele>129.81</ele>
        <time>2022-08-14T08:49:55Z</time>
      </trkpt>
      <trkpt lat="49.14982" lon="1.83407">
        <ele>129.97</ele>
        <time>2022-08-14T08:49:56Z</time>
      </trkpt>
      <trkpt lat="49.14993" lon="1.83396">
        <ele>129.76</ele>
        <time>2022-08-14T08:50:07Z</time>
      </trkpt>
      <trkpt lat="49.15003" lon="1.8338">
        <ele>129.68</ele>
        <time>2022-08-14T08:50:20Z</time>
      </trkpt>
      <trkpt lat="49.15007" lon="1.83375">
        <ele>129.1</ele>
        <time>2022-08-14T08:50:25Z</time>
      </trkpt>
      <trkpt lat="49.15008" lon="1.83374">
        <ele>129.05</ele>
        <time>2022-08-14T08:50:26Z</time>
      </trkpt>
      <trkpt lat="49.15018" lon="1.83363">
        <ele>128.94</ele>
        <time>2022-08-14T08:50:36Z</time>
      </trkpt>
      <trkpt lat="49.15026" lon="1.83355">
        <ele>128.6</ele>
        <time>2022-08-14T08:50:45Z</time>
      </trkpt>
      <trkpt lat="49.15035" lon="1.83341">
        <ele>129.03</ele>
        <time>2022-08-14T08:50:56Z</time>
      </trkpt>
      <trkpt lat="49.15042" lon="1.8333">
        <ele>128.92</ele>
        <time>2022-08-14T08:51:05Z</time>
      </trkpt>
      <trkpt lat="49.15042" lon="1.83329">
        <ele>129.06</ele>
        <time>2022-08-14T08:51:06Z</time>
      </trkpt>
      <trkpt lat="49.15043" lon="1.83327">
        <ele>129.68</ele>
        <time>2022-08-14T08:51:07Z</time>
      </trkpt>
      <trkpt lat="49.15044" lon="1.83326">
        <ele>129.7</ele>
        <time>2022-08-14T08:51:08Z</time>
      </trkpt>
      <trkpt lat="49.15045" lon="1.83325">
        <ele>129.97</ele>
        <time>2022-08-14T08:51:09Z</time>
      </trkpt>
      <trkpt lat="49.15045" lon="1.83324">
        <ele>128.95</ele>
        <time>2022-08-14T08:51:10Z</time>
      </trkpt>
      <trkpt lat="49.15046" lon="1.83323">
        <ele>130.17</ele>
        <time>2022-08-14T08:51:11Z</time>
      </trkpt>
      <trkpt lat="49.15047" lon="1.83321">
        <ele>129.93</ele>
        <time>2022-08-14T08:51:12Z</time>
      </trkpt>
      <trkpt lat="49.15048" lon="1.8332">
        <ele>129.63</ele>
        <time>2022-08-14T08:51:13Z</time>
      </trkpt>
      <trkpt lat="49.15049" lon="1.83319">
        <ele>129.56</ele>
        <time>2022-08-14T08:51:14Z</time>
      </trkpt>
      <trkpt lat="49.15054" lon="1.83308">
        <ele>129.89</ele>
        <time>2022-08-14T08:51:22Z</time>
      </trkpt>
      <trkpt lat="49.15055" lon="1.83307">
        <ele>130.14</ele>
        <time>2022-08-14T08:51:23Z</time>
      </trkpt>
      <trkpt lat="49.15056" lon="1.83306">
        <ele>130.08</ele>
        <time>2022-08-14T08:51:24Z</time>
      </trkpt>
      <trkpt lat="49.15056" lon="1.83305">
        <ele>129.48</ele>
        <time>2022-08-14T08:51:25Z</time>
      </trkpt>
      <trkpt lat="49.15057" lon="1.83303">
        <ele>129.94</ele>
        <time>2022-08-14T08:51:26Z</time>
      </trkpt>
      <trkpt lat="49.15064" lon="1.83289">
        <ele>130.26</ele>
        <time>2022-08-14T08:51:37Z</time>
      </trkpt>
      <trkpt lat="49.15072" lon="1.83273">
        <ele>130.24</ele>
        <time>2022-08-14T08:51:49Z</time>
      </trkpt>
      <trkpt lat="49.15075" lon="1.83266">
        <ele>130.35</ele>
        <time>2022-08-14T08:51:56Z</time>
      </trkpt>
      <trkpt lat="49.15078" lon="1.83261">
        <ele>130.19</ele>
        <time>2022-08-14T08:52:00Z</time>
      </trkpt>
      <trkpt lat="49.15083" lon="1.83247">
        <ele>130.32</ele>
        <time>2022-08-14T08:52:11Z</time>
      </trkpt>
      <trkpt lat="49.15085" lon="1.83242">
        <ele>129.66</ele>
        <time>2022-08-14T08:52:14Z</time>
      </trkpt>
      <trkpt lat="49.15085" lon="1.8324">
        <ele>130.12</ele>
        <time>2022-08-14T08:52:15Z</time>
      </trkpt>
      <trkpt lat="49.15086" lon="1.83239">
        <ele>129.83</ele>
        <time>2022-08-14T08:52:16Z</time>
      </trkpt>
      <trkpt lat="49.15087" lon="1.83237">
        <ele>129.8</ele>
        <time>2022-08-14T08:52:17Z</time>
      </trkpt>
      <trkpt lat="49.15087" lon="1.83236">
        <ele>129.79</ele>
        <time>2022-08-14T08:52:18Z</time>
      </trkpt>
      <trkpt lat="49.1509" lon="1.83231">
        <ele>130.06</ele>
        <time>2022-08-14T08:52:21Z</time>
      </trkpt>
      <trkpt lat="49.15089" lon="1.8323">
        <ele>129.97</ele>
        <time>2022-08-14T08:52:22Z</time>
      </trkpt>
      <trkpt lat="49.1509" lon="1.83229">
        <ele>130.01</ele>
        <time>2022-08-14T08:52:23Z</time>
      </trkpt>
      <trkpt lat="49.15091" lon="1.83227">
        <ele>129.89</ele>
        <time>2022-08-14T08:52:24Z</time>
      </trkpt>
      <trkpt lat="49.15091" lon="1.83226">
        <ele>129.74</ele>
        <time>2022-08-14T08:52:25Z</time>
      </trkpt>
      <trkpt lat="49.15092" lon="1.83224">
        <ele>129.56</ele>
        <time>2022-08-14T08:52:26Z</time>
      </trkpt>
      <trkpt lat="49.15093" lon="1.83223">
        <ele>129.56</ele>
        <time>2022-08-14T08:52:27Z</time>
      </trkpt>
      <trkpt lat="49.15093" lon="1.83222">
        <ele>129.57</ele>
        <time>2022-08-14T08:52:28Z</time>
      </trkpt>
      <trkpt lat="49.15094" lon="1.83221">
        <ele>129.57</ele>
        <time>2022-08-14T08:52:29Z</time>
      </trkpt>
      <trkpt lat="49.15097" lon="1.83214">
        <ele>129.28</ele>
        <time>2022-08-14T08:52:34Z</time>
      </trkpt>
      <trkpt lat="49.15098" lon="1.83213">
        <ele>129.71</ele>
        <time>2022-08-14T08:52:35Z</time>
      </trkpt>
      <trkpt lat="49.15106" lon="1.83197">
        <ele>130.39</ele>
        <time>2022-08-14T08:52:47Z</time>
      </trkpt>
      <trkpt lat="49.15111" lon="1.83186">
        <ele>130.31</ele>
        <time>2022-08-14T08:52:55Z</time>
      </trkpt>
      <trkpt lat="49.15117" lon="1.83179">
        <ele>130.49</ele>
        <time>2022-08-14T08:53:01Z</time>
      </trkpt>
      <trkpt lat="49.15124" lon="1.83167">
        <ele>131.16</ele>
        <time>2022-08-14T08:53:10Z</time>
      </trkpt>
      <trkpt lat="49.15125" lon="1.83166">
        <ele>130.39</ele>
        <time>2022-08-14T08:53:11Z</time>
      </trkpt>
      <trkpt lat="49.15126" lon="1.83165">
        <ele>130.76</ele>
        <time>2022-08-14T08:53:12Z</time>
      </trkpt>
      <trkpt lat="49.15126" lon="1.83163">
        <ele>130.69</ele>
        <time>2022-08-14T08:53:13Z</time>
      </trkpt>
      <trkpt lat="49.15127" lon="1.83162">
        <ele>130.7</ele>
        <time>2022-08-14T08:53:14Z</time>
      </trkpt>
      <trkpt lat="49.15128" lon="1.83161">
        <ele>131</ele>
        <time>2022-08-14T08:53:15Z</time>
      </trkpt>
      <trkpt lat="49.15129" lon="1.8316">
        <ele>130.81</ele>
        <time>2022-08-14T08:53:16Z</time>
      </trkpt>
      <trkpt lat="49.1513" lon="1.83158">
        <ele>130.74</ele>
        <time>2022-08-14T08:53:17Z</time>
      </trkpt>
      <trkpt lat="49.1513" lon="1.83157">
        <ele>130.9</ele>
        <time>2022-08-14T08:53:18Z</time>
      </trkpt>
      <trkpt lat="49.15131" lon="1.83156">
        <ele>130.93</ele>
        <time>2022-08-14T08:53:19Z</time>
      </trkpt>
      <trkpt lat="49.15132" lon="1.83155">
        <ele>130.99</ele>
        <time>2022-08-14T08:53:20Z</time>
      </trkpt>
      <trkpt lat="49.15133" lon="1.83154">
        <ele>130.88</ele>
        <time>2022-08-14T08:53:21Z</time>
      </trkpt>
      <trkpt lat="49.15133" lon="1.83153">
        <ele>130.48</ele>
        <time>2022-08-14T08:53:22Z</time>
      </trkpt>
      <trkpt lat="49.15134" lon="1.83151">
        <ele>130.61</ele>
        <time>2022-08-14T08:53:23Z</time>
      </trkpt>
      <trkpt lat="49.15135" lon="1.8315">
        <ele>130.91</ele>
        <time>2022-08-14T08:53:24Z</time>
      </trkpt>
      <trkpt lat="49.15145" lon="1.83136">
        <ele>130.91</ele>
        <time>2022-08-14T08:53:36Z</time>
      </trkpt>
      <trkpt lat="49.15154" lon="1.8312">
        <ele>130.5</ele>
        <time>2022-08-14T08:53:49Z</time>
      </trkpt>
      <trkpt lat="49.1516" lon="1.83112">
        <ele>130.71</ele>
        <time>2022-08-14T08:53:56Z</time>
      </trkpt>
      <trkpt lat="49.1517" lon="1.83094">
        <ele>130.59</ele>
        <time>2022-08-14T08:54:09Z</time>
      </trkpt>
      <trkpt lat="49.15181" lon="1.83079">
        <ele>130.54</ele>
        <time>2022-08-14T08:54:22Z</time>
      </trkpt>
      <trkpt lat="49.15192" lon="1.83061">
        <ele>130.52</ele>
        <time>2022-08-14T08:54:36Z</time>
      </trkpt>
      <trkpt lat="49.15202" lon="1.83047">
        <ele>130.77</ele>
        <time>2022-08-14T08:54:47Z</time>
      </trkpt>
      <trkpt lat="49.15206" lon="1.8304">
        <ele>131.14</ele>
        <time>2022-08-14T08:54:53Z</time>
      </trkpt>
      <trkpt lat="49.15215" lon="1.83025">
        <ele>130.86</ele>
        <time>2022-08-14T08:55:05Z</time>
      </trkpt>
      <trkpt lat="49.15223" lon="1.83014">
        <ele>130.77</ele>
        <time>2022-08-14T08:55:15Z</time>
      </trkpt>
      <trkpt lat="49.15231" lon="1.83002">
        <ele>131.42</ele>
        <time>2022-08-14T08:55:25Z</time>
      </trkpt>
      <trkpt lat="49.15239" lon="1.82991">
        <ele>131</ele>
        <time>2022-08-14T08:55:34Z</time>
      </trkpt>
      <trkpt lat="49.15243" lon="1.82987">
        <ele>130.73</ele>
        <time>2022-08-14T08:55:38Z</time>
      </trkpt>
      <trkpt lat="49.15244" lon="1.82986">
        <ele>130.69</ele>
        <time>2022-08-14T08:55:39Z</time>
      </trkpt>
      <trkpt lat="49.15245" lon="1.82984">
        <ele>129.56</ele>
        <time>2022-08-14T08:55:40Z</time>
      </trkpt>
      <trkpt lat="49.15255" lon="1.8297">
        <ele>131.47</ele>
        <time>2022-08-14T08:55:52Z</time>
      </trkpt>
      <trkpt lat="49.15255" lon="1.82969">
        <ele>131.01</ele>
        <time>2022-08-14T08:55:53Z</time>
      </trkpt>
      <trkpt lat="49.15266" lon="1.8295">
        <ele>131.43</ele>
        <time>2022-08-14T08:56:07Z</time>
      </trkpt>
      <trkpt lat="49.15276" lon="1.82937">
        <ele>130.78</ele>
        <time>2022-08-14T08:56:19Z</time>
      </trkpt>
      <trkpt lat="49.15286" lon="1.82922">
        <ele>131.83</ele>
        <time>2022-08-14T08:56:32Z</time>
      </trkpt>
      <trkpt lat="49.1529" lon="1.82916">
        <ele>131.62</ele>
        <time>2022-08-14T08:56:37Z</time>
      </trkpt>
      <trkpt lat="49.15291" lon="1.82914">
        <ele>131.2</ele>
        <time>2022-08-14T08:56:38Z</time>
      </trkpt>
      <trkpt lat="49.15292" lon="1.82913">
        <ele>131.5</ele>
        <time>2022-08-14T08:56:39Z</time>
      </trkpt>
      <trkpt lat="49.15294" lon="1.82909">
        <ele>131.49</ele>
        <time>2022-08-14T08:56:42Z</time>
      </trkpt>
      <trkpt lat="49.15294" lon="1.82908">
        <ele>131.25</ele>
        <time>2022-08-14T08:56:43Z</time>
      </trkpt>
      <trkpt lat="49.15297" lon="1.82903">
        <ele>131.77</ele>
        <time>2022-08-14T08:56:47Z</time>
      </trkpt>
      <trkpt lat="49.15301" lon="1.82893">
        <ele>131.7</ele>
        <time>2022-08-14T08:56:55Z</time>
      </trkpt>
      <trkpt lat="49.15302" lon="1.82892">
        <ele>131.64</ele>
        <time>2022-08-14T08:56:56Z</time>
      </trkpt>
      <trkpt lat="49.15311" lon="1.82871">
        <ele>131.27</ele>
        <time>2022-08-14T08:57:11Z</time>
      </trkpt>
      <trkpt lat="49.15316" lon="1.82858">
        <ele>131.71</ele>
        <time>2022-08-14T08:57:21Z</time>
      </trkpt>
      <trkpt lat="49.15322" lon="1.82845">
        <ele>131.79</ele>
        <time>2022-08-14T08:57:30Z</time>
      </trkpt>
      <trkpt lat="49.15329" lon="1.8283">
        <ele>131.7</ele>
        <time>2022-08-14T08:57:42Z</time>
      </trkpt>
      <trkpt lat="49.15331" lon="1.82826">
        <ele>131.26</ele>
        <time>2022-08-14T08:57:45Z</time>
      </trkpt>
      <trkpt lat="49.15332" lon="1.82825">
        <ele>131.52</ele>
        <time>2022-08-14T08:57:46Z</time>
      </trkpt>
      <trkpt lat="49.15337" lon="1.82814">
        <ele>131.69</ele>
        <time>2022-08-14T08:57:54Z</time>
      </trkpt>
      <trkpt lat="49.15347" lon="1.82795">
        <ele>132</ele>
        <time>2022-08-14T08:58:08Z</time>
      </trkpt>
      <trkpt lat="49.15356" lon="1.82777">
        <ele>131.32</ele>
        <time>2022-08-14T08:58:21Z</time>
      </trkpt>
      <trkpt lat="49.15362" lon="1.82767">
        <ele>131.83</ele>
        <time>2022-08-14T08:58:29Z</time>
      </trkpt>
      <trkpt lat="49.15363" lon="1.82765">
        <ele>131.69</ele>
        <time>2022-08-14T08:58:30Z</time>
      </trkpt>
      <trkpt lat="49.15364" lon="1.82764">
        <ele>132.38</ele>
        <time>2022-08-14T08:58:31Z</time>
      </trkpt>
      <trkpt lat="49.15365" lon="1.82763">
        <ele>132.43</ele>
        <time>2022-08-14T08:58:32Z</time>
      </trkpt>
      <trkpt lat="49.15366" lon="1.82762">
        <ele>131.59</ele>
        <time>2022-08-14T08:58:33Z</time>
      </trkpt>
      <trkpt lat="49.15367" lon="1.8276">
        <ele>131.66</ele>
        <time>2022-08-14T08:58:34Z</time>
      </trkpt>
      <trkpt lat="49.15368" lon="1.82756">
        <ele>131.62</ele>
        <time>2022-08-14T08:58:37Z</time>
      </trkpt>
      <trkpt lat="49.15369" lon="1.82755">
        <ele>131.9</ele>
        <time>2022-08-14T08:58:38Z</time>
      </trkpt>
      <trkpt lat="49.1537" lon="1.82754">
        <ele>131.75</ele>
        <time>2022-08-14T08:58:39Z</time>
      </trkpt>
      <trkpt lat="49.15377" lon="1.82739">
        <ele>132.21</ele>
        <time>2022-08-14T08:58:50Z</time>
      </trkpt>
      <trkpt lat="49.15378" lon="1.82738">
        <ele>131.51</ele>
        <time>2022-08-14T08:58:51Z</time>
      </trkpt>
      <trkpt lat="49.15379" lon="1.82736">
        <ele>131.26</ele>
        <time>2022-08-14T08:58:52Z</time>
      </trkpt>
      <trkpt lat="49.1538" lon="1.82735">
        <ele>131.27</ele>
        <time>2022-08-14T08:58:53Z</time>
      </trkpt>
      <trkpt lat="49.1538" lon="1.82733">
        <ele>131.15</ele>
        <time>2022-08-14T08:58:54Z</time>
      </trkpt>
      <trkpt lat="49.1539" lon="1.82715">
        <ele>131.84</ele>
        <time>2022-08-14T08:59:08Z</time>
      </trkpt>
      <trkpt lat="49.15397" lon="1.82697">
        <ele>131.77</ele>
        <time>2022-08-14T08:59:20Z</time>
      </trkpt>
      <trkpt lat="49.15406" lon="1.8268">
        <ele>131.91</ele>
        <time>2022-08-14T08:59:33Z</time>
      </trkpt>
      <trkpt lat="49.15409" lon="1.82673">
        <ele>131.62</ele>
        <time>2022-08-14T08:59:38Z</time>
      </trkpt>
      <trkpt lat="49.1541" lon="1.82671">
        <ele>131.25</ele>
        <time>2022-08-14T08:59:39Z</time>
      </trkpt>
      <trkpt lat="49.15415" lon="1.82662">
        <ele>131.54</ele>
        <time>2022-08-14T08:59:46Z</time>
      </trkpt>
      <trkpt lat="49.15423" lon="1.82645">
        <ele>131.47</ele>
        <time>2022-08-14T08:59:58Z</time>
      </trkpt>
      <trkpt lat="49.15426" lon="1.82641">
        <ele>131.4</ele>
        <time>2022-08-14T09:00:03Z</time>
      </trkpt>
      <trkpt lat="49.15427" lon="1.8264">
        <ele>132.05</ele>
        <time>2022-08-14T09:00:04Z</time>
      </trkpt>
      <trkpt lat="49.15427" lon="1.82638">
        <ele>131.63</ele>
        <time>2022-08-14T09:00:05Z</time>
      </trkpt>
      <trkpt lat="49.15428" lon="1.82637">
        <ele>131.48</ele>
        <time>2022-08-14T09:00:06Z</time>
      </trkpt>
      <trkpt lat="49.15428" lon="1.82635">
        <ele>131.37</ele>
        <time>2022-08-14T09:00:07Z</time>
      </trkpt>
      <trkpt lat="49.15429" lon="1.82634">
        <ele>131.2</ele>
        <time>2022-08-14T09:00:08Z</time>
      </trkpt>
      <trkpt lat="49.1543" lon="1.82633">
        <ele>131.51</ele>
        <time>2022-08-14T09:00:09Z</time>
      </trkpt>
      <trkpt lat="49.15431" lon="1.82631">
        <ele>131.14</ele>
        <time>2022-08-14T09:00:10Z</time>
      </trkpt>
      <trkpt lat="49.15435" lon="1.82623">
        <ele>131.62</ele>
        <time>2022-08-14T09:00:17Z</time>
      </trkpt>
      <trkpt lat="49.15435" lon="1.82622">
        <ele>131.36</ele>
        <time>2022-08-14T09:00:18Z</time>
      </trkpt>
      <trkpt lat="49.15437" lon="1.82618">
        <ele>131.79</ele>
        <time>2022-08-14T09:00:21Z</time>
      </trkpt>
      <trkpt lat="49.15443" lon="1.82605">
        <ele>132.04</ele>
        <time>2022-08-14T09:00:31Z</time>
      </trkpt>
      <trkpt lat="49.15449" lon="1.82591">
        <ele>131.75</ele>
        <time>2022-08-14T09:00:41Z</time>
      </trkpt>
      <trkpt lat="49.15451" lon="1.82588">
        <ele>131.82</ele>
        <time>2022-08-14T09:00:43Z</time>
      </trkpt>
      <trkpt lat="49.15452" lon="1.82586">
        <ele>131.81</ele>
        <time>2022-08-14T09:00:44Z</time>
      </trkpt>
      <trkpt lat="49.15452" lon="1.82585">
        <ele>131.62</ele>
        <time>2022-08-14T09:00:45Z</time>
      </trkpt>
      <trkpt lat="49.15459" lon="1.82569">
        <ele>131.51</ele>
        <time>2022-08-14T09:00:56Z</time>
      </trkpt>
      <trkpt lat="49.15466" lon="1.82549">
        <ele>131.39</ele>
        <time>2022-08-14T09:01:09Z</time>
      </trkpt>
      <trkpt lat="49.15472" lon="1.82535">
        <ele>131.2</ele>
        <time>2022-08-14T09:01:19Z</time>
      </trkpt>
      <trkpt lat="49.15478" lon="1.82521">
        <ele>130.91</ele>
        <time>2022-08-14T09:01:29Z</time>
      </trkpt>
      <trkpt lat="49.15479" lon="1.82517">
        <ele>130.56</ele>
        <time>2022-08-14T09:01:31Z</time>
      </trkpt>
      <trkpt lat="49.15479" lon="1.82516">
        <ele>130.83</ele>
        <time>2022-08-14T09:01:32Z</time>
      </trkpt>
      <trkpt lat="49.1548" lon="1.82514">
        <ele>131.2</ele>
        <time>2022-08-14T09:01:33Z</time>
      </trkpt>
      <trkpt lat="49.15481" lon="1.82513">
        <ele>131.32</ele>
        <time>2022-08-14T09:01:34Z</time>
      </trkpt>
      <trkpt lat="49.15481" lon="1.82512">
        <ele>131.19</ele>
        <time>2022-08-14T09:01:35Z</time>
      </trkpt>
      <trkpt lat="49.15488" lon="1.82494">
        <ele>131.25</ele>
        <time>2022-08-14T09:01:47Z</time>
      </trkpt>
      <trkpt lat="49.15494" lon="1.82475">
        <ele>131.51</ele>
        <time>2022-08-14T09:01:59Z</time>
      </trkpt>
      <trkpt lat="49.15504" lon="1.8245">
        <ele>131.25</ele>
        <time>2022-08-14T09:02:16Z</time>
      </trkpt>
      <trkpt lat="49.15511" lon="1.82431">
        <ele>130.86</ele>
        <time>2022-08-14T09:02:28Z</time>
      </trkpt>
      <trkpt lat="49.1552" lon="1.82408">
        <ele>130.64</ele>
        <time>2022-08-14T09:02:43Z</time>
      </trkpt>
      <trkpt lat="49.15529" lon="1.8239">
        <ele>130.27</ele>
        <time>2022-08-14T09:02:55Z</time>
      </trkpt>
      <trkpt lat="49.15533" lon="1.82378">
        <ele>130.34</ele>
        <time>2022-08-14T09:03:03Z</time>
      </trkpt>
      <trkpt lat="49.15534" lon="1.82377">
        <ele>130.32</ele>
        <time>2022-08-14T09:03:04Z</time>
      </trkpt>
      <trkpt lat="49.15539" lon="1.82365">
        <ele>130.32</ele>
        <time>2022-08-14T09:03:12Z</time>
      </trkpt>
      <trkpt lat="49.1554" lon="1.82364">
        <ele>130.06</ele>
        <time>2022-08-14T09:03:13Z</time>
      </trkpt>
      <trkpt lat="49.15547" lon="1.82348">
        <ele>130.27</ele>
        <time>2022-08-14T09:03:24Z</time>
      </trkpt>
      <trkpt lat="49.15554" lon="1.82336">
        <ele>129.74</ele>
        <time>2022-08-14T09:03:34Z</time>
      </trkpt>
      <trkpt lat="49.15564" lon="1.82323">
        <ele>129.34</ele>
        <time>2022-08-14T09:03:45Z</time>
      </trkpt>
      <trkpt lat="49.15571" lon="1.82313">
        <ele>129.53</ele>
        <time>2022-08-14T09:03:54Z</time>
      </trkpt>
      <trkpt lat="49.15581" lon="1.82299">
        <ele>129.92</ele>
        <time>2022-08-14T09:04:05Z</time>
      </trkpt>
      <trkpt lat="49.15593" lon="1.82284">
        <ele>129.84</ele>
        <time>2022-08-14T09:04:19Z</time>
      </trkpt>
      <trkpt lat="49.15599" lon="1.82277">
        <ele>129.87</ele>
        <time>2022-08-14T09:04:25Z</time>
      </trkpt>
      <trkpt lat="49.15611" lon="1.82263">
        <ele>129.63</ele>
        <time>2022-08-14T09:04:38Z</time>
      </trkpt>
      <trkpt lat="49.15612" lon="1.82262">
        <ele>129.58</ele>
        <time>2022-08-14T09:04:39Z</time>
      </trkpt>
      <trkpt lat="49.15613" lon="1.8226">
        <ele>129.71</ele>
        <time>2022-08-14T09:04:40Z</time>
      </trkpt>
      <trkpt lat="49.15614" lon="1.82259">
        <ele>129.58</ele>
        <time>2022-08-14T09:04:41Z</time>
      </trkpt>
      <trkpt lat="49.15615" lon="1.82258">
        <ele>129.57</ele>
        <time>2022-08-14T09:04:42Z</time>
      </trkpt>
      <trkpt lat="49.15616" lon="1.82257">
        <ele>129.15</ele>
        <time>2022-08-14T09:04:43Z</time>
      </trkpt>
      <trkpt lat="49.15617" lon="1.82255">
        <ele>129.23</ele>
        <time>2022-08-14T09:04:44Z</time>
      </trkpt>
      <trkpt lat="49.15627" lon="1.82243">
        <ele>129.05</ele>
        <time>2022-08-14T09:04:55Z</time>
      </trkpt>
      <trkpt lat="49.15633" lon="1.82235">
        <ele>128.31</ele>
        <time>2022-08-14T09:05:02Z</time>
      </trkpt>
      <trkpt lat="49.15634" lon="1.82233">
        <ele>128.58</ele>
        <time>2022-08-14T09:05:03Z</time>
      </trkpt>
      <trkpt lat="49.15635" lon="1.82232">
        <ele>128.74</ele>
        <time>2022-08-14T09:05:04Z</time>
      </trkpt>
      <trkpt lat="49.15637" lon="1.82231">
        <ele>128.74</ele>
        <time>2022-08-14T09:05:05Z</time>
      </trkpt>
      <trkpt lat="49.15638" lon="1.8223">
        <ele>128.29</ele>
        <time>2022-08-14T09:05:06Z</time>
      </trkpt>
      <trkpt lat="49.15639" lon="1.82229">
        <ele>128.52</ele>
        <time>2022-08-14T09:05:07Z</time>
      </trkpt>
      <trkpt lat="49.1564" lon="1.82228">
        <ele>128.46</ele>
        <time>2022-08-14T09:05:08Z</time>
      </trkpt>
      <trkpt lat="49.15641" lon="1.82227">
        <ele>128.16</ele>
        <time>2022-08-14T09:05:09Z</time>
      </trkpt>
      <trkpt lat="49.15647" lon="1.82218">
        <ele>128.08</ele>
        <time>2022-08-14T09:05:17Z</time>
      </trkpt>
      <trkpt lat="49.15659" lon="1.82204">
        <ele>127.61</ele>
        <time>2022-08-14T09:05:30Z</time>
      </trkpt>
      <trkpt lat="49.15659" lon="1.82203">
        <ele>127.29</ele>
        <time>2022-08-14T09:05:31Z</time>
      </trkpt>
      <trkpt lat="49.15661" lon="1.82201">
        <ele>127.26</ele>
        <time>2022-08-14T09:05:33Z</time>
      </trkpt>
      <trkpt lat="49.15662" lon="1.822">
        <ele>127.1</ele>
        <time>2022-08-14T09:05:34Z</time>
      </trkpt>
      <trkpt lat="49.15663" lon="1.82198">
        <ele>126.75</ele>
        <time>2022-08-14T09:05:35Z</time>
      </trkpt>
      <trkpt lat="49.15664" lon="1.82197">
        <ele>126.36</ele>
        <time>2022-08-14T09:05:36Z</time>
      </trkpt>
      <trkpt lat="49.15665" lon="1.82196">
        <ele>126.92</ele>
        <time>2022-08-14T09:05:37Z</time>
      </trkpt>
      <trkpt lat="49.15666" lon="1.82196">
        <ele>126.83</ele>
        <time>2022-08-14T09:05:38Z</time>
      </trkpt>
      <trkpt lat="49.15667" lon="1.82195">
        <ele>127.1</ele>
        <time>2022-08-14T09:05:39Z</time>
      </trkpt>
      <trkpt lat="49.15669" lon="1.82194">
        <ele>126.96</ele>
        <time>2022-08-14T09:05:40Z</time>
      </trkpt>
      <trkpt lat="49.15669" lon="1.82193">
        <ele>127.16</ele>
        <time>2022-08-14T09:05:41Z</time>
      </trkpt>
      <trkpt lat="49.1567" lon="1.82192">
        <ele>127.37</ele>
        <time>2022-08-14T09:05:42Z</time>
      </trkpt>
      <trkpt lat="49.15678" lon="1.8218">
        <ele>126.67</ele>
        <time>2022-08-14T09:05:51Z</time>
      </trkpt>
      <trkpt lat="49.15687" lon="1.82169">
        <ele>126.45</ele>
        <time>2022-08-14T09:06:00Z</time>
      </trkpt>
      <trkpt lat="49.15689" lon="1.82166">
        <ele>127.02</ele>
        <time>2022-08-14T09:06:02Z</time>
      </trkpt>
      <trkpt lat="49.15689" lon="1.82165">
        <ele>127.32</ele>
        <time>2022-08-14T09:06:03Z</time>
      </trkpt>
      <trkpt lat="49.15695" lon="1.82158">
        <ele>125.87</ele>
        <time>2022-08-14T09:06:10Z</time>
      </trkpt>
      <trkpt lat="49.15701" lon="1.8215">
        <ele>125.14</ele>
        <time>2022-08-14T09:06:16Z</time>
      </trkpt>
      <trkpt lat="49.15708" lon="1.82143">
        <ele>126.17</ele>
        <time>2022-08-14T09:06:24Z</time>
      </trkpt>
      <trkpt lat="49.15709" lon="1.82142">
        <ele>125.86</ele>
        <time>2022-08-14T09:06:25Z</time>
      </trkpt>
      <trkpt lat="49.1571" lon="1.82141">
        <ele>125.57</ele>
        <time>2022-08-14T09:06:26Z</time>
      </trkpt>
      <trkpt lat="49.15717" lon="1.82131">
        <ele>125.7</ele>
        <time>2022-08-14T09:06:34Z</time>
      </trkpt>
      <trkpt lat="49.15724" lon="1.8212">
        <ele>125.41</ele>
        <time>2022-08-14T09:06:45Z</time>
      </trkpt>
      <trkpt lat="49.15726" lon="1.82118">
        <ele>125.32</ele>
        <time>2022-08-14T09:06:47Z</time>
      </trkpt>
      <trkpt lat="49.15727" lon="1.82117">
        <ele>124.98</ele>
        <time>2022-08-14T09:06:48Z</time>
      </trkpt>
      <trkpt lat="49.15738" lon="1.82106">
        <ele>124.7</ele>
        <time>2022-08-14T09:07:00Z</time>
      </trkpt>
      <trkpt lat="49.15748" lon="1.82095">
        <ele>124.33</ele>
        <time>2022-08-14T09:07:14Z</time>
      </trkpt>
      <trkpt lat="49.15751" lon="1.82092">
        <ele>124.33</ele>
        <time>2022-08-14T09:07:18Z</time>
      </trkpt>
      <trkpt lat="49.15753" lon="1.8209">
        <ele>124.57</ele>
        <time>2022-08-14T09:07:20Z</time>
      </trkpt>
      <trkpt lat="49.15754" lon="1.82089">
        <ele>124.38</ele>
        <time>2022-08-14T09:07:21Z</time>
      </trkpt>
      <trkpt lat="49.15755" lon="1.82088">
        <ele>124.39</ele>
        <time>2022-08-14T09:07:22Z</time>
      </trkpt>
      <trkpt lat="49.15763" lon="1.8208">
        <ele>124.25</ele>
        <time>2022-08-14T09:07:31Z</time>
      </trkpt>
      <trkpt lat="49.1577" lon="1.82073">
        <ele>123.79</ele>
        <time>2022-08-14T09:07:38Z</time>
      </trkpt>
      <trkpt lat="49.15771" lon="1.82073">
        <ele>123.84</ele>
        <time>2022-08-14T09:07:39Z</time>
      </trkpt>
      <trkpt lat="49.15776" lon="1.82066">
        <ele>122.83</ele>
        <time>2022-08-14T09:07:49Z</time>
      </trkpt>
      <trkpt lat="49.15781" lon="1.82065">
        <ele>121.65</ele>
        <time>2022-08-14T09:08:07Z</time>
      </trkpt>
      <trkpt lat="49.15788" lon="1.82059">
        <ele>122.24</ele>
        <time>2022-08-14T09:08:14Z</time>
      </trkpt>
      <trkpt lat="49.15789" lon="1.82058">
        <ele>121.97</ele>
        <time>2022-08-14T09:08:15Z</time>
      </trkpt>
      <trkpt lat="49.15789" lon="1.82057">
        <ele>121.98</ele>
        <time>2022-08-14T09:08:16Z</time>
      </trkpt>
      <trkpt lat="49.1579" lon="1.82057">
        <ele>121.98</ele>
        <time>2022-08-14T09:08:17Z</time>
      </trkpt>
      <trkpt lat="49.15791" lon="1.82056">
        <ele>121.99</ele>
        <time>2022-08-14T09:08:18Z</time>
      </trkpt>
      <trkpt lat="49.15793" lon="1.82055">
        <ele>121.99</ele>
        <time>2022-08-14T09:08:19Z</time>
      </trkpt>
      <trkpt lat="49.15794" lon="1.82054">
        <ele>121.83</ele>
        <time>2022-08-14T09:08:20Z</time>
      </trkpt>
      <trkpt lat="49.15809" lon="1.82045">
        <ele>121.6</ele>
        <time>2022-08-14T09:08:34Z</time>
      </trkpt>
      <trkpt lat="49.1581" lon="1.82044">
        <ele>121.02</ele>
        <time>2022-08-14T09:08:35Z</time>
      </trkpt>
      <trkpt lat="49.15811" lon="1.82043">
        <ele>120.82</ele>
        <time>2022-08-14T09:08:36Z</time>
      </trkpt>
      <trkpt lat="49.15812" lon="1.82042">
        <ele>120.91</ele>
        <time>2022-08-14T09:08:37Z</time>
      </trkpt>
      <trkpt lat="49.15813" lon="1.82042">
        <ele>120.64</ele>
        <time>2022-08-14T09:08:38Z</time>
      </trkpt>
      <trkpt lat="49.15814" lon="1.82041">
        <ele>120.71</ele>
        <time>2022-08-14T09:08:39Z</time>
      </trkpt>
      <trkpt lat="49.15823" lon="1.82035">
        <ele>119.6</ele>
        <time>2022-08-14T09:08:52Z</time>
      </trkpt>
      <trkpt lat="49.15822" lon="1.82036">
        <ele>120.43</ele>
        <time>2022-08-14T09:09:11Z</time>
      </trkpt>
      <trkpt lat="49.15823" lon="1.82034">
        <ele>120.59</ele>
        <time>2022-08-14T09:09:26Z</time>
      </trkpt>
      <trkpt lat="49.15824" lon="1.82033">
        <ele>120.64</ele>
        <time>2022-08-14T09:09:35Z</time>
      </trkpt>
      <trkpt lat="49.15827" lon="1.8203">
        <ele>120.77</ele>
        <time>2022-08-14T09:09:41Z</time>
      </trkpt>
      <trkpt lat="49.1583" lon="1.82031">
        <ele>119.51</ele>
        <time>2022-08-14T09:09:53Z</time>
      </trkpt>
      <trkpt lat="49.15833" lon="1.8203">
        <ele>119.33</ele>
        <time>2022-08-14T09:10:04Z</time>
      </trkpt>
      <trkpt lat="49.15841" lon="1.82026">
        <ele>118.72</ele>
        <time>2022-08-14T09:10:17Z</time>
      </trkpt>
      <trkpt lat="49.15846" lon="1.82026">
        <ele>118.37</ele>
        <time>2022-08-14T09:10:31Z</time>
      </trkpt>
      <trkpt lat="49.15846" lon="1.82025">
        <ele>118.29</ele>
        <time>2022-08-14T09:10:32Z</time>
      </trkpt>
      <trkpt lat="49.15854" lon="1.82022">
        <ele>117.37</ele>
        <time>2022-08-14T09:10:43Z</time>
      </trkpt>
      <trkpt lat="49.1586" lon="1.82017">
        <ele>116.64</ele>
        <time>2022-08-14T09:10:53Z</time>
      </trkpt>
      <trkpt lat="49.15868" lon="1.82014">
        <ele>116.65</ele>
        <time>2022-08-14T09:11:01Z</time>
      </trkpt>
      <trkpt lat="49.15879" lon="1.82007">
        <ele>115.13</ele>
        <time>2022-08-14T09:11:14Z</time>
      </trkpt>
      <trkpt lat="49.15882" lon="1.82007">
        <ele>115.4</ele>
        <time>2022-08-14T09:11:16Z</time>
      </trkpt>
      <trkpt lat="49.15883" lon="1.82007">
        <ele>115.09</ele>
        <time>2022-08-14T09:11:17Z</time>
      </trkpt>
      <trkpt lat="49.1589" lon="1.82003">
        <ele>115.2</ele>
        <time>2022-08-14T09:11:26Z</time>
      </trkpt>
      <trkpt lat="49.15898" lon="1.81992">
        <ele>112.61</ele>
        <time>2022-08-14T09:11:38Z</time>
      </trkpt>
      <trkpt lat="49.1591" lon="1.81975">
        <ele>111.65</ele>
        <time>2022-08-14T09:11:55Z</time>
      </trkpt>
      <trkpt lat="49.15912" lon="1.81967">
        <ele>111.01</ele>
        <time>2022-08-14T09:12:00Z</time>
      </trkpt>
      <trkpt lat="49.1592" lon="1.81947">
        <ele>109.43</ele>
        <time>2022-08-14T09:12:15Z</time>
      </trkpt>
      <trkpt lat="49.15927" lon="1.81926">
        <ele>107.99</ele>
        <time>2022-08-14T09:12:29Z</time>
      </trkpt>
      <trkpt lat="49.15937" lon="1.81905">
        <ele>106.89</ele>
        <time>2022-08-14T09:12:42Z</time>
      </trkpt>
      <trkpt lat="49.15953" lon="1.81886">
        <ele>104.85</ele>
        <time>2022-08-14T09:12:55Z</time>
      </trkpt>
      <trkpt lat="49.15954" lon="1.81885">
        <ele>104.88</ele>
        <time>2022-08-14T09:12:56Z</time>
      </trkpt>
      <trkpt lat="49.15955" lon="1.81884">
        <ele>104.74</ele>
        <time>2022-08-14T09:12:57Z</time>
      </trkpt>
      <trkpt lat="49.15957" lon="1.81883">
        <ele>104.63</ele>
        <time>2022-08-14T09:12:58Z</time>
      </trkpt>
      <trkpt lat="49.15958" lon="1.81883">
        <ele>104.8</ele>
        <time>2022-08-14T09:12:59Z</time>
      </trkpt>
      <trkpt lat="49.15969" lon="1.81873">
        <ele>103.67</ele>
        <time>2022-08-14T09:13:10Z</time>
      </trkpt>
      <trkpt lat="49.15974" lon="1.8187">
        <ele>103.07</ele>
        <time>2022-08-14T09:13:14Z</time>
      </trkpt>
      <trkpt lat="49.15988" lon="1.81866">
        <ele>101.34</ele>
        <time>2022-08-14T09:13:25Z</time>
      </trkpt>
      <trkpt lat="49.16" lon="1.81863">
        <ele>100.62</ele>
        <time>2022-08-14T09:13:36Z</time>
      </trkpt>
      <trkpt lat="49.16006" lon="1.81862">
        <ele>99.91</ele>
        <time>2022-08-14T09:13:41Z</time>
      </trkpt>
      <trkpt lat="49.16011" lon="1.81862">
        <ele>99.83</ele>
        <time>2022-08-14T09:13:46Z</time>
      </trkpt>
      <trkpt lat="49.16025" lon="1.81859">
        <ele>99.34</ele>
        <time>2022-08-14T09:13:57Z</time>
      </trkpt>
      <trkpt lat="49.16031" lon="1.8186">
        <ele>99.36</ele>
        <time>2022-08-14T09:14:03Z</time>
      </trkpt>
      <trkpt lat="49.16034" lon="1.8186">
        <ele>98.14</ele>
        <time>2022-08-14T09:14:06Z</time>
      </trkpt>
      <trkpt lat="49.16036" lon="1.8186">
        <ele>98</ele>
        <time>2022-08-14T09:14:08Z</time>
      </trkpt>
      <trkpt lat="49.16038" lon="1.8186">
        <ele>97.99</ele>
        <time>2022-08-14T09:14:10Z</time>
      </trkpt>
      <trkpt lat="49.16039" lon="1.81859">
        <ele>97.67</ele>
        <time>2022-08-14T09:14:11Z</time>
      </trkpt>
      <trkpt lat="49.16048" lon="1.8186">
        <ele>97.05</ele>
        <time>2022-08-14T09:14:19Z</time>
      </trkpt>
      <trkpt lat="49.1606" lon="1.81863">
        <ele>95.95</ele>
        <time>2022-08-14T09:14:30Z</time>
      </trkpt>
      <trkpt lat="49.16072" lon="1.81864">
        <ele>95.37</ele>
        <time>2022-08-14T09:14:41Z</time>
      </trkpt>
      <trkpt lat="49.16073" lon="1.81865">
        <ele>95.32</ele>
        <time>2022-08-14T09:14:42Z</time>
      </trkpt>
      <trkpt lat="49.16075" lon="1.81865">
        <ele>94.79</ele>
        <time>2022-08-14T09:14:43Z</time>
      </trkpt>
      <trkpt lat="49.16076" lon="1.81865">
        <ele>94.97</ele>
        <time>2022-08-14T09:14:44Z</time>
      </trkpt>
      <trkpt lat="49.16077" lon="1.81865">
        <ele>95.2</ele>
        <time>2022-08-14T09:14:45Z</time>
      </trkpt>
      <trkpt lat="49.16078" lon="1.81866">
        <ele>94.85</ele>
        <time>2022-08-14T09:14:46Z</time>
      </trkpt>
      <trkpt lat="49.1608" lon="1.81866">
        <ele>94.75</ele>
        <time>2022-08-14T09:14:47Z</time>
      </trkpt>
      <trkpt lat="49.16081" lon="1.81866">
        <ele>94.5</ele>
        <time>2022-08-14T09:14:48Z</time>
      </trkpt>
      <trkpt lat="49.16097" lon="1.81868">
        <ele>93.74</ele>
        <time>2022-08-14T09:15:01Z</time>
      </trkpt>
      <trkpt lat="49.16112" lon="1.8187">
        <ele>91.98</ele>
        <time>2022-08-14T09:15:14Z</time>
      </trkpt>
      <trkpt lat="49.16118" lon="1.8187">
        <ele>92.01</ele>
        <time>2022-08-14T09:15:26Z</time>
      </trkpt>
      <trkpt lat="49.1612" lon="1.8187">
        <ele>92.19</ele>
        <time>2022-08-14T09:15:38Z</time>
      </trkpt>
      <trkpt lat="49.1612" lon="1.81869">
        <ele>91.87</ele>
        <time>2022-08-14T09:15:49Z</time>
      </trkpt>
      <trkpt lat="49.16122" lon="1.81871">
        <ele>91.54</ele>
        <time>2022-08-14T09:16:00Z</time>
      </trkpt>
      <trkpt lat="49.16128" lon="1.81871">
        <ele>91.45</ele>
        <time>2022-08-14T09:16:14Z</time>
      </trkpt>
      <trkpt lat="49.16129" lon="1.81872">
        <ele>90.89</ele>
        <time>2022-08-14T09:16:15Z</time>
      </trkpt>
      <trkpt lat="49.16135" lon="1.81875">
        <ele>90.83</ele>
        <time>2022-08-14T09:16:21Z</time>
      </trkpt>
      <trkpt lat="49.16142" lon="1.81875">
        <ele>90.29</ele>
        <time>2022-08-14T09:16:32Z</time>
      </trkpt>
      <trkpt lat="49.16143" lon="1.81877">
        <ele>90.18</ele>
        <time>2022-08-14T09:16:52Z</time>
      </trkpt>
      <trkpt lat="49.16141" lon="1.81876">
        <ele>90.3</ele>
        <time>2022-08-14T09:17:10Z</time>
      </trkpt>
      <trkpt lat="49.16143" lon="1.81876">
        <ele>89.99</ele>
        <time>2022-08-14T09:17:29Z</time>
      </trkpt>
      <trkpt lat="49.16141" lon="1.81879">
        <ele>90.41</ele>
        <time>2022-08-14T09:17:46Z</time>
      </trkpt>
      <trkpt lat="49.16142" lon="1.81886">
        <ele>89.94</ele>
        <time>2022-08-14T09:18:00Z</time>
      </trkpt>
      <trkpt lat="49.16142" lon="1.81895">
        <ele>90.01</ele>
        <time>2022-08-14T09:18:11Z</time>
      </trkpt>
      <trkpt lat="49.16142" lon="1.81897">
        <ele>89.78</ele>
        <time>2022-08-14T09:18:12Z</time>
      </trkpt>
      <trkpt lat="49.16141" lon="1.81909">
        <ele>89.09</ele>
        <time>2022-08-14T09:18:23Z</time>
      </trkpt>
      <trkpt lat="49.16139" lon="1.81923">
        <ele>89.49</ele>
        <time>2022-08-14T09:18:36Z</time>
      </trkpt>
      <trkpt lat="49.16136" lon="1.81936">
        <ele>89.68</ele>
        <time>2022-08-14T09:18:49Z</time>
      </trkpt>
      <trkpt lat="49.1613" lon="1.81956">
        <ele>89.52</ele>
        <time>2022-08-14T09:19:05Z</time>
      </trkpt>
      <trkpt lat="49.16127" lon="1.81973">
        <ele>89.67</ele>
        <time>2022-08-14T09:19:19Z</time>
      </trkpt>
      <trkpt lat="49.16127" lon="1.81975">
        <ele>89.57</ele>
        <time>2022-08-14T09:19:20Z</time>
      </trkpt>
      <trkpt lat="49.16127" lon="1.81982">
        <ele>90.2</ele>
        <time>2022-08-14T09:19:24Z</time>
      </trkpt>
      <trkpt lat="49.16127" lon="1.81984">
        <ele>90.17</ele>
        <time>2022-08-14T09:19:25Z</time>
      </trkpt>
      <trkpt lat="49.16126" lon="1.82">
        <ele>89.89</ele>
        <time>2022-08-14T09:19:38Z</time>
      </trkpt>
      <trkpt lat="49.16126" lon="1.82008">
        <ele>90.07</ele>
        <time>2022-08-14T09:19:56Z</time>
      </trkpt>
      <trkpt lat="49.16126" lon="1.82015">
        <ele>89.81</ele>
        <time>2022-08-14T09:20:09Z</time>
      </trkpt>
      <trkpt lat="49.16127" lon="1.82032">
        <ele>90.81</ele>
        <time>2022-08-14T09:20:22Z</time>
      </trkpt>
      <trkpt lat="49.1613" lon="1.82055">
        <ele>90.96</ele>
        <time>2022-08-14T09:20:39Z</time>
      </trkpt>
      <trkpt lat="49.16132" lon="1.82074">
        <ele>91.72</ele>
        <time>2022-08-14T09:20:53Z</time>
      </trkpt>
      <trkpt lat="49.16135" lon="1.82088">
        <ele>91.4</ele>
        <time>2022-08-14T09:21:04Z</time>
      </trkpt>
      <trkpt lat="49.16139" lon="1.821">
        <ele>91.63</ele>
        <time>2022-08-14T09:21:17Z</time>
      </trkpt>
      <trkpt lat="49.16141" lon="1.82107">
        <ele>91.11</ele>
        <time>2022-08-14T09:21:23Z</time>
      </trkpt>
      <trkpt lat="49.16141" lon="1.82109">
        <ele>91.13</ele>
        <time>2022-08-14T09:21:24Z</time>
      </trkpt>
      <trkpt lat="49.16142" lon="1.8211">
        <ele>91</ele>
        <time>2022-08-14T09:21:25Z</time>
      </trkpt>
      <trkpt lat="49.16146" lon="1.82132">
        <ele>91.18</ele>
        <time>2022-08-14T09:21:37Z</time>
      </trkpt>
      <trkpt lat="49.1615" lon="1.82153">
        <ele>91.15</ele>
        <time>2022-08-14T09:21:50Z</time>
      </trkpt>
      <trkpt lat="49.16151" lon="1.8216">
        <ele>91.4</ele>
        <time>2022-08-14T09:21:55Z</time>
      </trkpt>
      <trkpt lat="49.16152" lon="1.82162">
        <ele>91.54</ele>
        <time>2022-08-14T09:21:56Z</time>
      </trkpt>
      <trkpt lat="49.16153" lon="1.82164">
        <ele>91.29</ele>
        <time>2022-08-14T09:21:57Z</time>
      </trkpt>
      <trkpt lat="49.16156" lon="1.82175">
        <ele>91</ele>
        <time>2022-08-14T09:22:04Z</time>
      </trkpt>
      <trkpt lat="49.16157" lon="1.82176">
        <ele>90.72</ele>
        <time>2022-08-14T09:22:05Z</time>
      </trkpt>
      <trkpt lat="49.16157" lon="1.82178">
        <ele>91.04</ele>
        <time>2022-08-14T09:22:06Z</time>
      </trkpt>
      <trkpt lat="49.16158" lon="1.82179">
        <ele>91.45</ele>
        <time>2022-08-14T09:22:07Z</time>
      </trkpt>
      <trkpt lat="49.16159" lon="1.82182">
        <ele>90.71</ele>
        <time>2022-08-14T09:22:10Z</time>
      </trkpt>
      <trkpt lat="49.16159" lon="1.82184">
        <ele>91.48</ele>
        <time>2022-08-14T09:22:12Z</time>
      </trkpt>
      <trkpt lat="49.1616" lon="1.82186">
        <ele>90.82</ele>
        <time>2022-08-14T09:22:13Z</time>
      </trkpt>
      <trkpt lat="49.16161" lon="1.82191">
        <ele>90.8</ele>
        <time>2022-08-14T09:22:17Z</time>
      </trkpt>
      <trkpt lat="49.16161" lon="1.82193">
        <ele>90.79</ele>
        <time>2022-08-14T09:22:19Z</time>
      </trkpt>
      <trkpt lat="49.16162" lon="1.82195">
        <ele>90.93</ele>
        <time>2022-08-14T09:22:20Z</time>
      </trkpt>
      <trkpt lat="49.16162" lon="1.82197">
        <ele>91.09</ele>
        <time>2022-08-14T09:22:21Z</time>
      </trkpt>
      <trkpt lat="49.16163" lon="1.82199">
        <ele>91.1</ele>
        <time>2022-08-14T09:22:22Z</time>
      </trkpt>
      <trkpt lat="49.16163" lon="1.822">
        <ele>91.38</ele>
        <time>2022-08-14T09:22:23Z</time>
      </trkpt>
      <trkpt lat="49.16166" lon="1.82216">
        <ele>91.13</ele>
        <time>2022-08-14T09:22:32Z</time>
      </trkpt>
      <trkpt lat="49.16167" lon="1.82224">
        <ele>91.47</ele>
        <time>2022-08-14T09:22:38Z</time>
      </trkpt>
      <trkpt lat="49.16169" lon="1.8223">
        <ele>92.54</ele>
        <time>2022-08-14T09:22:42Z</time>
      </trkpt>
      <trkpt lat="49.16169" lon="1.82232">
        <ele>92.35</ele>
        <time>2022-08-14T09:22:43Z</time>
      </trkpt>
      <trkpt lat="49.1617" lon="1.82233">
        <ele>92.27</ele>
        <time>2022-08-14T09:22:44Z</time>
      </trkpt>
      <trkpt lat="49.16173" lon="1.82247">
        <ele>91.81</ele>
        <time>2022-08-14T09:22:56Z</time>
      </trkpt>
      <trkpt lat="49.16177" lon="1.8226">
        <ele>92.07</ele>
        <time>2022-08-14T09:23:07Z</time>
      </trkpt>
      <trkpt lat="49.16179" lon="1.82267">
        <ele>91.5</ele>
        <time>2022-08-14T09:23:13Z</time>
      </trkpt>
      <trkpt lat="49.16178" lon="1.82265">
        <ele>91.85</ele>
        <time>2022-08-14T09:23:26Z</time>
      </trkpt>
      <trkpt lat="49.16177" lon="1.82266">
        <ele>92.22</ele>
        <time>2022-08-14T09:23:32Z</time>
      </trkpt>
      <trkpt lat="49.16178" lon="1.82267">
        <ele>92.15</ele>
        <time>2022-08-14T09:23:33Z</time>
      </trkpt>
      <trkpt lat="49.16178" lon="1.82268">
        <ele>92.19</ele>
        <time>2022-08-14T09:23:34Z</time>
      </trkpt>
      <trkpt lat="49.16178" lon="1.8227">
        <ele>92.58</ele>
        <time>2022-08-14T09:23:35Z</time>
      </trkpt>
      <trkpt lat="49.16179" lon="1.82271">
        <ele>92.11</ele>
        <time>2022-08-14T09:23:36Z</time>
      </trkpt>
      <trkpt lat="49.16183" lon="1.82288">
        <ele>92.7</ele>
        <time>2022-08-14T09:23:46Z</time>
      </trkpt>
      <trkpt lat="49.16186" lon="1.82307">
        <ele>92.3</ele>
        <time>2022-08-14T09:23:57Z</time>
      </trkpt>
      <trkpt lat="49.16189" lon="1.82318">
        <ele>92.63</ele>
        <time>2022-08-14T09:24:04Z</time>
      </trkpt>
      <trkpt lat="49.16191" lon="1.82337">
        <ele>92.85</ele>
        <time>2022-08-14T09:24:15Z</time>
      </trkpt>
      <trkpt lat="49.16192" lon="1.82352">
        <ele>92.47</ele>
        <time>2022-08-14T09:24:24Z</time>
      </trkpt>
      <trkpt lat="49.16193" lon="1.82355">
        <ele>92.92</ele>
        <time>2022-08-14T09:24:26Z</time>
      </trkpt>
      <trkpt lat="49.16193" lon="1.82357">
        <ele>92.82</ele>
        <time>2022-08-14T09:24:27Z</time>
      </trkpt>
      <trkpt lat="49.16193" lon="1.82359">
        <ele>92.92</ele>
        <time>2022-08-14T09:24:28Z</time>
      </trkpt>
      <trkpt lat="49.16193" lon="1.8236">
        <ele>93.06</ele>
        <time>2022-08-14T09:24:29Z</time>
      </trkpt>
      <trkpt lat="49.16196" lon="1.82383">
        <ele>91.96</ele>
        <time>2022-08-14T09:24:42Z</time>
      </trkpt>
      <trkpt lat="49.16198" lon="1.82401">
        <ele>91.75</ele>
        <time>2022-08-14T09:24:53Z</time>
      </trkpt>
      <trkpt lat="49.16198" lon="1.8242">
        <ele>90.59</ele>
        <time>2022-08-14T09:25:04Z</time>
      </trkpt>
      <trkpt lat="49.16197" lon="1.82429">
        <ele>90.04</ele>
        <time>2022-08-14T09:25:11Z</time>
      </trkpt>
      <trkpt lat="49.16197" lon="1.82432">
        <ele>90.25</ele>
        <time>2022-08-14T09:25:13Z</time>
      </trkpt>
      <trkpt lat="49.16197" lon="1.82434">
        <ele>90.27</ele>
        <time>2022-08-14T09:25:14Z</time>
      </trkpt>
      <trkpt lat="49.16196" lon="1.82435">
        <ele>90.39</ele>
        <time>2022-08-14T09:25:15Z</time>
      </trkpt>
      <trkpt lat="49.16195" lon="1.82459">
        <ele>89.08</ele>
        <time>2022-08-14T09:25:29Z</time>
      </trkpt>
      <trkpt lat="49.16192" lon="1.82476">
        <ele>88.82</ele>
        <time>2022-08-14T09:25:41Z</time>
      </trkpt>
      <trkpt lat="49.16189" lon="1.82492">
        <ele>87.8</ele>
        <time>2022-08-14T09:25:54Z</time>
      </trkpt>
      <trkpt lat="49.16186" lon="1.82513">
        <ele>86.54</ele>
        <time>2022-08-14T09:26:10Z</time>
      </trkpt>
      <trkpt lat="49.16181" lon="1.82533">
        <ele>85.39</ele>
        <time>2022-08-14T09:26:26Z</time>
      </trkpt>
      <trkpt lat="49.16177" lon="1.82552">
        <ele>84.55</ele>
        <time>2022-08-14T09:26:36Z</time>
      </trkpt>
      <trkpt lat="49.16175" lon="1.82569">
        <ele>85.06</ele>
        <time>2022-08-14T09:26:45Z</time>
      </trkpt>
      <trkpt lat="49.16177" lon="1.82588">
        <ele>84.49</ele>
        <time>2022-08-14T09:26:58Z</time>
      </trkpt>
      <trkpt lat="49.16181" lon="1.82608">
        <ele>85.32</ele>
        <time>2022-08-14T09:27:17Z</time>
      </trkpt>
      <trkpt lat="49.16187" lon="1.82631">
        <ele>86.69</ele>
        <time>2022-08-14T09:27:35Z</time>
      </trkpt>
      <trkpt lat="49.1619" lon="1.82656">
        <ele>86.43</ele>
        <time>2022-08-14T09:27:48Z</time>
      </trkpt>
      <trkpt lat="49.16193" lon="1.82674">
        <ele>86.03</ele>
        <time>2022-08-14T09:28:04Z</time>
      </trkpt>
      <trkpt lat="49.16194" lon="1.82689">
        <ele>86.77</ele>
        <time>2022-08-14T09:28:15Z</time>
      </trkpt>
      <trkpt lat="49.16194" lon="1.82691">
        <ele>86.14</ele>
        <time>2022-08-14T09:28:16Z</time>
      </trkpt>
      <trkpt lat="49.16198" lon="1.82704">
        <ele>85.75</ele>
        <time>2022-08-14T09:28:29Z</time>
      </trkpt>
      <trkpt lat="49.16199" lon="1.82712">
        <ele>86.38</ele>
        <time>2022-08-14T09:28:33Z</time>
      </trkpt>
      <trkpt lat="49.162" lon="1.82713">
        <ele>85.89</ele>
        <time>2022-08-14T09:28:34Z</time>
      </trkpt>
      <trkpt lat="49.16203" lon="1.82734">
        <ele>85.28</ele>
        <time>2022-08-14T09:28:47Z</time>
      </trkpt>
      <trkpt lat="49.16204" lon="1.82735">
        <ele>84.85</ele>
        <time>2022-08-14T09:28:48Z</time>
      </trkpt>
      <trkpt lat="49.16208" lon="1.82754">
        <ele>85.11</ele>
        <time>2022-08-14T09:29:06Z</time>
      </trkpt>
      <trkpt lat="49.16212" lon="1.82772">
        <ele>84.01</ele>
        <time>2022-08-14T09:29:21Z</time>
      </trkpt>
      <trkpt lat="49.16216" lon="1.82805">
        <ele>84.21</ele>
        <time>2022-08-14T09:29:37Z</time>
      </trkpt>
      <trkpt lat="49.16217" lon="1.82829">
        <ele>83.81</ele>
        <time>2022-08-14T09:29:48Z</time>
      </trkpt>
      <trkpt lat="49.16218" lon="1.82833">
        <ele>83.81</ele>
        <time>2022-08-14T09:29:50Z</time>
      </trkpt>
      <trkpt lat="49.16219" lon="1.82852">
        <ele>83.3</ele>
        <time>2022-08-14T09:30:03Z</time>
      </trkpt>
      <trkpt lat="49.16223" lon="1.82878">
        <ele>82.42</ele>
        <time>2022-08-14T09:30:22Z</time>
      </trkpt>
      <trkpt lat="49.16217" lon="1.8292">
        <ele>81.59</ele>
        <time>2022-08-14T09:30:39Z</time>
      </trkpt>
      <trkpt lat="49.16209" lon="1.82935">
        <ele>79.55</ele>
        <time>2022-08-14T09:30:57Z</time>
      </trkpt>
      <trkpt lat="49.16201" lon="1.82947">
        <ele>78.08</ele>
        <time>2022-08-14T09:31:10Z</time>
      </trkpt>
      <trkpt lat="49.16185" lon="1.82954">
        <ele>77.59</ele>
        <time>2022-08-14T09:31:27Z</time>
      </trkpt>
      <trkpt lat="49.16174" lon="1.82959">
        <ele>77.61</ele>
        <time>2022-08-14T09:31:36Z</time>
      </trkpt>
      <trkpt lat="49.16167" lon="1.8301">
        <ele>77.23</ele>
        <time>2022-08-14T09:31:47Z</time>
      </trkpt>
      <trkpt lat="49.16164" lon="1.83017">
        <ele>77.49</ele>
        <time>2022-08-14T09:31:51Z</time>
      </trkpt>
      <trkpt lat="49.16151" lon="1.83043">
        <ele>77.52</ele>
        <time>2022-08-14T09:32:08Z</time>
      </trkpt>
      <trkpt lat="49.1614" lon="1.83071">
        <ele>76.7</ele>
        <time>2022-08-14T09:32:27Z</time>
      </trkpt>
      <trkpt lat="49.16134" lon="1.83096">
        <ele>75.95</ele>
        <time>2022-08-14T09:32:44Z</time>
      </trkpt>
      <trkpt lat="49.16137" lon="1.83121">
        <ele>75.4</ele>
        <time>2022-08-14T09:32:59Z</time>
      </trkpt>
      <trkpt lat="49.16139" lon="1.83148">
        <ele>74.87</ele>
        <time>2022-08-14T09:33:13Z</time>
      </trkpt>
      <trkpt lat="49.16141" lon="1.83157">
        <ele>74.86</ele>
        <time>2022-08-14T09:33:19Z</time>
      </trkpt>
      <trkpt lat="49.1615" lon="1.83192">
        <ele>74.42</ele>
        <time>2022-08-14T09:33:38Z</time>
      </trkpt>
      <trkpt lat="49.16155" lon="1.83217">
        <ele>74.03</ele>
        <time>2022-08-14T09:33:50Z</time>
      </trkpt>
      <trkpt lat="49.16159" lon="1.83232">
        <ele>73.53</ele>
        <time>2022-08-14T09:34:00Z</time>
      </trkpt>
      <trkpt lat="49.16161" lon="1.83244">
        <ele>73.43</ele>
        <time>2022-08-14T09:34:07Z</time>
      </trkpt>
      <trkpt lat="49.16166" lon="1.83258">
        <ele>74.06</ele>
        <time>2022-08-14T09:34:20Z</time>
      </trkpt>
      <trkpt lat="49.1617" lon="1.83281">
        <ele>73.5</ele>
        <time>2022-08-14T09:34:36Z</time>
      </trkpt>
      <trkpt lat="49.16177" lon="1.83309">
        <ele>73.69</ele>
        <time>2022-08-14T09:34:51Z</time>
      </trkpt>
      <trkpt lat="49.1618" lon="1.83319">
        <ele>73.51</ele>
        <time>2022-08-14T09:35:01Z</time>
      </trkpt>
      <trkpt lat="49.16184" lon="1.83348">
        <ele>73.5</ele>
        <time>2022-08-14T09:35:20Z</time>
      </trkpt>
      <trkpt lat="49.16189" lon="1.83368">
        <ele>73.34</ele>
        <time>2022-08-14T09:35:37Z</time>
      </trkpt>
      <trkpt lat="49.16189" lon="1.83409">
        <ele>73.88</ele>
        <time>2022-08-14T09:35:57Z</time>
      </trkpt>
      <trkpt lat="49.16194" lon="1.83431">
        <ele>73.5</ele>
        <time>2022-08-14T09:36:13Z</time>
      </trkpt>
      <trkpt lat="49.16199" lon="1.83452">
        <ele>73.31</ele>
        <time>2022-08-14T09:36:28Z</time>
      </trkpt>
      <trkpt lat="49.16202" lon="1.83458">
        <ele>73.3</ele>
        <time>2022-08-14T09:36:31Z</time>
      </trkpt>
      <trkpt lat="49.16208" lon="1.83468">
        <ele>72.88</ele>
        <time>2022-08-14T09:36:41Z</time>
      </trkpt>
      <trkpt lat="49.16205" lon="1.83477">
        <ele>72.88</ele>
        <time>2022-08-14T09:37:00Z</time>
      </trkpt>
      <trkpt lat="49.16205" lon="1.83482">
        <ele>72.73</ele>
        <time>2022-08-14T09:37:13Z</time>
      </trkpt>
      <trkpt lat="49.16207" lon="1.83478">
        <ele>73.11</ele>
        <time>2022-08-14T09:37:21Z</time>
      </trkpt>
      <trkpt lat="49.16215" lon="1.83469">
        <ele>72.73</ele>
        <time>2022-08-14T09:37:31Z</time>
      </trkpt>
      <trkpt lat="49.16216" lon="1.83468">
        <ele>72.19</ele>
        <time>2022-08-14T09:37:33Z</time>
      </trkpt>
      <trkpt lat="49.16219" lon="1.83468">
        <ele>72.51</ele>
        <time>2022-08-14T09:37:46Z</time>
      </trkpt>
      <trkpt lat="49.16225" lon="1.83467">
        <ele>72.11</ele>
        <time>2022-08-14T09:37:54Z</time>
      </trkpt>
      <trkpt lat="49.1623" lon="1.83465">
        <ele>72.01</ele>
        <time>2022-08-14T09:38:00Z</time>
      </trkpt>
      <trkpt lat="49.16234" lon="1.83461">
        <ele>71.51</ele>
        <time>2022-08-14T09:38:05Z</time>
      </trkpt>
      <trkpt lat="49.1624" lon="1.83449">
        <ele>72.29</ele>
        <time>2022-08-14T09:38:16Z</time>
      </trkpt>
      <trkpt lat="49.1624" lon="1.83446">
        <ele>72.15</ele>
        <time>2022-08-14T09:38:31Z</time>
      </trkpt>
      <trkpt lat="49.1624" lon="1.83445">
        <ele>71.85</ele>
        <time>2022-08-14T09:38:52Z</time>
      </trkpt>
      <trkpt lat="49.1624" lon="1.83444">
        <ele>72.01</ele>
        <time>2022-08-14T09:39:16Z</time>
      </trkpt>
      <trkpt lat="49.16238" lon="1.83443">
        <ele>71.97</ele>
        <time>2022-08-14T09:39:39Z</time>
      </trkpt>
      <trkpt lat="49.16236" lon="1.83443">
        <ele>72.33</ele>
        <time>2022-08-14T09:40:02Z</time>
      </trkpt>
      <trkpt lat="49.16236" lon="1.83444">
        <ele>72.66</ele>
        <time>2022-08-14T09:40:21Z</time>
      </trkpt>
      <trkpt lat="49.16236" lon="1.83445">
        <ele>72.5</ele>
        <time>2022-08-14T09:40:40Z</time>
      </trkpt>
      <trkpt lat="49.16238" lon="1.83448">
        <ele>72.75</ele>
        <time>2022-08-14T09:41:03Z</time>
      </trkpt>
      <trkpt lat="49.16239" lon="1.83446">
        <ele>72.45</ele>
        <time>2022-08-14T09:41:27Z</time>
      </trkpt>
      <trkpt lat="49.16243" lon="1.83442">
        <ele>72.82</ele>
        <time>2022-08-14T09:41:46Z</time>
      </trkpt>
      <trkpt lat="49.16244" lon="1.83443">
        <ele>72.66</ele>
        <time>2022-08-14T09:42:01Z</time>
      </trkpt>
      <trkpt lat="49.16248" lon="1.83437">
        <ele>73.07</ele>
        <time>2022-08-14T09:42:08Z</time>
      </trkpt>
      <trkpt lat="49.16254" lon="1.83432">
        <ele>73.67</ele>
        <time>2022-08-14T09:42:16Z</time>
      </trkpt>
      <trkpt lat="49.16257" lon="1.83428">
        <ele>73.63</ele>
        <time>2022-08-14T09:42:28Z</time>
      </trkpt>
      <trkpt lat="49.16265" lon="1.83418">
        <ele>73.18</ele>
        <time>2022-08-14T09:42:38Z</time>
      </trkpt>
      <trkpt lat="49.16268" lon="1.83415">
        <ele>73.01</ele>
        <time>2022-08-14T09:42:41Z</time>
      </trkpt>
      <trkpt lat="49.16272" lon="1.8341">
        <ele>73.03</ele>
        <time>2022-08-14T09:42:46Z</time>
      </trkpt>
      <trkpt lat="49.16282" lon="1.83401">
        <ele>73.24</ele>
        <time>2022-08-14T09:42:59Z</time>
      </trkpt>
      <trkpt lat="49.16284" lon="1.83396">
        <ele>73.33</ele>
        <time>2022-08-14T09:43:08Z</time>
      </trkpt>
      <trkpt lat="49.16288" lon="1.83391">
        <ele>73.17</ele>
        <time>2022-08-14T09:43:24Z</time>
      </trkpt>
      <trkpt lat="49.16286" lon="1.83394">
        <ele>72.54</ele>
        <time>2022-08-14T09:43:41Z</time>
      </trkpt>
      <trkpt lat="49.16286" lon="1.83397">
        <ele>73.22</ele>
        <time>2022-08-14T09:43:53Z</time>
      </trkpt>
      <trkpt lat="49.1629" lon="1.83398">
        <ele>72.91</ele>
        <time>2022-08-14T09:44:13Z</time>
      </trkpt>
      <trkpt lat="49.16296" lon="1.83396">
        <ele>72.73</ele>
        <time>2022-08-14T09:44:29Z</time>
      </trkpt>
      <trkpt lat="49.16302" lon="1.83388">
        <ele>73.34</ele>
        <time>2022-08-14T09:44:43Z</time>
      </trkpt>
      <trkpt lat="49.16305" lon="1.83385">
        <ele>73.56</ele>
        <time>2022-08-14T09:45:00Z</time>
      </trkpt>
      <trkpt lat="49.16302" lon="1.83385">
        <ele>73.15</ele>
        <time>2022-08-14T09:45:17Z</time>
      </trkpt>
      <trkpt lat="49.16305" lon="1.83388">
        <ele>73.41</ele>
        <time>2022-08-14T09:45:33Z</time>
      </trkpt>
      <trkpt lat="49.16306" lon="1.83391">
        <ele>73.39</ele>
        <time>2022-08-14T09:45:46Z</time>
      </trkpt>
      <trkpt lat="49.16305" lon="1.8338">
        <ele>73.82</ele>
        <time>2022-08-14T09:45:57Z</time>
      </trkpt>
      <trkpt lat="49.16302" lon="1.83366">
        <ele>74.42</ele>
        <time>2022-08-14T09:46:13Z</time>
      </trkpt>
      <trkpt lat="49.16302" lon="1.83353">
        <ele>75.03</ele>
        <time>2022-08-14T09:46:30Z</time>
      </trkpt>
      <trkpt lat="49.1631" lon="1.83344">
        <ele>75.92</ele>
        <time>2022-08-14T09:46:45Z</time>
      </trkpt>
      <trkpt lat="49.16312" lon="1.83335">
        <ele>76.12</ele>
        <time>2022-08-14T09:46:59Z</time>
      </trkpt>
      <trkpt lat="49.16317" lon="1.83336">
        <ele>76.5</ele>
        <time>2022-08-14T09:47:11Z</time>
      </trkpt>
      <trkpt lat="49.16323" lon="1.83337">
        <ele>76.42</ele>
        <time>2022-08-14T09:47:17Z</time>
      </trkpt>
      <trkpt lat="49.16331" lon="1.83341">
        <ele>76.08</ele>
        <time>2022-08-14T09:47:29Z</time>
      </trkpt>
      <trkpt lat="49.16335" lon="1.83343">
        <ele>75.86</ele>
        <time>2022-08-14T09:47:45Z</time>
      </trkpt>
      <trkpt lat="49.1634" lon="1.83344">
        <ele>76.09</ele>
        <time>2022-08-14T09:48:01Z</time>
      </trkpt>
      <trkpt lat="49.16344" lon="1.83343">
        <ele>76.37</ele>
        <time>2022-08-14T09:48:22Z</time>
      </trkpt>
      <trkpt lat="49.16357" lon="1.8335">
        <ele>76.18</ele>
        <time>2022-08-14T09:48:38Z</time>
      </trkpt>
      <trkpt lat="49.16364" lon="1.83354">
        <ele>76.14</ele>
        <time>2022-08-14T09:48:50Z</time>
      </trkpt>
      <trkpt lat="49.1637" lon="1.83357">
        <ele>76.04</ele>
        <time>2022-08-14T09:49:06Z</time>
      </trkpt>
      <trkpt lat="49.1637" lon="1.83361">
        <ele>76.14</ele>
        <time>2022-08-14T09:49:27Z</time>
      </trkpt>
      <trkpt lat="49.16378" lon="1.83362">
        <ele>76.47</ele>
        <time>2022-08-14T09:49:44Z</time>
      </trkpt>
      <trkpt lat="49.16383" lon="1.83363">
        <ele>75.97</ele>
        <time>2022-08-14T09:50:01Z</time>
      </trkpt>
      <trkpt lat="49.16395" lon="1.83365">
        <ele>76.79</ele>
        <time>2022-08-14T09:50:17Z</time>
      </trkpt>
      <trkpt lat="49.16411" lon="1.83368">
        <ele>77.21</ele>
        <time>2022-08-14T09:50:36Z</time>
      </trkpt>
      <trkpt lat="49.16428" lon="1.83378">
        <ele>77.47</ele>
        <time>2022-08-14T09:50:54Z</time>
      </trkpt>
      <trkpt lat="49.16445" lon="1.83386">
        <ele>77.83</ele>
        <time>2022-08-14T09:51:09Z</time>
      </trkpt>
      <trkpt lat="49.16455" lon="1.83392">
        <ele>78</ele>
        <time>2022-08-14T09:51:21Z</time>
      </trkpt>
      <trkpt lat="49.1647" lon="1.834">
        <ele>78.13</ele>
        <time>2022-08-14T09:51:38Z</time>
      </trkpt>
      <trkpt lat="49.16488" lon="1.83409">
        <ele>78.57</ele>
        <time>2022-08-14T09:51:58Z</time>
      </trkpt>
      <trkpt lat="49.16505" lon="1.83417">
        <ele>77.6</ele>
        <time>2022-08-14T09:52:13Z</time>
      </trkpt>
      <trkpt lat="49.16517" lon="1.83425">
        <ele>79.28</ele>
        <time>2022-08-14T09:52:28Z</time>
      </trkpt>
      <trkpt lat="49.16527" lon="1.83444">
        <ele>79.98</ele>
        <time>2022-08-14T09:52:47Z</time>
      </trkpt>
      <trkpt lat="49.16535" lon="1.83465">
        <ele>80.82</ele>
        <time>2022-08-14T09:53:04Z</time>
      </trkpt>
      <trkpt lat="49.16545" lon="1.83486">
        <ele>80.96</ele>
        <time>2022-08-14T09:53:19Z</time>
      </trkpt>
      <trkpt lat="49.16554" lon="1.83507">
        <ele>81.46</ele>
        <time>2022-08-14T09:53:35Z</time>
      </trkpt>
      <trkpt lat="49.16566" lon="1.83525">
        <ele>81.61</ele>
        <time>2022-08-14T09:53:52Z</time>
      </trkpt>
      <trkpt lat="49.16585" lon="1.83541">
        <ele>81.9</ele>
        <time>2022-08-14T09:54:11Z</time>
      </trkpt>
      <trkpt lat="49.16596" lon="1.83546">
        <ele>81.7</ele>
        <time>2022-08-14T09:54:25Z</time>
      </trkpt>
      <trkpt lat="49.16605" lon="1.83548">
        <ele>81.08</ele>
        <time>2022-08-14T09:54:35Z</time>
      </trkpt>
      <trkpt lat="49.16606" lon="1.83548">
        <ele>81.05</ele>
        <time>2022-08-14T09:54:36Z</time>
      </trkpt>
      <trkpt lat="49.16625" lon="1.8355">
        <ele>81.26</ele>
        <time>2022-08-14T09:54:52Z</time>
      </trkpt>
      <trkpt lat="49.1663" lon="1.83552">
        <ele>81.11</ele>
        <time>2022-08-14T09:54:56Z</time>
      </trkpt>
      <trkpt lat="49.16633" lon="1.83551">
        <ele>81.36</ele>
        <time>2022-08-14T09:54:59Z</time>
      </trkpt>
      <trkpt lat="49.16634" lon="1.83549">
        <ele>80.83</ele>
        <time>2022-08-14T09:55:01Z</time>
      </trkpt>
      <trkpt lat="49.16646" lon="1.83546">
        <ele>81.16</ele>
        <time>2022-08-14T09:55:12Z</time>
      </trkpt>
      <trkpt lat="49.16656" lon="1.83542">
        <ele>81.16</ele>
        <time>2022-08-14T09:55:21Z</time>
      </trkpt>
      <trkpt lat="49.1667" lon="1.8354">
        <ele>80.86</ele>
        <time>2022-08-14T09:55:33Z</time>
      </trkpt>
      <trkpt lat="49.1669" lon="1.83539">
        <ele>81.05</ele>
        <time>2022-08-14T09:55:50Z</time>
      </trkpt>
      <trkpt lat="49.16698" lon="1.83541">
        <ele>81.74</ele>
        <time>2022-08-14T09:55:58Z</time>
      </trkpt>
      <trkpt lat="49.1671" lon="1.83538">
        <ele>81.14</ele>
        <time>2022-08-14T09:56:11Z</time>
      </trkpt>
      <trkpt lat="49.16716" lon="1.83538">
        <ele>82.03</ele>
        <time>2022-08-14T09:56:20Z</time>
      </trkpt>
      <trkpt lat="49.16724" lon="1.83542">
        <ele>81.48</ele>
        <time>2022-08-14T09:56:32Z</time>
      </trkpt>
      <trkpt lat="49.16739" lon="1.83544">
        <ele>80.82</ele>
        <time>2022-08-14T09:56:42Z</time>
      </trkpt>
      <trkpt lat="49.16755" lon="1.83551">
        <ele>80.29</ele>
        <time>2022-08-14T09:56:59Z</time>
      </trkpt>
      <trkpt lat="49.16779" lon="1.83563">
        <ele>80.26</ele>
        <time>2022-08-14T09:57:19Z</time>
      </trkpt>
      <trkpt lat="49.16799" lon="1.83569">
        <ele>79.88</ele>
        <time>2022-08-14T09:57:37Z</time>
      </trkpt>
      <trkpt lat="49.168" lon="1.8357">
        <ele>79.66</ele>
        <time>2022-08-14T09:57:40Z</time>
      </trkpt>
      <trkpt lat="49.16813" lon="1.83579">
        <ele>80.73</ele>
        <time>2022-08-14T09:57:56Z</time>
      </trkpt>
      <trkpt lat="49.16834" lon="1.83585">
        <ele>80.72</ele>
        <time>2022-08-14T09:58:15Z</time>
      </trkpt>
      <trkpt lat="49.16851" lon="1.83587">
        <ele>80.6</ele>
        <time>2022-08-14T09:58:28Z</time>
      </trkpt>
      <trkpt lat="49.16859" lon="1.83587">
        <ele>80.36</ele>
        <time>2022-08-14T09:58:36Z</time>
      </trkpt>
      <trkpt lat="49.16883" lon="1.83586">
        <ele>81.36</ele>
        <time>2022-08-14T09:58:57Z</time>
      </trkpt>
      <trkpt lat="49.16904" lon="1.83586">
        <ele>81.51</ele>
        <time>2022-08-14T09:59:13Z</time>
      </trkpt>
      <trkpt lat="49.16918" lon="1.83586">
        <ele>82.52</ele>
        <time>2022-08-14T09:59:30Z</time>
      </trkpt>
      <trkpt lat="49.16932" lon="1.83588">
        <ele>83.34</ele>
        <time>2022-08-14T09:59:44Z</time>
      </trkpt>
      <trkpt lat="49.16949" lon="1.83593">
        <ele>83.28</ele>
        <time>2022-08-14T09:59:59Z</time>
      </trkpt>
      <trkpt lat="49.16963" lon="1.83594">
        <ele>82.82</ele>
        <time>2022-08-14T10:00:11Z</time>
      </trkpt>
      <trkpt lat="49.16976" lon="1.83595">
        <ele>82.82</ele>
        <time>2022-08-14T10:00:31Z</time>
      </trkpt>
      <trkpt lat="49.16989" lon="1.836">
        <ele>82.51</ele>
        <time>2022-08-14T10:00:49Z</time>
      </trkpt>
      <trkpt lat="49.16996" lon="1.83606">
        <ele>83.49</ele>
        <time>2022-08-14T10:01:02Z</time>
      </trkpt>
      <trkpt lat="49.16997" lon="1.83607">
        <ele>84.09</ele>
        <time>2022-08-14T10:01:04Z</time>
      </trkpt>
      <trkpt lat="49.17017" lon="1.83621">
        <ele>84.84</ele>
        <time>2022-08-14T10:01:20Z</time>
      </trkpt>
      <trkpt lat="49.17031" lon="1.83634">
        <ele>85.31</ele>
        <time>2022-08-14T10:01:35Z</time>
      </trkpt>
      <trkpt lat="49.17041" lon="1.83646">
        <ele>85.56</ele>
        <time>2022-08-14T10:01:50Z</time>
      </trkpt>
      <trkpt lat="49.17045" lon="1.8365">
        <ele>85.78</ele>
        <time>2022-08-14T10:01:57Z</time>
      </trkpt>
      <trkpt lat="49.17056" lon="1.83664">
        <ele>85.15</ele>
        <time>2022-08-14T10:02:16Z</time>
      </trkpt>
      <trkpt lat="49.17071" lon="1.83675">
        <ele>84.66</ele>
        <time>2022-08-14T10:02:33Z</time>
      </trkpt>
      <trkpt lat="49.17081" lon="1.83685">
        <ele>84.93</ele>
        <time>2022-08-14T10:02:49Z</time>
      </trkpt>
      <trkpt lat="49.171" lon="1.83698">
        <ele>85.17</ele>
        <time>2022-08-14T10:03:07Z</time>
      </trkpt>
      <trkpt lat="49.17107" lon="1.83707">
        <ele>85.64</ele>
        <time>2022-08-14T10:03:17Z</time>
      </trkpt>
      <trkpt lat="49.17119" lon="1.83725">
        <ele>85.9</ele>
        <time>2022-08-14T10:03:37Z</time>
      </trkpt>
      <trkpt lat="49.17133" lon="1.83735">
        <ele>85.24</ele>
        <time>2022-08-14T10:03:51Z</time>
      </trkpt>
      <trkpt lat="49.17146" lon="1.83748">
        <ele>85.34</ele>
        <time>2022-08-14T10:04:09Z</time>
      </trkpt>
      <trkpt lat="49.17155" lon="1.8376">
        <ele>84.72</ele>
        <time>2022-08-14T10:04:27Z</time>
      </trkpt>
      <trkpt lat="49.17179" lon="1.83765">
        <ele>84.99</ele>
        <time>2022-08-14T10:04:42Z</time>
      </trkpt>
      <trkpt lat="49.17187" lon="1.83767">
        <ele>85.19</ele>
        <time>2022-08-14T10:04:51Z</time>
      </trkpt>
      <trkpt lat="49.17194" lon="1.8377">
        <ele>84.94</ele>
        <time>2022-08-14T10:04:59Z</time>
      </trkpt>
      <trkpt lat="49.17196" lon="1.83772">
        <ele>85.16</ele>
        <time>2022-08-14T10:05:01Z</time>
      </trkpt>
      <trkpt lat="49.17207" lon="1.83775">
        <ele>85.13</ele>
        <time>2022-08-14T10:05:15Z</time>
      </trkpt>
      <trkpt lat="49.17211" lon="1.83778">
        <ele>85.04</ele>
        <time>2022-08-14T10:05:34Z</time>
      </trkpt>
      <trkpt lat="49.17222" lon="1.83778">
        <ele>85.27</ele>
        <time>2022-08-14T10:05:49Z</time>
      </trkpt>
      <trkpt lat="49.17223" lon="1.83778">
        <ele>85.4</ele>
        <time>2022-08-14T10:05:50Z</time>
      </trkpt>
      <trkpt lat="49.17236" lon="1.83782">
        <ele>84.39</ele>
        <time>2022-08-14T10:06:02Z</time>
      </trkpt>
      <trkpt lat="49.17245" lon="1.83783">
        <ele>84.65</ele>
        <time>2022-08-14T10:06:09Z</time>
      </trkpt>
      <trkpt lat="49.1726" lon="1.83784">
        <ele>84.13</ele>
        <time>2022-08-14T10:06:20Z</time>
      </trkpt>
      <trkpt lat="49.17285" lon="1.83783">
        <ele>82.89</ele>
        <time>2022-08-14T10:06:35Z</time>
      </trkpt>
      <trkpt lat="49.17291" lon="1.83781">
        <ele>84.17</ele>
        <time>2022-08-14T10:06:47Z</time>
      </trkpt>
      <trkpt lat="49.17292" lon="1.83781">
        <ele>84.85</ele>
        <time>2022-08-14T10:07:03Z</time>
      </trkpt>
      <trkpt lat="49.17291" lon="1.83782">
        <ele>84.83</ele>
        <time>2022-08-14T10:07:26Z</time>
      </trkpt>
      <trkpt lat="49.17291" lon="1.83781">
        <ele>84.81</ele>
        <time>2022-08-14T10:07:46Z</time>
      </trkpt>
      <trkpt lat="49.1729" lon="1.83777">
        <ele>84.75</ele>
        <time>2022-08-14T10:08:10Z</time>
      </trkpt>
      <trkpt lat="49.17282" lon="1.83787">
        <ele>85.87</ele>
        <time>2022-08-14T10:08:26Z</time>
      </trkpt>
      <trkpt lat="49.1728" lon="1.83789">
        <ele>85.93</ele>
        <time>2022-08-14T10:08:38Z</time>
      </trkpt>
      <trkpt lat="49.17279" lon="1.83793">
        <ele>85.72</ele>
        <time>2022-08-14T10:09:00Z</time>
      </trkpt>
      <trkpt lat="49.17284" lon="1.83781">
        <ele>85.53</ele>
        <time>2022-08-14T10:09:11Z</time>
      </trkpt>
      <trkpt lat="49.17288" lon="1.83778">
        <ele>86.17</ele>
        <time>2022-08-14T10:09:15Z</time>
      </trkpt>
      <trkpt lat="49.17292" lon="1.83772">
        <ele>85.58</ele>
        <time>2022-08-14T10:09:24Z</time>
      </trkpt>
      <trkpt lat="49.17298" lon="1.83764">
        <ele>85.7</ele>
        <time>2022-08-14T10:09:36Z</time>
      </trkpt>
      <trkpt lat="49.17302" lon="1.83758">
        <ele>86.02</ele>
        <time>2022-08-14T10:09:41Z</time>
      </trkpt>
      <trkpt lat="49.17309" lon="1.83746">
        <ele>85.36</ele>
        <time>2022-08-14T10:09:52Z</time>
      </trkpt>
      <trkpt lat="49.1731" lon="1.83744">
        <ele>85.23</ele>
        <time>2022-08-14T10:09:54Z</time>
      </trkpt>
      <trkpt lat="49.17315" lon="1.8373">
        <ele>85.57</ele>
        <time>2022-08-14T10:10:04Z</time>
      </trkpt>
      <trkpt lat="49.17317" lon="1.83723">
        <ele>85.27</ele>
        <time>2022-08-14T10:10:10Z</time>
      </trkpt>
      <trkpt lat="49.17317" lon="1.83708">
        <ele>85.85</ele>
        <time>2022-08-14T10:10:22Z</time>
      </trkpt>
      <trkpt lat="49.17318" lon="1.83695">
        <ele>86.26</ele>
        <time>2022-08-14T10:10:32Z</time>
      </trkpt>
      <trkpt lat="49.17319" lon="1.83682">
        <ele>87.53</ele>
        <time>2022-08-14T10:10:44Z</time>
      </trkpt>
      <trkpt lat="49.1732" lon="1.8367">
        <ele>88.05</ele>
        <time>2022-08-14T10:10:56Z</time>
      </trkpt>
      <trkpt lat="49.17323" lon="1.83658">
        <ele>89.59</ele>
        <time>2022-08-14T10:11:09Z</time>
      </trkpt>
      <trkpt lat="49.17327" lon="1.83648">
        <ele>90.73</ele>
        <time>2022-08-14T10:11:20Z</time>
      </trkpt>
      <trkpt lat="49.17331" lon="1.83635">
        <ele>91.63</ele>
        <time>2022-08-14T10:11:35Z</time>
      </trkpt>
      <trkpt lat="49.17334" lon="1.83625">
        <ele>91.56</ele>
        <time>2022-08-14T10:11:44Z</time>
      </trkpt>
      <trkpt lat="49.17336" lon="1.83615">
        <ele>91.99</ele>
        <time>2022-08-14T10:11:53Z</time>
      </trkpt>
      <trkpt lat="49.17337" lon="1.83612">
        <ele>91.82</ele>
        <time>2022-08-14T10:11:56Z</time>
      </trkpt>
      <trkpt lat="49.17339" lon="1.836">
        <ele>92.56</ele>
        <time>2022-08-14T10:12:05Z</time>
      </trkpt>
      <trkpt lat="49.17339" lon="1.83597">
        <ele>93.39</ele>
        <time>2022-08-14T10:12:07Z</time>
      </trkpt>
      <trkpt lat="49.17339" lon="1.83594">
        <ele>92.61</ele>
        <time>2022-08-14T10:12:09Z</time>
      </trkpt>
      <trkpt lat="49.17341" lon="1.83585">
        <ele>93.02</ele>
        <time>2022-08-14T10:12:16Z</time>
      </trkpt>
      <trkpt lat="49.17342" lon="1.83579">
        <ele>93.12</ele>
        <time>2022-08-14T10:12:20Z</time>
      </trkpt>
      <trkpt lat="49.17343" lon="1.8357">
        <ele>93.82</ele>
        <time>2022-08-14T10:12:27Z</time>
      </trkpt>
      <trkpt lat="49.17344" lon="1.83558">
        <ele>95.23</ele>
        <time>2022-08-14T10:12:37Z</time>
      </trkpt>
      <trkpt lat="49.17345" lon="1.83546">
        <ele>95.69</ele>
        <time>2022-08-14T10:12:46Z</time>
      </trkpt>
      <trkpt lat="49.17345" lon="1.83533">
        <ele>96.77</ele>
        <time>2022-08-14T10:12:56Z</time>
      </trkpt>
      <trkpt lat="49.17344" lon="1.83519">
        <ele>97.17</ele>
        <time>2022-08-14T10:13:07Z</time>
      </trkpt>
      <trkpt lat="49.17345" lon="1.83516">
        <ele>98.59</ele>
        <time>2022-08-14T10:13:11Z</time>
      </trkpt>
      <trkpt lat="49.17343" lon="1.83511">
        <ele>98.75</ele>
        <time>2022-08-14T10:13:27Z</time>
      </trkpt>
      <trkpt lat="49.17342" lon="1.8351">
        <ele>97.71</ele>
        <time>2022-08-14T10:13:35Z</time>
      </trkpt>
      <trkpt lat="49.17342" lon="1.83503">
        <ele>98.11</ele>
        <time>2022-08-14T10:13:42Z</time>
      </trkpt>
      <trkpt lat="49.17342" lon="1.83497">
        <ele>97.68</ele>
        <time>2022-08-14T10:13:46Z</time>
      </trkpt>
      <trkpt lat="49.17341" lon="1.83481">
        <ele>98.75</ele>
        <time>2022-08-14T10:13:56Z</time>
      </trkpt>
      <trkpt lat="49.17343" lon="1.83465">
        <ele>99.35</ele>
        <time>2022-08-14T10:14:06Z</time>
      </trkpt>
      <trkpt lat="49.17345" lon="1.83452">
        <ele>99.98</ele>
        <time>2022-08-14T10:14:15Z</time>
      </trkpt>
      <trkpt lat="49.17345" lon="1.83449">
        <ele>100.75</ele>
        <time>2022-08-14T10:14:17Z</time>
      </trkpt>
      <trkpt lat="49.17346" lon="1.83445">
        <ele>100.03</ele>
        <time>2022-08-14T10:14:20Z</time>
      </trkpt>
      <trkpt lat="49.17351" lon="1.83426">
        <ele>101.13</ele>
        <time>2022-08-14T10:14:32Z</time>
      </trkpt>
      <trkpt lat="49.17355" lon="1.83404">
        <ele>101.93</ele>
        <time>2022-08-14T10:14:46Z</time>
      </trkpt>
      <trkpt lat="49.17357" lon="1.83394">
        <ele>102.39</ele>
        <time>2022-08-14T10:14:53Z</time>
      </trkpt>
      <trkpt lat="49.17358" lon="1.83389">
        <ele>102.84</ele>
        <time>2022-08-14T10:14:57Z</time>
      </trkpt>
      <trkpt lat="49.17359" lon="1.83384">
        <ele>102.64</ele>
        <time>2022-08-14T10:15:00Z</time>
      </trkpt>
      <trkpt lat="49.17363" lon="1.83361">
        <ele>104.34</ele>
        <time>2022-08-14T10:15:15Z</time>
      </trkpt>
      <trkpt lat="49.17364" lon="1.83359">
        <ele>104.47</ele>
        <time>2022-08-14T10:15:16Z</time>
      </trkpt>
      <trkpt lat="49.17364" lon="1.83353">
        <ele>102.82</ele>
        <time>2022-08-14T10:15:20Z</time>
      </trkpt>
      <trkpt lat="49.17366" lon="1.83344">
        <ele>103.12</ele>
        <time>2022-08-14T10:15:26Z</time>
      </trkpt>
      <trkpt lat="49.17367" lon="1.83341">
        <ele>102.87</ele>
        <time>2022-08-14T10:15:28Z</time>
      </trkpt>
      <trkpt lat="49.17371" lon="1.83325">
        <ele>103.64</ele>
        <time>2022-08-14T10:15:38Z</time>
      </trkpt>
      <trkpt lat="49.17375" lon="1.83311">
        <ele>104.19</ele>
        <time>2022-08-14T10:15:48Z</time>
      </trkpt>
      <trkpt lat="49.17376" lon="1.83307">
        <ele>104.55</ele>
        <time>2022-08-14T10:15:51Z</time>
      </trkpt>
      <trkpt lat="49.17381" lon="1.83288">
        <ele>105.59</ele>
        <time>2022-08-14T10:16:04Z</time>
      </trkpt>
      <trkpt lat="49.17384" lon="1.83272">
        <ele>105.3</ele>
        <time>2022-08-14T10:16:14Z</time>
      </trkpt>
      <trkpt lat="49.17387" lon="1.83263">
        <ele>104.78</ele>
        <time>2022-08-14T10:16:20Z</time>
      </trkpt>
      <trkpt lat="49.17388" lon="1.83257">
        <ele>105.68</ele>
        <time>2022-08-14T10:16:24Z</time>
      </trkpt>
      <trkpt lat="49.1739" lon="1.83246">
        <ele>105.75</ele>
        <time>2022-08-14T10:16:31Z</time>
      </trkpt>
      <trkpt lat="49.17394" lon="1.83232">
        <ele>104.07</ele>
        <time>2022-08-14T10:16:40Z</time>
      </trkpt>
      <trkpt lat="49.17398" lon="1.83215">
        <ele>106.84</ele>
        <time>2022-08-14T10:16:54Z</time>
      </trkpt>
      <trkpt lat="49.17399" lon="1.83211">
        <ele>105.81</ele>
        <time>2022-08-14T10:16:58Z</time>
      </trkpt>
      <trkpt lat="49.174" lon="1.83203">
        <ele>106.16</ele>
        <time>2022-08-14T10:17:03Z</time>
      </trkpt>
      <trkpt lat="49.17401" lon="1.83198">
        <ele>107.24</ele>
        <time>2022-08-14T10:17:13Z</time>
      </trkpt>
      <trkpt lat="49.17405" lon="1.83181">
        <ele>107.19</ele>
        <time>2022-08-14T10:17:25Z</time>
      </trkpt>
      <trkpt lat="49.17408" lon="1.83172">
        <ele>106.92</ele>
        <time>2022-08-14T10:17:32Z</time>
      </trkpt>
      <trkpt lat="49.17411" lon="1.83157">
        <ele>107.63</ele>
        <time>2022-08-14T10:17:42Z</time>
      </trkpt>
      <trkpt lat="49.17414" lon="1.83146">
        <ele>107.83</ele>
        <time>2022-08-14T10:17:49Z</time>
      </trkpt>
      <trkpt lat="49.17417" lon="1.83134">
        <ele>107.89</ele>
        <time>2022-08-14T10:17:57Z</time>
      </trkpt>
      <trkpt lat="49.17421" lon="1.83122">
        <ele>108.98</ele>
        <time>2022-08-14T10:18:06Z</time>
      </trkpt>
      <trkpt lat="49.17425" lon="1.83103">
        <ele>109.84</ele>
        <time>2022-08-14T10:18:19Z</time>
      </trkpt>
      <trkpt lat="49.17428" lon="1.83093">
        <ele>109.88</ele>
        <time>2022-08-14T10:18:27Z</time>
      </trkpt>
      <trkpt lat="49.17433" lon="1.8308">
        <ele>110.17</ele>
        <time>2022-08-14T10:18:38Z</time>
      </trkpt>
      <trkpt lat="49.17437" lon="1.83065">
        <ele>110.25</ele>
        <time>2022-08-14T10:18:50Z</time>
      </trkpt>
      <trkpt lat="49.1744" lon="1.83055">
        <ele>110.19</ele>
        <time>2022-08-14T10:18:57Z</time>
      </trkpt>
      <trkpt lat="49.17445" lon="1.83042">
        <ele>111.33</ele>
        <time>2022-08-14T10:19:07Z</time>
      </trkpt>
      <trkpt lat="49.17451" lon="1.83027">
        <ele>111.43</ele>
        <time>2022-08-14T10:19:18Z</time>
      </trkpt>
      <trkpt lat="49.17454" lon="1.83017">
        <ele>111.34</ele>
        <time>2022-08-14T10:19:25Z</time>
      </trkpt>
      <trkpt lat="49.17457" lon="1.83011">
        <ele>110.9</ele>
        <time>2022-08-14T10:19:30Z</time>
      </trkpt>
      <trkpt lat="49.17458" lon="1.83006">
        <ele>111.76</ele>
        <time>2022-08-14T10:19:34Z</time>
      </trkpt>
      <trkpt lat="49.17464" lon="1.82992">
        <ele>112.23</ele>
        <time>2022-08-14T10:19:46Z</time>
      </trkpt>
      <trkpt lat="49.17466" lon="1.82986">
        <ele>113.46</ele>
        <time>2022-08-14T10:19:58Z</time>
      </trkpt>
      <trkpt lat="49.17471" lon="1.82976">
        <ele>112.3</ele>
        <time>2022-08-14T10:20:12Z</time>
      </trkpt>
      <trkpt lat="49.17472" lon="1.82973">
        <ele>112.52</ele>
        <time>2022-08-14T10:20:14Z</time>
      </trkpt>
      <trkpt lat="49.17477" lon="1.82966">
        <ele>113.69</ele>
        <time>2022-08-14T10:20:20Z</time>
      </trkpt>
      <trkpt lat="49.17479" lon="1.82962">
        <ele>112.34</ele>
        <time>2022-08-14T10:20:23Z</time>
      </trkpt>
      <trkpt lat="49.17483" lon="1.8295">
        <ele>113.07</ele>
        <time>2022-08-14T10:20:31Z</time>
      </trkpt>
      <trkpt lat="49.17491" lon="1.82935">
        <ele>113.41</ele>
        <time>2022-08-14T10:20:42Z</time>
      </trkpt>
      <trkpt lat="49.175" lon="1.82917">
        <ele>113.91</ele>
        <time>2022-08-14T10:20:57Z</time>
      </trkpt>
      <trkpt lat="49.17501" lon="1.82914">
        <ele>114.63</ele>
        <time>2022-08-14T10:21:09Z</time>
      </trkpt>
      <trkpt lat="49.17506" lon="1.82902">
        <ele>114.22</ele>
        <time>2022-08-14T10:21:20Z</time>
      </trkpt>
      <trkpt lat="49.17515" lon="1.82886">
        <ele>114.57</ele>
        <time>2022-08-14T10:21:33Z</time>
      </trkpt>
      <trkpt lat="49.17525" lon="1.82869">
        <ele>114.75</ele>
        <time>2022-08-14T10:21:46Z</time>
      </trkpt>
      <trkpt lat="49.17536" lon="1.82849">
        <ele>115.07</ele>
        <time>2022-08-14T10:22:02Z</time>
      </trkpt>
      <trkpt lat="49.17539" lon="1.82842">
        <ele>114.99</ele>
        <time>2022-08-14T10:22:08Z</time>
      </trkpt>
      <trkpt lat="49.17547" lon="1.82826">
        <ele>115.39</ele>
        <time>2022-08-14T10:22:21Z</time>
      </trkpt>
      <trkpt lat="49.17555" lon="1.82811">
        <ele>115.12</ele>
        <time>2022-08-14T10:22:33Z</time>
      </trkpt>
      <trkpt lat="49.17565" lon="1.82796">
        <ele>114.69</ele>
        <time>2022-08-14T10:22:46Z</time>
      </trkpt>
      <trkpt lat="49.17576" lon="1.82784">
        <ele>114.77</ele>
        <time>2022-08-14T10:22:57Z</time>
      </trkpt>
      <trkpt lat="49.17576" lon="1.82782">
        <ele>114.44</ele>
        <time>2022-08-14T10:22:58Z</time>
      </trkpt>
      <trkpt lat="49.17581" lon="1.82775">
        <ele>114.1</ele>
        <time>2022-08-14T10:23:04Z</time>
      </trkpt>
      <trkpt lat="49.17592" lon="1.82754">
        <ele>114.18</ele>
        <time>2022-08-14T10:23:19Z</time>
      </trkpt>
      <trkpt lat="49.17598" lon="1.82741">
        <ele>113.63</ele>
        <time>2022-08-14T10:23:28Z</time>
      </trkpt>
      <trkpt lat="49.17602" lon="1.82733">
        <ele>114.02</ele>
        <time>2022-08-14T10:23:34Z</time>
      </trkpt>
      <trkpt lat="49.17604" lon="1.82728">
        <ele>114.7</ele>
        <time>2022-08-14T10:23:38Z</time>
      </trkpt>
      <trkpt lat="49.17607" lon="1.82719">
        <ele>113.6</ele>
        <time>2022-08-14T10:23:44Z</time>
      </trkpt>
      <trkpt lat="49.17613" lon="1.82703">
        <ele>112.99</ele>
        <time>2022-08-14T10:23:56Z</time>
      </trkpt>
      <trkpt lat="49.17615" lon="1.82698">
        <ele>113.37</ele>
        <time>2022-08-14T10:24:00Z</time>
      </trkpt>
      <trkpt lat="49.17618" lon="1.82691">
        <ele>112.66</ele>
        <time>2022-08-14T10:24:05Z</time>
      </trkpt>
      <trkpt lat="49.1762" lon="1.82685">
        <ele>112.36</ele>
        <time>2022-08-14T10:24:09Z</time>
      </trkpt>
      <trkpt lat="49.17623" lon="1.82677">
        <ele>112.5</ele>
        <time>2022-08-14T10:24:14Z</time>
      </trkpt>
      <trkpt lat="49.17624" lon="1.82674">
        <ele>113.23</ele>
        <time>2022-08-14T10:24:16Z</time>
      </trkpt>
      <trkpt lat="49.17628" lon="1.82657">
        <ele>113.48</ele>
        <time>2022-08-14T10:24:27Z</time>
      </trkpt>
      <trkpt lat="49.17634" lon="1.82639">
        <ele>113.93</ele>
        <time>2022-08-14T10:24:39Z</time>
      </trkpt>
      <trkpt lat="49.17639" lon="1.82623">
        <ele>114.3</ele>
        <time>2022-08-14T10:24:50Z</time>
      </trkpt>
      <trkpt lat="49.17644" lon="1.82601">
        <ele>114.65</ele>
        <time>2022-08-14T10:25:05Z</time>
      </trkpt>
      <trkpt lat="49.17651" lon="1.82583">
        <ele>114.9</ele>
        <time>2022-08-14T10:25:17Z</time>
      </trkpt>
      <trkpt lat="49.17656" lon="1.82566">
        <ele>115.18</ele>
        <time>2022-08-14T10:25:28Z</time>
      </trkpt>
      <trkpt lat="49.17661" lon="1.82549">
        <ele>114.27</ele>
        <time>2022-08-14T10:25:40Z</time>
      </trkpt>
      <trkpt lat="49.17666" lon="1.82534">
        <ele>115.33</ele>
        <time>2022-08-14T10:25:50Z</time>
      </trkpt>
      <trkpt lat="49.17671" lon="1.8252">
        <ele>115.42</ele>
        <time>2022-08-14T10:25:59Z</time>
      </trkpt>
      <trkpt lat="49.17677" lon="1.82503">
        <ele>115.02</ele>
        <time>2022-08-14T10:26:11Z</time>
      </trkpt>
      <trkpt lat="49.17681" lon="1.82492">
        <ele>115.4</ele>
        <time>2022-08-14T10:26:19Z</time>
      </trkpt>
      <trkpt lat="49.17686" lon="1.82481">
        <ele>115.82</ele>
        <time>2022-08-14T10:26:28Z</time>
      </trkpt>
      <trkpt lat="49.17693" lon="1.82462">
        <ele>116.44</ele>
        <time>2022-08-14T10:26:41Z</time>
      </trkpt>
      <trkpt lat="49.17693" lon="1.82461">
        <ele>116.26</ele>
        <time>2022-08-14T10:26:42Z</time>
      </trkpt>
      <trkpt lat="49.17699" lon="1.82445">
        <ele>116.2</ele>
        <time>2022-08-14T10:26:53Z</time>
      </trkpt>
      <trkpt lat="49.177" lon="1.82444">
        <ele>115.83</ele>
        <time>2022-08-14T10:26:54Z</time>
      </trkpt>
      <trkpt lat="49.17702" lon="1.82437">
        <ele>115.38</ele>
        <time>2022-08-14T10:26:58Z</time>
      </trkpt>
      <trkpt lat="49.17705" lon="1.82431">
        <ele>114.92</ele>
        <time>2022-08-14T10:27:03Z</time>
      </trkpt>
      <trkpt lat="49.17711" lon="1.82416">
        <ele>115.39</ele>
        <time>2022-08-14T10:27:13Z</time>
      </trkpt>
      <trkpt lat="49.17718" lon="1.82402">
        <ele>115.67</ele>
        <time>2022-08-14T10:27:24Z</time>
      </trkpt>
      <trkpt lat="49.17722" lon="1.82391">
        <ele>117.4</ele>
        <time>2022-08-14T10:27:31Z</time>
      </trkpt>
      <trkpt lat="49.17724" lon="1.82387">
        <ele>116.47</ele>
        <time>2022-08-14T10:27:34Z</time>
      </trkpt>
      <trkpt lat="49.17727" lon="1.82384">
        <ele>115.94</ele>
        <time>2022-08-14T10:27:37Z</time>
      </trkpt>
      <trkpt lat="49.1773" lon="1.82374">
        <ele>116.9</ele>
        <time>2022-08-14T10:27:47Z</time>
      </trkpt>
      <trkpt lat="49.17739" lon="1.82359">
        <ele>116.28</ele>
        <time>2022-08-14T10:27:59Z</time>
      </trkpt>
      <trkpt lat="49.17748" lon="1.82342">
        <ele>116.53</ele>
        <time>2022-08-14T10:28:11Z</time>
      </trkpt>
      <trkpt lat="49.17757" lon="1.82323">
        <ele>115.12</ele>
        <time>2022-08-14T10:28:24Z</time>
      </trkpt>
      <trkpt lat="49.17758" lon="1.8232">
        <ele>116.36</ele>
        <time>2022-08-14T10:28:26Z</time>
      </trkpt>
      <trkpt lat="49.17767" lon="1.823">
        <ele>115.4</ele>
        <time>2022-08-14T10:28:41Z</time>
      </trkpt>
      <trkpt lat="49.17771" lon="1.82292">
        <ele>115.55</ele>
        <time>2022-08-14T10:28:46Z</time>
      </trkpt>
      <trkpt lat="49.17779" lon="1.82274">
        <ele>115.27</ele>
        <time>2022-08-14T10:28:59Z</time>
      </trkpt>
      <trkpt lat="49.17788" lon="1.82258">
        <ele>115.62</ele>
        <time>2022-08-14T10:29:11Z</time>
      </trkpt>
      <trkpt lat="49.17789" lon="1.82256">
        <ele>115.62</ele>
        <time>2022-08-14T10:29:13Z</time>
      </trkpt>
      <trkpt lat="49.17795" lon="1.82241">
        <ele>115.76</ele>
        <time>2022-08-14T10:29:29Z</time>
      </trkpt>
      <trkpt lat="49.17796" lon="1.8224">
        <ele>115.16</ele>
        <time>2022-08-14T10:29:30Z</time>
      </trkpt>
      <trkpt lat="49.178" lon="1.82231">
        <ele>114.58</ele>
        <time>2022-08-14T10:29:36Z</time>
      </trkpt>
      <trkpt lat="49.1781" lon="1.8222">
        <ele>115.28</ele>
        <time>2022-08-14T10:29:49Z</time>
      </trkpt>
      <trkpt lat="49.17811" lon="1.82222">
        <ele>115.6</ele>
        <time>2022-08-14T10:30:03Z</time>
      </trkpt>
      <trkpt lat="49.17812" lon="1.82224">
        <ele>116.25</ele>
        <time>2022-08-14T10:30:19Z</time>
      </trkpt>
      <trkpt lat="49.17815" lon="1.82228">
        <ele>115.84</ele>
        <time>2022-08-14T10:30:34Z</time>
      </trkpt>
      <trkpt lat="49.17816" lon="1.82229">
        <ele>115.89</ele>
        <time>2022-08-14T10:30:35Z</time>
      </trkpt>
      <trkpt lat="49.17819" lon="1.82235">
        <ele>115.65</ele>
        <time>2022-08-14T10:30:40Z</time>
      </trkpt>
      <trkpt lat="49.17829" lon="1.82249">
        <ele>116.17</ele>
        <time>2022-08-14T10:30:52Z</time>
      </trkpt>
      <trkpt lat="49.17833" lon="1.82254">
        <ele>116.41</ele>
        <time>2022-08-14T10:31:01Z</time>
      </trkpt>
      <trkpt lat="49.17834" lon="1.82255">
        <ele>116.19</ele>
        <time>2022-08-14T10:31:02Z</time>
      </trkpt>
      <trkpt lat="49.17835" lon="1.82258">
        <ele>116.41</ele>
        <time>2022-08-14T10:31:04Z</time>
      </trkpt>
      <trkpt lat="49.17841" lon="1.82274">
        <ele>116.34</ele>
        <time>2022-08-14T10:31:18Z</time>
      </trkpt>
      <trkpt lat="49.17847" lon="1.82286">
        <ele>117.02</ele>
        <time>2022-08-14T10:31:29Z</time>
      </trkpt>
      <trkpt lat="49.17854" lon="1.82304">
        <ele>117.4</ele>
        <time>2022-08-14T10:31:42Z</time>
      </trkpt>
      <trkpt lat="49.1786" lon="1.82312">
        <ele>117.29</ele>
        <time>2022-08-14T10:31:54Z</time>
      </trkpt>
      <trkpt lat="49.1786" lon="1.82316">
        <ele>117.44</ele>
        <time>2022-08-14T10:31:57Z</time>
      </trkpt>
      <trkpt lat="49.17862" lon="1.82321">
        <ele>117.56</ele>
        <time>2022-08-14T10:32:02Z</time>
      </trkpt>
      <trkpt lat="49.17868" lon="1.82333">
        <ele>117.79</ele>
        <time>2022-08-14T10:32:13Z</time>
      </trkpt>
      <trkpt lat="49.17869" lon="1.82338">
        <ele>117.48</ele>
        <time>2022-08-14T10:32:17Z</time>
      </trkpt>
      <trkpt lat="49.17874" lon="1.82351">
        <ele>117.98</ele>
        <time>2022-08-14T10:32:29Z</time>
      </trkpt>
      <trkpt lat="49.17876" lon="1.82356">
        <ele>117.75</ele>
        <time>2022-08-14T10:32:33Z</time>
      </trkpt>
      <trkpt lat="49.17882" lon="1.82369">
        <ele>117.9</ele>
        <time>2022-08-14T10:32:45Z</time>
      </trkpt>
      <trkpt lat="49.17886" lon="1.82386">
        <ele>118.63</ele>
        <time>2022-08-14T10:32:58Z</time>
      </trkpt>
      <trkpt lat="49.17891" lon="1.82406">
        <ele>119.14</ele>
        <time>2022-08-14T10:33:12Z</time>
      </trkpt>
      <trkpt lat="49.17891" lon="1.82408">
        <ele>118.37</ele>
        <time>2022-08-14T10:33:13Z</time>
      </trkpt>
      <trkpt lat="49.17896" lon="1.82427">
        <ele>119.39</ele>
        <time>2022-08-14T10:33:27Z</time>
      </trkpt>
      <trkpt lat="49.17898" lon="1.82437">
        <ele>119.33</ele>
        <time>2022-08-14T10:33:36Z</time>
      </trkpt>
      <trkpt lat="49.17904" lon="1.82456">
        <ele>120.03</ele>
        <time>2022-08-14T10:33:49Z</time>
      </trkpt>
      <trkpt lat="49.17909" lon="1.82476">
        <ele>120.73</ele>
        <time>2022-08-14T10:34:02Z</time>
      </trkpt>
      <trkpt lat="49.17916" lon="1.82491">
        <ele>121.19</ele>
        <time>2022-08-14T10:34:14Z</time>
      </trkpt>
      <trkpt lat="49.17922" lon="1.82509">
        <ele>121.62</ele>
        <time>2022-08-14T10:34:27Z</time>
      </trkpt>
      <trkpt lat="49.17924" lon="1.82515">
        <ele>121.72</ele>
        <time>2022-08-14T10:34:36Z</time>
      </trkpt>
      <trkpt lat="49.17926" lon="1.8252">
        <ele>121.81</ele>
        <time>2022-08-14T10:34:43Z</time>
      </trkpt>
      <trkpt lat="49.17934" lon="1.82535">
        <ele>122.14</ele>
        <time>2022-08-14T10:34:55Z</time>
      </trkpt>
      <trkpt lat="49.17943" lon="1.82548">
        <ele>122.72</ele>
        <time>2022-08-14T10:35:07Z</time>
      </trkpt>
      <trkpt lat="49.17951" lon="1.8256">
        <ele>123.56</ele>
        <time>2022-08-14T10:35:19Z</time>
      </trkpt>
      <trkpt lat="49.17954" lon="1.82563">
        <ele>123.76</ele>
        <time>2022-08-14T10:35:22Z</time>
      </trkpt>
      <trkpt lat="49.17958" lon="1.82568">
        <ele>123.2</ele>
        <time>2022-08-14T10:35:28Z</time>
      </trkpt>
      <trkpt lat="49.17969" lon="1.82581">
        <ele>123.04</ele>
        <time>2022-08-14T10:35:41Z</time>
      </trkpt>
      <trkpt lat="49.1798" lon="1.82591">
        <ele>123.18</ele>
        <time>2022-08-14T10:35:53Z</time>
      </trkpt>
      <trkpt lat="49.17992" lon="1.82602">
        <ele>123.96</ele>
        <time>2022-08-14T10:36:06Z</time>
      </trkpt>
      <trkpt lat="49.17994" lon="1.82604">
        <ele>124.31</ele>
        <time>2022-08-14T10:36:09Z</time>
      </trkpt>
      <trkpt lat="49.17998" lon="1.82608">
        <ele>123.81</ele>
        <time>2022-08-14T10:36:14Z</time>
      </trkpt>
      <trkpt lat="49.1801" lon="1.82619">
        <ele>123.47</ele>
        <time>2022-08-14T10:36:26Z</time>
      </trkpt>
      <trkpt lat="49.18015" lon="1.82625">
        <ele>123.39</ele>
        <time>2022-08-14T10:36:31Z</time>
      </trkpt>
      <trkpt lat="49.18019" lon="1.82631">
        <ele>123.55</ele>
        <time>2022-08-14T10:36:39Z</time>
      </trkpt>
      <trkpt lat="49.18022" lon="1.82633">
        <ele>124.28</ele>
        <time>2022-08-14T10:36:42Z</time>
      </trkpt>
      <trkpt lat="49.18034" lon="1.82643">
        <ele>123.84</ele>
        <time>2022-08-14T10:36:55Z</time>
      </trkpt>
      <trkpt lat="49.18039" lon="1.82648">
        <ele>122.95</ele>
        <time>2022-08-14T10:37:00Z</time>
      </trkpt>
      <trkpt lat="49.18042" lon="1.82652">
        <ele>123.31</ele>
        <time>2022-08-14T10:37:04Z</time>
      </trkpt>
      <trkpt lat="49.1805" lon="1.8266">
        <ele>122.96</ele>
        <time>2022-08-14T10:37:12Z</time>
      </trkpt>
      <trkpt lat="49.18058" lon="1.82668">
        <ele>126.26</ele>
        <time>2022-08-14T10:37:20Z</time>
      </trkpt>
      <trkpt lat="49.18061" lon="1.82671">
        <ele>122.98</ele>
        <time>2022-08-14T10:37:23Z</time>
      </trkpt>
      <trkpt lat="49.18074" lon="1.82683">
        <ele>122.27</ele>
        <time>2022-08-14T10:37:36Z</time>
      </trkpt>
      <trkpt lat="49.18083" lon="1.82691">
        <ele>122.34</ele>
        <time>2022-08-14T10:37:46Z</time>
      </trkpt>
      <trkpt lat="49.18096" lon="1.82705">
        <ele>121.68</ele>
        <time>2022-08-14T10:38:01Z</time>
      </trkpt>
      <trkpt lat="49.18105" lon="1.82714">
        <ele>120.93</ele>
        <time>2022-08-14T10:38:12Z</time>
      </trkpt>
      <trkpt lat="49.18116" lon="1.82723">
        <ele>120.57</ele>
        <time>2022-08-14T10:38:23Z</time>
      </trkpt>
      <trkpt lat="49.1813" lon="1.82737">
        <ele>119.84</ele>
        <time>2022-08-14T10:38:38Z</time>
      </trkpt>
      <trkpt lat="49.18142" lon="1.82748">
        <ele>119.59</ele>
        <time>2022-08-14T10:38:50Z</time>
      </trkpt>
      <trkpt lat="49.18152" lon="1.82759">
        <ele>119.56</ele>
        <time>2022-08-14T10:39:00Z</time>
      </trkpt>
      <trkpt lat="49.18163" lon="1.82769">
        <ele>118.79</ele>
        <time>2022-08-14T10:39:12Z</time>
      </trkpt>
      <trkpt lat="49.18177" lon="1.82782">
        <ele>117.78</ele>
        <time>2022-08-14T10:39:26Z</time>
      </trkpt>
      <trkpt lat="49.18188" lon="1.82793">
        <ele>118.26</ele>
        <time>2022-08-14T10:39:38Z</time>
      </trkpt>
      <trkpt lat="49.18198" lon="1.82803">
        <ele>117.63</ele>
        <time>2022-08-14T10:39:49Z</time>
      </trkpt>
      <trkpt lat="49.18212" lon="1.82815">
        <ele>117.77</ele>
        <time>2022-08-14T10:40:03Z</time>
      </trkpt>
      <trkpt lat="49.18225" lon="1.82826">
        <ele>116.99</ele>
        <time>2022-08-14T10:40:16Z</time>
      </trkpt>
      <trkpt lat="49.18237" lon="1.82837">
        <ele>116.74</ele>
        <time>2022-08-14T10:40:29Z</time>
      </trkpt>
      <trkpt lat="49.18237" lon="1.82837">
        <ele>116.85</ele>
        <time>2022-08-14T10:40:30Z</time>
      </trkpt>
      <trkpt lat="49.18242" lon="1.8284">
        <ele>116.85</ele>
        <time>2022-08-14T10:40:34Z</time>
      </trkpt>
      <trkpt lat="49.18255" lon="1.82853">
        <ele>116.35</ele>
        <time>2022-08-14T10:40:49Z</time>
      </trkpt>
      <trkpt lat="49.18263" lon="1.8286">
        <ele>115.27</ele>
        <time>2022-08-14T10:40:57Z</time>
      </trkpt>
      <trkpt lat="49.18266" lon="1.82863">
        <ele>116.82</ele>
        <time>2022-08-14T10:41:00Z</time>
      </trkpt>
      <trkpt lat="49.18278" lon="1.82871">
        <ele>116.11</ele>
        <time>2022-08-14T10:41:12Z</time>
      </trkpt>
      <trkpt lat="49.18293" lon="1.82883">
        <ele>115.07</ele>
        <time>2022-08-14T10:41:27Z</time>
      </trkpt>
      <trkpt lat="49.18309" lon="1.82895">
        <ele>115.11</ele>
        <time>2022-08-14T10:41:42Z</time>
      </trkpt>
      <trkpt lat="49.18319" lon="1.82903">
        <ele>115.16</ele>
        <time>2022-08-14T10:41:51Z</time>
      </trkpt>
      <trkpt lat="49.18325" lon="1.82907">
        <ele>115.78</ele>
        <time>2022-08-14T10:41:57Z</time>
      </trkpt>
      <trkpt lat="49.18333" lon="1.82913">
        <ele>115.51</ele>
        <time>2022-08-14T10:42:06Z</time>
      </trkpt>
      <trkpt lat="49.1834" lon="1.82917">
        <ele>115.46</ele>
        <time>2022-08-14T10:42:12Z</time>
      </trkpt>
      <trkpt lat="49.18353" lon="1.82927">
        <ele>114.88</ele>
        <time>2022-08-14T10:42:25Z</time>
      </trkpt>
      <trkpt lat="49.18367" lon="1.82936">
        <ele>114</ele>
        <time>2022-08-14T10:42:39Z</time>
      </trkpt>
      <trkpt lat="49.1838" lon="1.82944">
        <ele>113.56</ele>
        <time>2022-08-14T10:42:52Z</time>
      </trkpt>
      <trkpt lat="49.18395" lon="1.82952">
        <ele>114.62</ele>
        <time>2022-08-14T10:43:06Z</time>
      </trkpt>
      <trkpt lat="49.18411" lon="1.82959">
        <ele>114.46</ele>
        <time>2022-08-14T10:43:21Z</time>
      </trkpt>
      <trkpt lat="49.18426" lon="1.82967">
        <ele>115.33</ele>
        <time>2022-08-14T10:43:35Z</time>
      </trkpt>
      <trkpt lat="49.18437" lon="1.82972">
        <ele>112.99</ele>
        <time>2022-08-14T10:43:46Z</time>
      </trkpt>
      <trkpt lat="49.18441" lon="1.82973">
        <ele>114.79</ele>
        <time>2022-08-14T10:43:50Z</time>
      </trkpt>
      <trkpt lat="49.18443" lon="1.82975">
        <ele>114.3</ele>
        <time>2022-08-14T10:43:53Z</time>
      </trkpt>
      <trkpt lat="49.18458" lon="1.82981">
        <ele>113.83</ele>
        <time>2022-08-14T10:44:07Z</time>
      </trkpt>
      <trkpt lat="49.1847" lon="1.82984">
        <ele>114.72</ele>
        <time>2022-08-14T10:44:17Z</time>
      </trkpt>
      <trkpt lat="49.18482" lon="1.82987">
        <ele>114.73</ele>
        <time>2022-08-14T10:44:28Z</time>
      </trkpt>
      <trkpt lat="49.1849" lon="1.8299">
        <ele>114.46</ele>
        <time>2022-08-14T10:44:37Z</time>
      </trkpt>
      <trkpt lat="49.18502" lon="1.82995">
        <ele>114.37</ele>
        <time>2022-08-14T10:44:48Z</time>
      </trkpt>
      <trkpt lat="49.18514" lon="1.83">
        <ele>114.52</ele>
        <time>2022-08-14T10:44:59Z</time>
      </trkpt>
      <trkpt lat="49.18519" lon="1.83002">
        <ele>115.3</ele>
        <time>2022-08-14T10:45:03Z</time>
      </trkpt>
      <trkpt lat="49.18531" lon="1.83007">
        <ele>115.03</ele>
        <time>2022-08-14T10:45:15Z</time>
      </trkpt>
      <trkpt lat="49.18544" lon="1.8301">
        <ele>115.92</ele>
        <time>2022-08-14T10:45:27Z</time>
      </trkpt>
      <trkpt lat="49.18551" lon="1.83013">
        <ele>116.12</ele>
        <time>2022-08-14T10:45:34Z</time>
      </trkpt>
      <trkpt lat="49.18563" lon="1.83016">
        <ele>117.27</ele>
        <time>2022-08-14T10:45:45Z</time>
      </trkpt>
      <trkpt lat="49.18566" lon="1.83018">
        <ele>117.24</ele>
        <time>2022-08-14T10:45:49Z</time>
      </trkpt>
      <trkpt lat="49.18576" lon="1.83022">
        <ele>117.91</ele>
        <time>2022-08-14T10:45:59Z</time>
      </trkpt>
      <trkpt lat="49.18584" lon="1.83026">
        <ele>118.48</ele>
        <time>2022-08-14T10:46:09Z</time>
      </trkpt>
      <trkpt lat="49.18594" lon="1.8303">
        <ele>119.26</ele>
        <time>2022-08-14T10:46:21Z</time>
      </trkpt>
      <trkpt lat="49.18608" lon="1.83032">
        <ele>120.35</ele>
        <time>2022-08-14T10:46:37Z</time>
      </trkpt>
      <trkpt lat="49.18615" lon="1.83033">
        <ele>120.3</ele>
        <time>2022-08-14T10:46:48Z</time>
      </trkpt>
      <trkpt lat="49.18618" lon="1.83037">
        <ele>120.65</ele>
        <time>2022-08-14T10:46:57Z</time>
      </trkpt>
      <trkpt lat="49.18612" lon="1.83042">
        <ele>120.42</ele>
        <time>2022-08-14T10:47:09Z</time>
      </trkpt>
      <trkpt lat="49.18611" lon="1.83042">
        <ele>120.6</ele>
        <time>2022-08-14T10:47:26Z</time>
      </trkpt>
      <trkpt lat="49.18612" lon="1.83043">
        <ele>120.13</ele>
        <time>2022-08-14T10:47:45Z</time>
      </trkpt>
      <trkpt lat="49.18612" lon="1.83039">
        <ele>120.44</ele>
        <time>2022-08-14T10:48:07Z</time>
      </trkpt>
      <trkpt lat="49.18609" lon="1.83029">
        <ele>120.66</ele>
        <time>2022-08-14T10:48:21Z</time>
      </trkpt>
      <trkpt lat="49.18603" lon="1.83025">
        <ele>120.75</ele>
        <time>2022-08-14T10:48:34Z</time>
      </trkpt>
      <trkpt lat="49.18606" lon="1.83025">
        <ele>120.22</ele>
        <time>2022-08-14T10:48:52Z</time>
      </trkpt>
      <trkpt lat="49.18612" lon="1.83034">
        <ele>121.21</ele>
        <time>2022-08-14T10:49:03Z</time>
      </trkpt>
      <trkpt lat="49.18615" lon="1.83046">
        <ele>121.06</ele>
        <time>2022-08-14T10:49:17Z</time>
      </trkpt>
      <trkpt lat="49.18615" lon="1.83049">
        <ele>121.38</ele>
        <time>2022-08-14T10:49:37Z</time>
      </trkpt>
      <trkpt lat="49.18616" lon="1.8305">
        <ele>121.68</ele>
        <time>2022-08-14T10:49:53Z</time>
      </trkpt>
      <trkpt lat="49.18617" lon="1.8305">
        <ele>121.29</ele>
        <time>2022-08-14T10:50:14Z</time>
      </trkpt>
      <trkpt lat="49.18619" lon="1.8305">
        <ele>121.9</ele>
        <time>2022-08-14T10:50:35Z</time>
      </trkpt>
      <trkpt lat="49.18619" lon="1.83049">
        <ele>121.61</ele>
        <time>2022-08-14T10:50:53Z</time>
      </trkpt>
      <trkpt lat="49.18619" lon="1.83055">
        <ele>121.34</ele>
        <time>2022-08-14T10:51:11Z</time>
      </trkpt>
      <trkpt lat="49.18616" lon="1.83081">
        <ele>121.53</ele>
        <time>2022-08-14T10:51:24Z</time>
      </trkpt>
      <trkpt lat="49.18615" lon="1.83103">
        <ele>121.78</ele>
        <time>2022-08-14T10:51:37Z</time>
      </trkpt>
      <trkpt lat="49.18615" lon="1.8313">
        <ele>122.36</ele>
        <time>2022-08-14T10:51:52Z</time>
      </trkpt>
      <trkpt lat="49.18615" lon="1.83156">
        <ele>122.17</ele>
        <time>2022-08-14T10:52:07Z</time>
      </trkpt>
      <trkpt lat="49.18615" lon="1.83176">
        <ele>122.45</ele>
        <time>2022-08-14T10:52:21Z</time>
      </trkpt>
      <trkpt lat="49.18619" lon="1.8318">
        <ele>121.88</ele>
        <time>2022-08-14T10:52:25Z</time>
      </trkpt>
      <trkpt lat="49.18635" lon="1.83194">
        <ele>123.36</ele>
        <time>2022-08-14T10:52:42Z</time>
      </trkpt>
      <trkpt lat="49.18646" lon="1.83194">
        <ele>123.53</ele>
        <time>2022-08-14T10:52:54Z</time>
      </trkpt>
      <trkpt lat="49.18663" lon="1.83193">
        <ele>126.2</ele>
        <time>2022-08-14T10:53:11Z</time>
      </trkpt>
      <trkpt lat="49.18674" lon="1.83195">
        <ele>125.16</ele>
        <time>2022-08-14T10:53:21Z</time>
      </trkpt>
      <trkpt lat="49.18676" lon="1.83195">
        <ele>126.46</ele>
        <time>2022-08-14T10:53:23Z</time>
      </trkpt>
      <trkpt lat="49.18688" lon="1.83197">
        <ele>127.89</ele>
        <time>2022-08-14T10:53:35Z</time>
      </trkpt>
      <trkpt lat="49.18691" lon="1.83203">
        <ele>128.35</ele>
        <time>2022-08-14T10:53:45Z</time>
      </trkpt>
      <trkpt lat="49.18692" lon="1.83204">
        <ele>128.49</ele>
        <time>2022-08-14T10:53:57Z</time>
      </trkpt>
      <trkpt lat="49.18697" lon="1.832">
        <ele>129.07</ele>
        <time>2022-08-14T10:54:10Z</time>
      </trkpt>
      <trkpt lat="49.18705" lon="1.83206">
        <ele>129.94</ele>
        <time>2022-08-14T10:54:21Z</time>
      </trkpt>
      <trkpt lat="49.18708" lon="1.83213">
        <ele>131.33</ele>
        <time>2022-08-14T10:54:30Z</time>
      </trkpt>
      <trkpt lat="49.18704" lon="1.83222">
        <ele>133.33</ele>
        <time>2022-08-14T10:54:41Z</time>
      </trkpt>
      <trkpt lat="49.18705" lon="1.83223">
        <ele>136.98</ele>
        <time>2022-08-14T11:43:07Z</time>
      </trkpt>
      <trkpt lat="49.1871" lon="1.83224">
        <ele>137.7</ele>
        <time>2022-08-14T11:43:23Z</time>
      </trkpt>
      <trkpt lat="49.18715" lon="1.83227">
        <ele>138.09</ele>
        <time>2022-08-14T11:43:32Z</time>
      </trkpt>
      <trkpt lat="49.18716" lon="1.83227">
        <ele>138.45</ele>
        <time>2022-08-14T11:43:34Z</time>
      </trkpt>
      <trkpt lat="49.18725" lon="1.83229">
        <ele>137.53</ele>
        <time>2022-08-14T11:44:07Z</time>
      </trkpt>
      <trkpt lat="49.18726" lon="1.83246">
        <ele>137.25</ele>
        <time>2022-08-14T11:46:08Z</time>
      </trkpt>
      <trkpt lat="49.18728" lon="1.83236">
        <ele>137.45</ele>
        <time>2022-08-14T11:46:45Z</time>
      </trkpt>
      <trkpt lat="49.18727" lon="1.83224">
        <ele>136.63</ele>
        <time>2022-08-14T11:47:00Z</time>
      </trkpt>
      <trkpt lat="49.18729" lon="1.83214">
        <ele>136</ele>
        <time>2022-08-14T11:47:17Z</time>
      </trkpt>
      <trkpt lat="49.18728" lon="1.83219">
        <ele>137.03</ele>
        <time>2022-08-14T11:47:36Z</time>
      </trkpt>
      <trkpt lat="49.18733" lon="1.83209">
        <ele>136.27</ele>
        <time>2022-08-14T11:47:53Z</time>
      </trkpt>
      <trkpt lat="49.18733" lon="1.83209">
        <ele>136.28</ele>
        <time>2022-08-14T11:48:09Z</time>
      </trkpt>
      <trkpt lat="49.18736" lon="1.83198">
        <ele>135.7</ele>
        <time>2022-08-14T11:48:22Z</time>
      </trkpt>
      <trkpt lat="49.18742" lon="1.83181">
        <ele>134.51</ele>
        <time>2022-08-14T11:48:41Z</time>
      </trkpt>
      <trkpt lat="49.18747" lon="1.83175">
        <ele>134.6</ele>
        <time>2022-08-14T11:48:53Z</time>
      </trkpt>
      <trkpt lat="49.18753" lon="1.83178">
        <ele>134.47</ele>
        <time>2022-08-14T11:49:08Z</time>
      </trkpt>
      <trkpt lat="49.18756" lon="1.83182">
        <ele>135.86</ele>
        <time>2022-08-14T11:49:14Z</time>
      </trkpt>
      <trkpt lat="49.18761" lon="1.83191">
        <ele>137.44</ele>
        <time>2022-08-14T11:49:25Z</time>
      </trkpt>
      <trkpt lat="49.18763" lon="1.83194">
        <ele>136.6</ele>
        <time>2022-08-14T11:49:39Z</time>
      </trkpt>
      <trkpt lat="49.18768" lon="1.83197">
        <ele>137.71</ele>
        <time>2022-08-14T11:49:52Z</time>
      </trkpt>
      <trkpt lat="49.18779" lon="1.83207">
        <ele>138.97</ele>
        <time>2022-08-14T11:50:07Z</time>
      </trkpt>
      <trkpt lat="49.18785" lon="1.83215">
        <ele>139.79</ele>
        <time>2022-08-14T11:50:20Z</time>
      </trkpt>
      <trkpt lat="49.18788" lon="1.83218">
        <ele>140.13</ele>
        <time>2022-08-14T11:50:24Z</time>
      </trkpt>
      <trkpt lat="49.188" lon="1.8323">
        <ele>140.81</ele>
        <time>2022-08-14T11:50:40Z</time>
      </trkpt>
      <trkpt lat="49.18812" lon="1.83243">
        <ele>142.09</ele>
        <time>2022-08-14T11:50:56Z</time>
      </trkpt>
      <trkpt lat="49.18821" lon="1.83254">
        <ele>142.91</ele>
        <time>2022-08-14T11:51:12Z</time>
      </trkpt>
      <trkpt lat="49.1883" lon="1.83266">
        <ele>145.19</ele>
        <time>2022-08-14T11:51:31Z</time>
      </trkpt>
      <trkpt lat="49.18837" lon="1.83277">
        <ele>146.77</ele>
        <time>2022-08-14T11:51:47Z</time>
      </trkpt>
      <trkpt lat="49.18845" lon="1.83287">
        <ele>148.29</ele>
        <time>2022-08-14T11:52:02Z</time>
      </trkpt>
      <trkpt lat="49.18855" lon="1.833">
        <ele>150.31</ele>
        <time>2022-08-14T11:52:19Z</time>
      </trkpt>
      <trkpt lat="49.18868" lon="1.83319">
        <ele>151.08</ele>
        <time>2022-08-14T11:52:34Z</time>
      </trkpt>
      <trkpt lat="49.18874" lon="1.83325">
        <ele>151.65</ele>
        <time>2022-08-14T11:52:50Z</time>
      </trkpt>
      <trkpt lat="49.18874" lon="1.83328">
        <ele>151.08</ele>
        <time>2022-08-14T11:53:12Z</time>
      </trkpt>
      <trkpt lat="49.18877" lon="1.83342">
        <ele>151.43</ele>
        <time>2022-08-14T11:53:26Z</time>
      </trkpt>
      <trkpt lat="49.18883" lon="1.83359">
        <ele>153.15</ele>
        <time>2022-08-14T11:53:42Z</time>
      </trkpt>
      <trkpt lat="49.18892" lon="1.83371">
        <ele>154.55</ele>
        <time>2022-08-14T11:54:00Z</time>
      </trkpt>
      <trkpt lat="49.18891" lon="1.83397">
        <ele>154.48</ele>
        <time>2022-08-14T11:54:21Z</time>
      </trkpt>
      <trkpt lat="49.18894" lon="1.83413">
        <ele>156.84</ele>
        <time>2022-08-14T11:54:38Z</time>
      </trkpt>
      <trkpt lat="49.18899" lon="1.83427">
        <ele>158.55</ele>
        <time>2022-08-14T11:54:57Z</time>
      </trkpt>
      <trkpt lat="49.18901" lon="1.83431">
        <ele>158.72</ele>
        <time>2022-08-14T11:55:03Z</time>
      </trkpt>
      <trkpt lat="49.18907" lon="1.83455">
        <ele>159.85</ele>
        <time>2022-08-14T11:55:22Z</time>
      </trkpt>
      <trkpt lat="49.18917" lon="1.83473">
        <ele>160.13</ele>
        <time>2022-08-14T11:55:38Z</time>
      </trkpt>
      <trkpt lat="49.18922" lon="1.83499">
        <ele>160.11</ele>
        <time>2022-08-14T11:55:56Z</time>
      </trkpt>
      <trkpt lat="49.18929" lon="1.83521">
        <ele>159.19</ele>
        <time>2022-08-14T11:56:15Z</time>
      </trkpt>
      <trkpt lat="49.1893" lon="1.83536">
        <ele>158.54</ele>
        <time>2022-08-14T11:56:35Z</time>
      </trkpt>
      <trkpt lat="49.18928" lon="1.83552">
        <ele>157.47</ele>
        <time>2022-08-14T11:56:50Z</time>
      </trkpt>
      <trkpt lat="49.18924" lon="1.83573">
        <ele>156.65</ele>
        <time>2022-08-14T11:57:00Z</time>
      </trkpt>
      <trkpt lat="49.18923" lon="1.83578">
        <ele>156.56</ele>
        <time>2022-08-14T11:57:02Z</time>
      </trkpt>
      <trkpt lat="49.18922" lon="1.83605">
        <ele>156.4</ele>
        <time>2022-08-14T11:57:18Z</time>
      </trkpt>
      <trkpt lat="49.18921" lon="1.8361">
        <ele>156.4</ele>
        <time>2022-08-14T11:57:21Z</time>
      </trkpt>
      <trkpt lat="49.18921" lon="1.83626">
        <ele>156.73</ele>
        <time>2022-08-14T11:57:38Z</time>
      </trkpt>
      <trkpt lat="49.18926" lon="1.83654">
        <ele>156.43</ele>
        <time>2022-08-14T11:57:56Z</time>
      </trkpt>
      <trkpt lat="49.18936" lon="1.83677">
        <ele>156.41</ele>
        <time>2022-08-14T11:58:16Z</time>
      </trkpt>
      <trkpt lat="49.18943" lon="1.83698">
        <ele>156.16</ele>
        <time>2022-08-14T11:58:34Z</time>
      </trkpt>
      <trkpt lat="49.18952" lon="1.83732">
        <ele>156.73</ele>
        <time>2022-08-14T11:58:55Z</time>
      </trkpt>
      <trkpt lat="49.18956" lon="1.8376">
        <ele>156.74</ele>
        <time>2022-08-14T11:59:12Z</time>
      </trkpt>
      <trkpt lat="49.18956" lon="1.83793">
        <ele>155.8</ele>
        <time>2022-08-14T11:59:30Z</time>
      </trkpt>
      <trkpt lat="49.18963" lon="1.83817">
        <ele>155.35</ele>
        <time>2022-08-14T11:59:48Z</time>
      </trkpt>
      <trkpt lat="49.1897" lon="1.83845">
        <ele>155.85</ele>
        <time>2022-08-14T12:00:04Z</time>
      </trkpt>
      <trkpt lat="49.18975" lon="1.83872">
        <ele>157.94</ele>
        <time>2022-08-14T12:00:20Z</time>
      </trkpt>
      <trkpt lat="49.18979" lon="1.83896">
        <ele>159.32</ele>
        <time>2022-08-14T12:00:37Z</time>
      </trkpt>
      <trkpt lat="49.18982" lon="1.83906">
        <ele>160.75</ele>
        <time>2022-08-14T12:00:49Z</time>
      </trkpt>
      <trkpt lat="49.18985" lon="1.83913">
        <ele>160.7</ele>
        <time>2022-08-14T12:01:04Z</time>
      </trkpt>
      <trkpt lat="49.18992" lon="1.83918">
        <ele>159.81</ele>
        <time>2022-08-14T12:01:21Z</time>
      </trkpt>
      <trkpt lat="49.18997" lon="1.83927">
        <ele>160.91</ele>
        <time>2022-08-14T12:01:37Z</time>
      </trkpt>
      <trkpt lat="49.19008" lon="1.83937">
        <ele>158.93</ele>
        <time>2022-08-14T12:01:56Z</time>
      </trkpt>
      <trkpt lat="49.19019" lon="1.83946">
        <ele>159.01</ele>
        <time>2022-08-14T12:02:08Z</time>
      </trkpt>
      <trkpt lat="49.19024" lon="1.83949">
        <ele>158.57</ele>
        <time>2022-08-14T12:02:20Z</time>
      </trkpt>
      <trkpt lat="49.19035" lon="1.8396">
        <ele>158.27</ele>
        <time>2022-08-14T12:02:36Z</time>
      </trkpt>
      <trkpt lat="49.19036" lon="1.83975">
        <ele>157.87</ele>
        <time>2022-08-14T12:02:47Z</time>
      </trkpt>
      <trkpt lat="49.19037" lon="1.83994">
        <ele>157.68</ele>
        <time>2022-08-14T12:03:00Z</time>
      </trkpt>
      <trkpt lat="49.19044" lon="1.84015">
        <ele>158.91</ele>
        <time>2022-08-14T12:03:16Z</time>
      </trkpt>
      <trkpt lat="49.1905" lon="1.84035">
        <ele>160.17</ele>
        <time>2022-08-14T12:03:32Z</time>
      </trkpt>
      <trkpt lat="49.1906" lon="1.84043">
        <ele>162.22</ele>
        <time>2022-08-14T12:03:46Z</time>
      </trkpt>
      <trkpt lat="49.19075" lon="1.84048">
        <ele>164.13</ele>
        <time>2022-08-14T12:04:03Z</time>
      </trkpt>
      <trkpt lat="49.19082" lon="1.84061">
        <ele>166.02</ele>
        <time>2022-08-14T12:04:18Z</time>
      </trkpt>
      <trkpt lat="49.19083" lon="1.8408">
        <ele>165.85</ele>
        <time>2022-08-14T12:04:32Z</time>
      </trkpt>
      <trkpt lat="49.19086" lon="1.84097">
        <ele>166.03</ele>
        <time>2022-08-14T12:04:46Z</time>
      </trkpt>
      <trkpt lat="49.19087" lon="1.84116">
        <ele>166.44</ele>
        <time>2022-08-14T12:05:02Z</time>
      </trkpt>
      <trkpt lat="49.19087" lon="1.84126">
        <ele>166.78</ele>
        <time>2022-08-14T12:05:06Z</time>
      </trkpt>
      <trkpt lat="49.19088" lon="1.84141">
        <ele>166.7</ele>
        <time>2022-08-14T12:05:11Z</time>
      </trkpt>
      <trkpt lat="49.19093" lon="1.84149">
        <ele>166.93</ele>
        <time>2022-08-14T12:05:17Z</time>
      </trkpt>
      <trkpt lat="49.19102" lon="1.84161">
        <ele>167.29</ele>
        <time>2022-08-14T12:05:32Z</time>
      </trkpt>
      <trkpt lat="49.19112" lon="1.84169">
        <ele>169.17</ele>
        <time>2022-08-14T12:05:46Z</time>
      </trkpt>
      <trkpt lat="49.19113" lon="1.84171">
        <ele>169.16</ele>
        <time>2022-08-14T12:05:57Z</time>
      </trkpt>
      <trkpt lat="49.19119" lon="1.84175">
        <ele>170.66</ele>
        <time>2022-08-14T12:06:10Z</time>
      </trkpt>
      <trkpt lat="49.19121" lon="1.84177">
        <ele>171.71</ele>
        <time>2022-08-14T12:06:22Z</time>
      </trkpt>
      <trkpt lat="49.19121" lon="1.84181">
        <ele>171.36</ele>
        <time>2022-08-14T12:06:39Z</time>
      </trkpt>
      <trkpt lat="49.19121" lon="1.84186">
        <ele>170.92</ele>
        <time>2022-08-14T12:06:55Z</time>
      </trkpt>
      <trkpt lat="49.19124" lon="1.84198">
        <ele>171.22</ele>
        <time>2022-08-14T12:07:09Z</time>
      </trkpt>
      <trkpt lat="49.19129" lon="1.84206">
        <ele>171.83</ele>
        <time>2022-08-14T12:07:24Z</time>
      </trkpt>
      <trkpt lat="49.19138" lon="1.84229">
        <ele>172.31</ele>
        <time>2022-08-14T12:07:43Z</time>
      </trkpt>
      <trkpt lat="49.19141" lon="1.84244">
        <ele>173.02</ele>
        <time>2022-08-14T12:07:54Z</time>
      </trkpt>
      <trkpt lat="49.19148" lon="1.84259">
        <ele>173.28</ele>
        <time>2022-08-14T12:08:06Z</time>
      </trkpt>
      <trkpt lat="49.19157" lon="1.84279">
        <ele>173.59</ele>
        <time>2022-08-14T12:08:23Z</time>
      </trkpt>
      <trkpt lat="49.19166" lon="1.84302">
        <ele>174.04</ele>
        <time>2022-08-14T12:08:40Z</time>
      </trkpt>
      <trkpt lat="49.19173" lon="1.84323">
        <ele>173.55</ele>
        <time>2022-08-14T12:08:55Z</time>
      </trkpt>
      <trkpt lat="49.19182" lon="1.8434">
        <ele>174.11</ele>
        <time>2022-08-14T12:09:08Z</time>
      </trkpt>
      <trkpt lat="49.19193" lon="1.84351">
        <ele>174.93</ele>
        <time>2022-08-14T12:09:23Z</time>
      </trkpt>
      <trkpt lat="49.19199" lon="1.84358">
        <ele>175.13</ele>
        <time>2022-08-14T12:09:37Z</time>
      </trkpt>
      <trkpt lat="49.19203" lon="1.84362">
        <ele>174.98</ele>
        <time>2022-08-14T12:09:42Z</time>
      </trkpt>
      <trkpt lat="49.19214" lon="1.84367">
        <ele>174.37</ele>
        <time>2022-08-14T12:09:55Z</time>
      </trkpt>
      <trkpt lat="49.19217" lon="1.84369">
        <ele>174.52</ele>
        <time>2022-08-14T12:10:10Z</time>
      </trkpt>
      <trkpt lat="49.19221" lon="1.84372">
        <ele>174.36</ele>
        <time>2022-08-14T12:10:28Z</time>
      </trkpt>
      <trkpt lat="49.19227" lon="1.84381">
        <ele>173.46</ele>
        <time>2022-08-14T12:10:44Z</time>
      </trkpt>
      <trkpt lat="49.1923" lon="1.84387">
        <ele>173.4</ele>
        <time>2022-08-14T12:11:01Z</time>
      </trkpt>
      <trkpt lat="49.19225" lon="1.84402">
        <ele>173.21</ele>
        <time>2022-08-14T12:11:15Z</time>
      </trkpt>
      <trkpt lat="49.19223" lon="1.84412">
        <ele>172.18</ele>
        <time>2022-08-14T12:11:23Z</time>
      </trkpt>
      <trkpt lat="49.19219" lon="1.84429">
        <ele>171.52</ele>
        <time>2022-08-14T12:11:35Z</time>
      </trkpt>
      <trkpt lat="49.19216" lon="1.84445">
        <ele>170.78</ele>
        <time>2022-08-14T12:11:46Z</time>
      </trkpt>
      <trkpt lat="49.19211" lon="1.84464">
        <ele>170.13</ele>
        <time>2022-08-14T12:12:00Z</time>
      </trkpt>
      <trkpt lat="49.19206" lon="1.8449">
        <ele>168.66</ele>
        <time>2022-08-14T12:12:16Z</time>
      </trkpt>
      <trkpt lat="49.19205" lon="1.84498">
        <ele>168.52</ele>
        <time>2022-08-14T12:12:26Z</time>
      </trkpt>
      <trkpt lat="49.19205" lon="1.84508">
        <ele>167.6</ele>
        <time>2022-08-14T12:12:43Z</time>
      </trkpt>
      <trkpt lat="49.19202" lon="1.84531">
        <ele>167.22</ele>
        <time>2022-08-14T12:12:57Z</time>
      </trkpt>
      <trkpt lat="49.19198" lon="1.84555">
        <ele>166.8</ele>
        <time>2022-08-14T12:13:11Z</time>
      </trkpt>
      <trkpt lat="49.19195" lon="1.84573">
        <ele>165.92</ele>
        <time>2022-08-14T12:13:24Z</time>
      </trkpt>
      <trkpt lat="49.19192" lon="1.84587">
        <ele>164.35</ele>
        <time>2022-08-14T12:13:37Z</time>
      </trkpt>
      <trkpt lat="49.1919" lon="1.84593">
        <ele>164.38</ele>
        <time>2022-08-14T12:13:53Z</time>
      </trkpt>
      <trkpt lat="49.19184" lon="1.84619">
        <ele>162.34</ele>
        <time>2022-08-14T12:14:11Z</time>
      </trkpt>
      <trkpt lat="49.1918" lon="1.84639">
        <ele>161.31</ele>
        <time>2022-08-14T12:14:24Z</time>
      </trkpt>
      <trkpt lat="49.19175" lon="1.8466">
        <ele>160.39</ele>
        <time>2022-08-14T12:14:38Z</time>
      </trkpt>
      <trkpt lat="49.1917" lon="1.84678">
        <ele>159.16</ele>
        <time>2022-08-14T12:14:50Z</time>
      </trkpt>
      <trkpt lat="49.19165" lon="1.84695">
        <ele>158.47</ele>
        <time>2022-08-14T12:15:00Z</time>
      </trkpt>
      <trkpt lat="49.19161" lon="1.84713">
        <ele>157.75</ele>
        <time>2022-08-14T12:15:12Z</time>
      </trkpt>
      <trkpt lat="49.19158" lon="1.84728">
        <ele>156.85</ele>
        <time>2022-08-14T12:15:22Z</time>
      </trkpt>
      <trkpt lat="49.19153" lon="1.8475">
        <ele>155.98</ele>
        <time>2022-08-14T12:15:36Z</time>
      </trkpt>
      <trkpt lat="49.19149" lon="1.84768">
        <ele>155.44</ele>
        <time>2022-08-14T12:15:48Z</time>
      </trkpt>
      <trkpt lat="49.19144" lon="1.84786">
        <ele>155.46</ele>
        <time>2022-08-14T12:16:00Z</time>
      </trkpt>
      <trkpt lat="49.19141" lon="1.84801">
        <ele>154.6</ele>
        <time>2022-08-14T12:16:10Z</time>
      </trkpt>
      <trkpt lat="49.19136" lon="1.84816">
        <ele>154.32</ele>
        <time>2022-08-14T12:16:21Z</time>
      </trkpt>
      <trkpt lat="49.19132" lon="1.84834">
        <ele>153.63</ele>
        <time>2022-08-14T12:16:33Z</time>
      </trkpt>
      <trkpt lat="49.19127" lon="1.84856">
        <ele>153.14</ele>
        <time>2022-08-14T12:16:48Z</time>
      </trkpt>
      <trkpt lat="49.19123" lon="1.84875">
        <ele>152.51</ele>
        <time>2022-08-14T12:16:59Z</time>
      </trkpt>
      <trkpt lat="49.19118" lon="1.84892">
        <ele>152.66</ele>
        <time>2022-08-14T12:17:10Z</time>
      </trkpt>
      <trkpt lat="49.19112" lon="1.84917">
        <ele>151.48</ele>
        <time>2022-08-14T12:17:26Z</time>
      </trkpt>
      <trkpt lat="49.19107" lon="1.84932">
        <ele>149.98</ele>
        <time>2022-08-14T12:17:40Z</time>
      </trkpt>
      <trkpt lat="49.19099" lon="1.84948">
        <ele>149.33</ele>
        <time>2022-08-14T12:17:55Z</time>
      </trkpt>
      <trkpt lat="49.19091" lon="1.84963">
        <ele>147.97</ele>
        <time>2022-08-14T12:18:07Z</time>
      </trkpt>
      <trkpt lat="49.19089" lon="1.84966">
        <ele>147.34</ele>
        <time>2022-08-14T12:18:10Z</time>
      </trkpt>
      <trkpt lat="49.1908" lon="1.84981">
        <ele>146.8</ele>
        <time>2022-08-14T12:18:23Z</time>
      </trkpt>
      <trkpt lat="49.19067" lon="1.84996">
        <ele>144.99</ele>
        <time>2022-08-14T12:18:37Z</time>
      </trkpt>
      <trkpt lat="49.19056" lon="1.85008">
        <ele>143.27</ele>
        <time>2022-08-14T12:18:49Z</time>
      </trkpt>
      <trkpt lat="49.19044" lon="1.85021">
        <ele>142.91</ele>
        <time>2022-08-14T12:19:02Z</time>
      </trkpt>
      <trkpt lat="49.19033" lon="1.85033">
        <ele>141.37</ele>
        <time>2022-08-14T12:19:14Z</time>
      </trkpt>
      <trkpt lat="49.19023" lon="1.85044">
        <ele>141.03</ele>
        <time>2022-08-14T12:19:25Z</time>
      </trkpt>
      <trkpt lat="49.19013" lon="1.85052">
        <ele>140.29</ele>
        <time>2022-08-14T12:19:36Z</time>
      </trkpt>
      <trkpt lat="49.19011" lon="1.85052">
        <ele>140.43</ele>
        <time>2022-08-14T12:19:48Z</time>
      </trkpt>
      <trkpt lat="49.1901" lon="1.85054">
        <ele>140.53</ele>
        <time>2022-08-14T12:19:50Z</time>
      </trkpt>
      <trkpt lat="49.19003" lon="1.85062">
        <ele>140.57</ele>
        <time>2022-08-14T12:19:58Z</time>
      </trkpt>
      <trkpt lat="49.18999" lon="1.85065">
        <ele>139.79</ele>
        <time>2022-08-14T12:20:02Z</time>
      </trkpt>
      <trkpt lat="49.18987" lon="1.85078">
        <ele>139.49</ele>
        <time>2022-08-14T12:20:15Z</time>
      </trkpt>
      <trkpt lat="49.18976" lon="1.8509">
        <ele>139.5</ele>
        <time>2022-08-14T12:20:28Z</time>
      </trkpt>
      <trkpt lat="49.1897" lon="1.85096">
        <ele>138.56</ele>
        <time>2022-08-14T12:20:34Z</time>
      </trkpt>
      <trkpt lat="49.18957" lon="1.85107">
        <ele>137.44</ele>
        <time>2022-08-14T12:20:47Z</time>
      </trkpt>
      <trkpt lat="49.18952" lon="1.85112">
        <ele>137.08</ele>
        <time>2022-08-14T12:20:55Z</time>
      </trkpt>
      <trkpt lat="49.18951" lon="1.85115">
        <ele>137.86</ele>
        <time>2022-08-14T12:21:03Z</time>
      </trkpt>
      <trkpt lat="49.18944" lon="1.85127">
        <ele>136.72</ele>
        <time>2022-08-14T12:21:13Z</time>
      </trkpt>
      <trkpt lat="49.18932" lon="1.85138">
        <ele>136.68</ele>
        <time>2022-08-14T12:21:25Z</time>
      </trkpt>
      <trkpt lat="49.18919" lon="1.85152">
        <ele>135.94</ele>
        <time>2022-08-14T12:21:39Z</time>
      </trkpt>
      <trkpt lat="49.18907" lon="1.85164">
        <ele>135.22</ele>
        <time>2022-08-14T12:21:52Z</time>
      </trkpt>
      <trkpt lat="49.18897" lon="1.85175">
        <ele>134.62</ele>
        <time>2022-08-14T12:22:03Z</time>
      </trkpt>
      <trkpt lat="49.18884" lon="1.85186">
        <ele>134.16</ele>
        <time>2022-08-14T12:22:16Z</time>
      </trkpt>
      <trkpt lat="49.18873" lon="1.85199">
        <ele>134.02</ele>
        <time>2022-08-14T12:22:29Z</time>
      </trkpt>
      <trkpt lat="49.18863" lon="1.85208">
        <ele>133.21</ele>
        <time>2022-08-14T12:22:40Z</time>
      </trkpt>
      <trkpt lat="49.18853" lon="1.85217">
        <ele>132.27</ele>
        <time>2022-08-14T12:22:51Z</time>
      </trkpt>
      <trkpt lat="49.18841" lon="1.85229">
        <ele>132.43</ele>
        <time>2022-08-14T12:23:04Z</time>
      </trkpt>
      <trkpt lat="49.18828" lon="1.8524">
        <ele>132.19</ele>
        <time>2022-08-14T12:23:18Z</time>
      </trkpt>
      <trkpt lat="49.18818" lon="1.85247">
        <ele>131.56</ele>
        <time>2022-08-14T12:23:29Z</time>
      </trkpt>
      <trkpt lat="49.18805" lon="1.85256">
        <ele>131.73</ele>
        <time>2022-08-14T12:23:41Z</time>
      </trkpt>
      <trkpt lat="49.18798" lon="1.85263">
        <ele>130.91</ele>
        <time>2022-08-14T12:23:48Z</time>
      </trkpt>
      <trkpt lat="49.18785" lon="1.85272">
        <ele>130.89</ele>
        <time>2022-08-14T12:24:01Z</time>
      </trkpt>
      <trkpt lat="49.18781" lon="1.85276">
        <ele>131.69</ele>
        <time>2022-08-14T12:24:05Z</time>
      </trkpt>
      <trkpt lat="49.18769" lon="1.85284">
        <ele>131.4</ele>
        <time>2022-08-14T12:24:17Z</time>
      </trkpt>
      <trkpt lat="49.18759" lon="1.85291">
        <ele>131.08</ele>
        <time>2022-08-14T12:24:28Z</time>
      </trkpt>
      <trkpt lat="49.18744" lon="1.85301">
        <ele>131.1</ele>
        <time>2022-08-14T12:24:41Z</time>
      </trkpt>
      <trkpt lat="49.18732" lon="1.85311">
        <ele>130.71</ele>
        <time>2022-08-14T12:24:53Z</time>
      </trkpt>
      <trkpt lat="49.18728" lon="1.85315">
        <ele>130.61</ele>
        <time>2022-08-14T12:24:58Z</time>
      </trkpt>
      <trkpt lat="49.18716" lon="1.85325">
        <ele>130.82</ele>
        <time>2022-08-14T12:25:09Z</time>
      </trkpt>
      <trkpt lat="49.18715" lon="1.85328">
        <ele>130.26</ele>
        <time>2022-08-14T12:25:11Z</time>
      </trkpt>
      <trkpt lat="49.18704" lon="1.85332">
        <ele>129.98</ele>
        <time>2022-08-14T12:25:23Z</time>
      </trkpt>
      <trkpt lat="49.18691" lon="1.85341">
        <ele>129.2</ele>
        <time>2022-08-14T12:25:37Z</time>
      </trkpt>
      <trkpt lat="49.18685" lon="1.85344">
        <ele>129.28</ele>
        <time>2022-08-14T12:25:49Z</time>
      </trkpt>
      <trkpt lat="49.18683" lon="1.85347">
        <ele>129</ele>
        <time>2022-08-14T12:26:07Z</time>
      </trkpt>
      <trkpt lat="49.18682" lon="1.85359">
        <ele>128.26</ele>
        <time>2022-08-14T12:26:18Z</time>
      </trkpt>
      <trkpt lat="49.18682" lon="1.85372">
        <ele>128.7</ele>
        <time>2022-08-14T12:26:31Z</time>
      </trkpt>
      <trkpt lat="49.18682" lon="1.85381">
        <ele>128.28</ele>
        <time>2022-08-14T12:26:37Z</time>
      </trkpt>
      <trkpt lat="49.18679" lon="1.85387">
        <ele>127.67</ele>
        <time>2022-08-14T12:26:42Z</time>
      </trkpt>
      <trkpt lat="49.18676" lon="1.85388">
        <ele>127.47</ele>
        <time>2022-08-14T12:26:45Z</time>
      </trkpt>
      <trkpt lat="49.18674" lon="1.85381">
        <ele>128.84</ele>
        <time>2022-08-14T12:26:52Z</time>
      </trkpt>
      <trkpt lat="49.18669" lon="1.85375">
        <ele>128.01</ele>
        <time>2022-08-14T12:27:02Z</time>
      </trkpt>
      <trkpt lat="49.18663" lon="1.85379">
        <ele>128.91</ele>
        <time>2022-08-14T12:27:09Z</time>
      </trkpt>
      <trkpt lat="49.18654" lon="1.85387">
        <ele>129.38</ele>
        <time>2022-08-14T12:27:20Z</time>
      </trkpt>
      <trkpt lat="49.18641" lon="1.85401">
        <ele>129.31</ele>
        <time>2022-08-14T12:27:36Z</time>
      </trkpt>
      <trkpt lat="49.18633" lon="1.85411">
        <ele>129.35</ele>
        <time>2022-08-14T12:27:46Z</time>
      </trkpt>
      <trkpt lat="49.18629" lon="1.85415">
        <ele>129.86</ele>
        <time>2022-08-14T12:27:50Z</time>
      </trkpt>
      <trkpt lat="49.18624" lon="1.85421">
        <ele>129.51</ele>
        <time>2022-08-14T12:27:58Z</time>
      </trkpt>
      <trkpt lat="49.18614" lon="1.85433">
        <ele>130.03</ele>
        <time>2022-08-14T12:28:11Z</time>
      </trkpt>
      <trkpt lat="49.18607" lon="1.85441">
        <ele>129.53</ele>
        <time>2022-08-14T12:28:21Z</time>
      </trkpt>
      <trkpt lat="49.18597" lon="1.8545">
        <ele>129.87</ele>
        <time>2022-08-14T12:28:34Z</time>
      </trkpt>
      <trkpt lat="49.18591" lon="1.85456">
        <ele>130.29</ele>
        <time>2022-08-14T12:28:50Z</time>
      </trkpt>
      <trkpt lat="49.1858" lon="1.85465">
        <ele>130.93</ele>
        <time>2022-08-14T12:29:06Z</time>
      </trkpt>
      <trkpt lat="49.18568" lon="1.85481">
        <ele>131.72</ele>
        <time>2022-08-14T12:29:24Z</time>
      </trkpt>
      <trkpt lat="49.18554" lon="1.85495">
        <ele>131.61</ele>
        <time>2022-08-14T12:29:38Z</time>
      </trkpt>
      <trkpt lat="49.18557" lon="1.85497">
        <ele>131.31</ele>
        <time>2022-08-14T12:29:52Z</time>
      </trkpt>
      <trkpt lat="49.18557" lon="1.85489">
        <ele>131.3</ele>
        <time>2022-08-14T12:30:04Z</time>
      </trkpt>
      <trkpt lat="49.18554" lon="1.85496">
        <ele>131.27</ele>
        <time>2022-08-14T12:30:17Z</time>
      </trkpt>
      <trkpt lat="49.18551" lon="1.855">
        <ele>131.11</ele>
        <time>2022-08-14T12:30:29Z</time>
      </trkpt>
      <trkpt lat="49.18549" lon="1.85505">
        <ele>131.02</ele>
        <time>2022-08-14T12:30:46Z</time>
      </trkpt>
      <trkpt lat="49.18549" lon="1.8551">
        <ele>131.04</ele>
        <time>2022-08-14T12:31:03Z</time>
      </trkpt>
      <trkpt lat="49.18548" lon="1.85505">
        <ele>130.77</ele>
        <time>2022-08-14T12:31:27Z</time>
      </trkpt>
      <trkpt lat="49.18542" lon="1.85516">
        <ele>130.75</ele>
        <time>2022-08-14T12:31:43Z</time>
      </trkpt>
      <trkpt lat="49.18531" lon="1.85535">
        <ele>130.39</ele>
        <time>2022-08-14T12:31:59Z</time>
      </trkpt>
      <trkpt lat="49.18524" lon="1.85548">
        <ele>130.43</ele>
        <time>2022-08-14T12:32:09Z</time>
      </trkpt>
      <trkpt lat="49.18515" lon="1.85562">
        <ele>129.64</ele>
        <time>2022-08-14T12:32:22Z</time>
      </trkpt>
      <trkpt lat="49.18503" lon="1.85577">
        <ele>129.19</ele>
        <time>2022-08-14T12:32:38Z</time>
      </trkpt>
      <trkpt lat="49.18486" lon="1.85594">
        <ele>128.21</ele>
        <time>2022-08-14T12:32:57Z</time>
      </trkpt>
      <trkpt lat="49.18477" lon="1.85613">
        <ele>128.73</ele>
        <time>2022-08-14T12:33:10Z</time>
      </trkpt>
      <trkpt lat="49.18471" lon="1.85621">
        <ele>128.63</ele>
        <time>2022-08-14T12:33:17Z</time>
      </trkpt>
      <trkpt lat="49.18462" lon="1.85636">
        <ele>128.51</ele>
        <time>2022-08-14T12:33:29Z</time>
      </trkpt>
      <trkpt lat="49.18456" lon="1.85649">
        <ele>129.36</ele>
        <time>2022-08-14T12:33:38Z</time>
      </trkpt>
      <trkpt lat="49.18448" lon="1.85664">
        <ele>128.56</ele>
        <time>2022-08-14T12:33:49Z</time>
      </trkpt>
      <trkpt lat="49.1844" lon="1.8568">
        <ele>129.69</ele>
        <time>2022-08-14T12:34:01Z</time>
      </trkpt>
      <trkpt lat="49.18437" lon="1.85685">
        <ele>129.67</ele>
        <time>2022-08-14T12:34:05Z</time>
      </trkpt>
      <trkpt lat="49.18427" lon="1.85701">
        <ele>130.43</ele>
        <time>2022-08-14T12:34:20Z</time>
      </trkpt>
      <trkpt lat="49.18429" lon="1.85711">
        <ele>130.53</ele>
        <time>2022-08-14T12:34:36Z</time>
      </trkpt>
      <trkpt lat="49.1843" lon="1.85719">
        <ele>131.15</ele>
        <time>2022-08-14T12:34:50Z</time>
      </trkpt>
      <trkpt lat="49.18429" lon="1.85725">
        <ele>131.41</ele>
        <time>2022-08-14T12:35:04Z</time>
      </trkpt>
      <trkpt lat="49.1843" lon="1.85733">
        <ele>131.58</ele>
        <time>2022-08-14T12:35:15Z</time>
      </trkpt>
      <trkpt lat="49.18438" lon="1.85739">
        <ele>132.16</ele>
        <time>2022-08-14T12:35:27Z</time>
      </trkpt>
      <trkpt lat="49.18444" lon="1.85745">
        <ele>132.45</ele>
        <time>2022-08-14T12:35:40Z</time>
      </trkpt>
      <trkpt lat="49.1844" lon="1.85743">
        <ele>132.35</ele>
        <time>2022-08-14T12:35:54Z</time>
      </trkpt>
      <trkpt lat="49.18437" lon="1.85744">
        <ele>132.64</ele>
        <time>2022-08-14T12:36:13Z</time>
      </trkpt>
      <trkpt lat="49.18435" lon="1.85743">
        <ele>132.52</ele>
        <time>2022-08-14T12:36:30Z</time>
      </trkpt>
      <trkpt lat="49.18435" lon="1.85742">
        <ele>132.37</ele>
        <time>2022-08-14T12:36:53Z</time>
      </trkpt>
      <trkpt lat="49.18434" lon="1.85739">
        <ele>132.43</ele>
        <time>2022-08-14T12:37:17Z</time>
      </trkpt>
      <trkpt lat="49.18435" lon="1.85744">
        <ele>132.21</ele>
        <time>2022-08-14T12:37:33Z</time>
      </trkpt>
      <trkpt lat="49.18433" lon="1.85745">
        <ele>132.65</ele>
        <time>2022-08-14T12:38:02Z</time>
      </trkpt>
      <trkpt lat="49.18433" lon="1.85744">
        <ele>132.03</ele>
        <time>2022-08-14T12:38:24Z</time>
      </trkpt>
      <trkpt lat="49.18435" lon="1.85746">
        <ele>132.31</ele>
        <time>2022-08-14T12:38:50Z</time>
      </trkpt>
      <trkpt lat="49.18434" lon="1.85745">
        <ele>132.54</ele>
        <time>2022-08-14T12:39:12Z</time>
      </trkpt>
      <trkpt lat="49.18432" lon="1.85748">
        <ele>132.83</ele>
        <time>2022-08-14T12:39:35Z</time>
      </trkpt>
      <trkpt lat="49.18433" lon="1.85748">
        <ele>132.5</ele>
        <time>2022-08-14T12:40:00Z</time>
      </trkpt>
      <trkpt lat="49.18433" lon="1.85748">
        <ele>132.47</ele>
        <time>2022-08-14T12:40:20Z</time>
      </trkpt>
      <trkpt lat="49.18434" lon="1.85744">
        <ele>132.94</ele>
        <time>2022-08-14T12:40:45Z</time>
      </trkpt>
      <trkpt lat="49.18433" lon="1.85743">
        <ele>133.24</ele>
        <time>2022-08-14T12:41:11Z</time>
      </trkpt>
      <trkpt lat="49.18434" lon="1.85745">
        <ele>132.61</ele>
        <time>2022-08-14T12:41:32Z</time>
      </trkpt>
      <trkpt lat="49.18433" lon="1.85743">
        <ele>133.21</ele>
        <time>2022-08-14T12:41:54Z</time>
      </trkpt>
      <trkpt lat="49.18433" lon="1.85742">
        <ele>133.18</ele>
        <time>2022-08-14T12:42:19Z</time>
      </trkpt>
      <trkpt lat="49.18432" lon="1.85742">
        <ele>133.31</ele>
        <time>2022-08-14T12:42:38Z</time>
      </trkpt>
      <trkpt lat="49.18433" lon="1.85743">
        <ele>133.59</ele>
        <time>2022-08-14T12:43:01Z</time>
      </trkpt>
      <trkpt lat="49.18431" lon="1.85743">
        <ele>133.72</ele>
        <time>2022-08-14T12:43:23Z</time>
      </trkpt>
      <trkpt lat="49.18431" lon="1.85739">
        <ele>133.28</ele>
        <time>2022-08-14T12:43:43Z</time>
      </trkpt>
      <trkpt lat="49.18431" lon="1.85737">
        <ele>133.15</ele>
        <time>2022-08-14T12:43:57Z</time>
      </trkpt>
      <trkpt lat="49.18427" lon="1.85737">
        <ele>133.14</ele>
        <time>2022-08-14T12:44:12Z</time>
      </trkpt>
      <trkpt lat="49.18421" lon="1.85726">
        <ele>132.48</ele>
        <time>2022-08-14T12:44:29Z</time>
      </trkpt>
      <trkpt lat="49.18416" lon="1.85719">
        <ele>132.71</ele>
        <time>2022-08-14T12:44:37Z</time>
      </trkpt>
      <trkpt lat="49.18408" lon="1.85715">
        <ele>133.62</ele>
        <time>2022-08-14T12:44:51Z</time>
      </trkpt>
      <trkpt lat="49.18405" lon="1.85713">
        <ele>132.76</ele>
        <time>2022-08-14T12:44:55Z</time>
      </trkpt>
      <trkpt lat="49.18392" lon="1.85711">
        <ele>133.97</ele>
        <time>2022-08-14T12:45:08Z</time>
      </trkpt>
      <trkpt lat="49.18383" lon="1.85713">
        <ele>134.09</ele>
        <time>2022-08-14T12:45:20Z</time>
      </trkpt>
      <trkpt lat="49.1838" lon="1.85713">
        <ele>134.29</ele>
        <time>2022-08-14T12:45:30Z</time>
      </trkpt>
      <trkpt lat="49.18368" lon="1.85712">
        <ele>134.07</ele>
        <time>2022-08-14T12:45:43Z</time>
      </trkpt>
      <trkpt lat="49.18357" lon="1.8571">
        <ele>134.75</ele>
        <time>2022-08-14T12:45:54Z</time>
      </trkpt>
      <trkpt lat="49.18344" lon="1.85708">
        <ele>135.18</ele>
        <time>2022-08-14T12:46:06Z</time>
      </trkpt>
      <trkpt lat="49.1833" lon="1.85712">
        <ele>134.26</ele>
        <time>2022-08-14T12:46:19Z</time>
      </trkpt>
      <trkpt lat="49.18316" lon="1.85717">
        <ele>135.01</ele>
        <time>2022-08-14T12:46:32Z</time>
      </trkpt>
      <trkpt lat="49.18305" lon="1.85722">
        <ele>135.43</ele>
        <time>2022-08-14T12:46:43Z</time>
      </trkpt>
      <trkpt lat="49.18292" lon="1.85728">
        <ele>135.54</ele>
        <time>2022-08-14T12:46:56Z</time>
      </trkpt>
      <trkpt lat="49.18287" lon="1.8573">
        <ele>134.51</ele>
        <time>2022-08-14T12:47:01Z</time>
      </trkpt>
      <trkpt lat="49.18282" lon="1.85731">
        <ele>133.64</ele>
        <time>2022-08-14T12:47:12Z</time>
      </trkpt>
      <trkpt lat="49.1828" lon="1.8573">
        <ele>134.31</ele>
        <time>2022-08-14T12:47:15Z</time>
      </trkpt>
      <trkpt lat="49.18276" lon="1.85733">
        <ele>134.35</ele>
        <time>2022-08-14T12:47:24Z</time>
      </trkpt>
      <trkpt lat="49.18267" lon="1.85737">
        <ele>133.75</ele>
        <time>2022-08-14T12:47:35Z</time>
      </trkpt>
      <trkpt lat="49.18263" lon="1.85739">
        <ele>133.7</ele>
        <time>2022-08-14T12:47:40Z</time>
      </trkpt>
      <trkpt lat="49.18251" lon="1.85746">
        <ele>132.45</ele>
        <time>2022-08-14T12:47:53Z</time>
      </trkpt>
      <trkpt lat="49.1824" lon="1.8575">
        <ele>130.67</ele>
        <time>2022-08-14T12:48:05Z</time>
      </trkpt>
      <trkpt lat="49.18224" lon="1.85756">
        <ele>128.44</ele>
        <time>2022-08-14T12:48:23Z</time>
      </trkpt>
      <trkpt lat="49.1822" lon="1.85763">
        <ele>130.21</ele>
        <time>2022-08-14T12:48:32Z</time>
      </trkpt>
      <trkpt lat="49.18214" lon="1.85762">
        <ele>129.79</ele>
        <time>2022-08-14T12:48:49Z</time>
      </trkpt>
      <trkpt lat="49.1821" lon="1.85765">
        <ele>129.47</ele>
        <time>2022-08-14T12:49:01Z</time>
      </trkpt>
      <trkpt lat="49.182" lon="1.85765">
        <ele>128.23</ele>
        <time>2022-08-14T12:49:11Z</time>
      </trkpt>
      <trkpt lat="49.18187" lon="1.85771">
        <ele>129.22</ele>
        <time>2022-08-14T12:49:23Z</time>
      </trkpt>
      <trkpt lat="49.18174" lon="1.85775">
        <ele>128.24</ele>
        <time>2022-08-14T12:49:37Z</time>
      </trkpt>
      <trkpt lat="49.1817" lon="1.85777">
        <ele>128.19</ele>
        <time>2022-08-14T12:49:46Z</time>
      </trkpt>
      <trkpt lat="49.1816" lon="1.85783">
        <ele>128.52</ele>
        <time>2022-08-14T12:49:58Z</time>
      </trkpt>
      <trkpt lat="49.18151" lon="1.85786">
        <ele>128.73</ele>
        <time>2022-08-14T12:50:12Z</time>
      </trkpt>
      <trkpt lat="49.18146" lon="1.85787">
        <ele>128.65</ele>
        <time>2022-08-14T12:50:24Z</time>
      </trkpt>
      <trkpt lat="49.18132" lon="1.8579">
        <ele>128.31</ele>
        <time>2022-08-14T12:50:37Z</time>
      </trkpt>
      <trkpt lat="49.1812" lon="1.85797">
        <ele>128.01</ele>
        <time>2022-08-14T12:50:51Z</time>
      </trkpt>
      <trkpt lat="49.18112" lon="1.85798">
        <ele>128.39</ele>
        <time>2022-08-14T12:51:04Z</time>
      </trkpt>
      <trkpt lat="49.18097" lon="1.85808">
        <ele>128.01</ele>
        <time>2022-08-14T12:51:17Z</time>
      </trkpt>
      <trkpt lat="49.18081" lon="1.85814">
        <ele>127.11</ele>
        <time>2022-08-14T12:51:31Z</time>
      </trkpt>
      <trkpt lat="49.18065" lon="1.85817">
        <ele>127.16</ele>
        <time>2022-08-14T12:51:45Z</time>
      </trkpt>
      <trkpt lat="49.18046" lon="1.85815">
        <ele>127.73</ele>
        <time>2022-08-14T12:52:02Z</time>
      </trkpt>
      <trkpt lat="49.18033" lon="1.85804">
        <ele>127.2</ele>
        <time>2022-08-14T12:52:17Z</time>
      </trkpt>
      <trkpt lat="49.18022" lon="1.85789">
        <ele>126.01</ele>
        <time>2022-08-14T12:52:35Z</time>
      </trkpt>
      <trkpt lat="49.18008" lon="1.85771">
        <ele>125.54</ele>
        <time>2022-08-14T12:52:51Z</time>
      </trkpt>
      <trkpt lat="49.18" lon="1.85764">
        <ele>124.97</ele>
        <time>2022-08-14T12:52:59Z</time>
      </trkpt>
      <trkpt lat="49.17995" lon="1.8576">
        <ele>125.09</ele>
        <time>2022-08-14T12:53:03Z</time>
      </trkpt>
      <trkpt lat="49.17992" lon="1.85757">
        <ele>124.96</ele>
        <time>2022-08-14T12:53:06Z</time>
      </trkpt>
      <trkpt lat="49.17981" lon="1.85745">
        <ele>124.53</ele>
        <time>2022-08-14T12:53:19Z</time>
      </trkpt>
      <trkpt lat="49.17968" lon="1.85734">
        <ele>124.12</ele>
        <time>2022-08-14T12:53:31Z</time>
      </trkpt>
      <trkpt lat="49.17963" lon="1.85729">
        <ele>123.1</ele>
        <time>2022-08-14T12:53:37Z</time>
      </trkpt>
      <trkpt lat="49.17951" lon="1.85718">
        <ele>122.89</ele>
        <time>2022-08-14T12:53:49Z</time>
      </trkpt>
      <trkpt lat="49.17943" lon="1.85712">
        <ele>123.15</ele>
        <time>2022-08-14T12:53:56Z</time>
      </trkpt>
      <trkpt lat="49.17932" lon="1.85702">
        <ele>122.18</ele>
        <time>2022-08-14T12:54:07Z</time>
      </trkpt>
      <trkpt lat="49.17924" lon="1.85698">
        <ele>121.07</ele>
        <time>2022-08-14T12:54:14Z</time>
      </trkpt>
      <trkpt lat="49.1791" lon="1.85684">
        <ele>121.93</ele>
        <time>2022-08-14T12:54:28Z</time>
      </trkpt>
      <trkpt lat="49.17899" lon="1.85674">
        <ele>121.56</ele>
        <time>2022-08-14T12:54:40Z</time>
      </trkpt>
      <trkpt lat="49.1789" lon="1.85664">
        <ele>121.51</ele>
        <time>2022-08-14T12:54:50Z</time>
      </trkpt>
      <trkpt lat="49.17876" lon="1.85652">
        <ele>120.98</ele>
        <time>2022-08-14T12:55:04Z</time>
      </trkpt>
      <trkpt lat="49.17868" lon="1.85644">
        <ele>121.18</ele>
        <time>2022-08-14T12:55:13Z</time>
      </trkpt>
      <trkpt lat="49.17857" lon="1.85631">
        <ele>121.47</ele>
        <time>2022-08-14T12:55:26Z</time>
      </trkpt>
      <trkpt lat="49.17851" lon="1.85625">
        <ele>121.34</ele>
        <time>2022-08-14T12:55:32Z</time>
      </trkpt>
      <trkpt lat="49.17839" lon="1.85611">
        <ele>120.92</ele>
        <time>2022-08-14T12:55:45Z</time>
      </trkpt>
      <trkpt lat="49.17825" lon="1.85597">
        <ele>120.95</ele>
        <time>2022-08-14T12:56:00Z</time>
      </trkpt>
      <trkpt lat="49.17813" lon="1.85584">
        <ele>120.62</ele>
        <time>2022-08-14T12:56:13Z</time>
      </trkpt>
      <trkpt lat="49.17802" lon="1.85571">
        <ele>120.56</ele>
        <time>2022-08-14T12:56:25Z</time>
      </trkpt>
      <trkpt lat="49.17788" lon="1.85558">
        <ele>120.61</ele>
        <time>2022-08-14T12:56:38Z</time>
      </trkpt>
      <trkpt lat="49.17777" lon="1.85545">
        <ele>119.46</ele>
        <time>2022-08-14T12:56:50Z</time>
      </trkpt>
      <trkpt lat="49.17765" lon="1.85535">
        <ele>120.53</ele>
        <time>2022-08-14T12:57:01Z</time>
      </trkpt>
      <trkpt lat="49.17755" lon="1.85522">
        <ele>120.58</ele>
        <time>2022-08-14T12:57:13Z</time>
      </trkpt>
      <trkpt lat="49.17744" lon="1.8551">
        <ele>119.84</ele>
        <time>2022-08-14T12:57:26Z</time>
      </trkpt>
      <trkpt lat="49.17731" lon="1.85497">
        <ele>120.08</ele>
        <time>2022-08-14T12:57:39Z</time>
      </trkpt>
      <trkpt lat="49.17727" lon="1.85493">
        <ele>119.85</ele>
        <time>2022-08-14T12:57:43Z</time>
      </trkpt>
      <trkpt lat="49.17714" lon="1.85478">
        <ele>120</ele>
        <time>2022-08-14T12:57:58Z</time>
      </trkpt>
      <trkpt lat="49.17709" lon="1.85474">
        <ele>120.11</ele>
        <time>2022-08-14T12:58:03Z</time>
      </trkpt>
      <trkpt lat="49.177" lon="1.85466">
        <ele>120.11</ele>
        <time>2022-08-14T12:58:12Z</time>
      </trkpt>
      <trkpt lat="49.17689" lon="1.85454">
        <ele>120.34</ele>
        <time>2022-08-14T12:58:24Z</time>
      </trkpt>
      <trkpt lat="49.17685" lon="1.85449">
        <ele>119.73</ele>
        <time>2022-08-14T12:58:29Z</time>
      </trkpt>
      <trkpt lat="49.17674" lon="1.8544">
        <ele>119.47</ele>
        <time>2022-08-14T12:58:40Z</time>
      </trkpt>
      <trkpt lat="49.17663" lon="1.85428">
        <ele>119.68</ele>
        <time>2022-08-14T12:58:53Z</time>
      </trkpt>
      <trkpt lat="49.17654" lon="1.85417">
        <ele>118.6</ele>
        <time>2022-08-14T12:59:04Z</time>
      </trkpt>
      <trkpt lat="49.17644" lon="1.85408">
        <ele>118.92</ele>
        <time>2022-08-14T12:59:15Z</time>
      </trkpt>
      <trkpt lat="49.17635" lon="1.85397">
        <ele>118.71</ele>
        <time>2022-08-14T12:59:26Z</time>
      </trkpt>
      <trkpt lat="49.17635" lon="1.85399">
        <ele>119.44</ele>
        <time>2022-08-14T12:59:40Z</time>
      </trkpt>
      <trkpt lat="49.17639" lon="1.85402">
        <ele>119.63</ele>
        <time>2022-08-14T12:59:55Z</time>
      </trkpt>
      <trkpt lat="49.17638" lon="1.85403">
        <ele>119.97</ele>
        <time>2022-08-14T13:00:13Z</time>
      </trkpt>
      <trkpt lat="49.17637" lon="1.854">
        <ele>119.33</ele>
        <time>2022-08-14T13:00:32Z</time>
      </trkpt>
      <trkpt lat="49.17634" lon="1.85397">
        <ele>117.99</ele>
        <time>2022-08-14T13:00:37Z</time>
      </trkpt>
      <trkpt lat="49.17627" lon="1.85389">
        <ele>117.17</ele>
        <time>2022-08-14T13:00:46Z</time>
      </trkpt>
      <trkpt lat="49.17617" lon="1.85379">
        <ele>118.17</ele>
        <time>2022-08-14T13:00:56Z</time>
      </trkpt>
      <trkpt lat="49.17612" lon="1.85372">
        <ele>117.71</ele>
        <time>2022-08-14T13:01:03Z</time>
      </trkpt>
      <trkpt lat="49.17608" lon="1.85368">
        <ele>118.23</ele>
        <time>2022-08-14T13:01:07Z</time>
      </trkpt>
      <trkpt lat="49.17599" lon="1.85357">
        <ele>117.88</ele>
        <time>2022-08-14T13:01:17Z</time>
      </trkpt>
      <trkpt lat="49.17589" lon="1.85343">
        <ele>116.75</ele>
        <time>2022-08-14T13:01:30Z</time>
      </trkpt>
      <trkpt lat="49.17583" lon="1.85336">
        <ele>117.75</ele>
        <time>2022-08-14T13:01:36Z</time>
      </trkpt>
      <trkpt lat="49.17572" lon="1.85324">
        <ele>117.89</ele>
        <time>2022-08-14T13:01:48Z</time>
      </trkpt>
      <trkpt lat="49.17563" lon="1.85313">
        <ele>118.09</ele>
        <time>2022-08-14T13:01:58Z</time>
      </trkpt>
      <trkpt lat="49.17553" lon="1.853">
        <ele>116.89</ele>
        <time>2022-08-14T13:02:09Z</time>
      </trkpt>
      <trkpt lat="49.17549" lon="1.85295">
        <ele>116.16</ele>
        <time>2022-08-14T13:02:14Z</time>
      </trkpt>
      <trkpt lat="49.1754" lon="1.85286">
        <ele>117.97</ele>
        <time>2022-08-14T13:02:25Z</time>
      </trkpt>
      <trkpt lat="49.17527" lon="1.85274">
        <ele>118.24</ele>
        <time>2022-08-14T13:02:39Z</time>
      </trkpt>
      <trkpt lat="49.17514" lon="1.85262">
        <ele>117.08</ele>
        <time>2022-08-14T13:02:53Z</time>
      </trkpt>
      <trkpt lat="49.17506" lon="1.85254">
        <ele>116.44</ele>
        <time>2022-08-14T13:03:03Z</time>
      </trkpt>
      <trkpt lat="49.17501" lon="1.8525">
        <ele>116.87</ele>
        <time>2022-08-14T13:03:08Z</time>
      </trkpt>
      <trkpt lat="49.17499" lon="1.85248">
        <ele>117.08</ele>
        <time>2022-08-14T13:03:10Z</time>
      </trkpt>
      <trkpt lat="49.17497" lon="1.85247">
        <ele>116.99</ele>
        <time>2022-08-14T13:03:13Z</time>
      </trkpt>
      <trkpt lat="49.17486" lon="1.85237">
        <ele>116.51</ele>
        <time>2022-08-14T13:03:24Z</time>
      </trkpt>
      <trkpt lat="49.17477" lon="1.85228">
        <ele>116.49</ele>
        <time>2022-08-14T13:03:34Z</time>
      </trkpt>
      <trkpt lat="49.17468" lon="1.85221">
        <ele>116.73</ele>
        <time>2022-08-14T13:03:43Z</time>
      </trkpt>
      <trkpt lat="49.17457" lon="1.8521">
        <ele>116.29</ele>
        <time>2022-08-14T13:03:55Z</time>
      </trkpt>
      <trkpt lat="49.17449" lon="1.85202">
        <ele>117.44</ele>
        <time>2022-08-14T13:04:02Z</time>
      </trkpt>
      <trkpt lat="49.17439" lon="1.85191">
        <ele>115.53</ele>
        <time>2022-08-14T13:04:13Z</time>
      </trkpt>
      <trkpt lat="49.1743" lon="1.8518">
        <ele>116.7</ele>
        <time>2022-08-14T13:04:23Z</time>
      </trkpt>
      <trkpt lat="49.17421" lon="1.85171">
        <ele>116.92</ele>
        <time>2022-08-14T13:04:34Z</time>
      </trkpt>
      <trkpt lat="49.17417" lon="1.85168">
        <ele>116.33</ele>
        <time>2022-08-14T13:04:38Z</time>
      </trkpt>
      <trkpt lat="49.17411" lon="1.85162">
        <ele>116.51</ele>
        <time>2022-08-14T13:04:44Z</time>
      </trkpt>
      <trkpt lat="49.17397" lon="1.85153">
        <ele>115.78</ele>
        <time>2022-08-14T13:04:59Z</time>
      </trkpt>
      <trkpt lat="49.17385" lon="1.85145">
        <ele>115.6</ele>
        <time>2022-08-14T13:05:11Z</time>
      </trkpt>
      <trkpt lat="49.17374" lon="1.85137">
        <ele>115.48</ele>
        <time>2022-08-14T13:05:22Z</time>
      </trkpt>
      <trkpt lat="49.17362" lon="1.85131">
        <ele>115.75</ele>
        <time>2022-08-14T13:05:33Z</time>
      </trkpt>
      <trkpt lat="49.17355" lon="1.85128">
        <ele>114.9</ele>
        <time>2022-08-14T13:05:39Z</time>
      </trkpt>
      <trkpt lat="49.17347" lon="1.85123">
        <ele>115.32</ele>
        <time>2022-08-14T13:05:49Z</time>
      </trkpt>
      <trkpt lat="49.17345" lon="1.8512">
        <ele>115.33</ele>
        <time>2022-08-14T13:05:52Z</time>
      </trkpt>
      <trkpt lat="49.17341" lon="1.85115">
        <ele>115.68</ele>
        <time>2022-08-14T13:05:56Z</time>
      </trkpt>
      <trkpt lat="49.17337" lon="1.85108">
        <ele>116.59</ele>
        <time>2022-08-14T13:06:02Z</time>
      </trkpt>
      <trkpt lat="49.17331" lon="1.85095">
        <ele>116.88</ele>
        <time>2022-08-14T13:06:13Z</time>
      </trkpt>
      <trkpt lat="49.17329" lon="1.85091">
        <ele>116.31</ele>
        <time>2022-08-14T13:06:16Z</time>
      </trkpt>
      <trkpt lat="49.17327" lon="1.85088">
        <ele>116.52</ele>
        <time>2022-08-14T13:06:19Z</time>
      </trkpt>
      <trkpt lat="49.17319" lon="1.85067">
        <ele>116.5</ele>
        <time>2022-08-14T13:06:33Z</time>
      </trkpt>
      <trkpt lat="49.1731" lon="1.85052">
        <ele>114.62</ele>
        <time>2022-08-14T13:06:45Z</time>
      </trkpt>
      <trkpt lat="49.1731" lon="1.8505">
        <ele>114.57</ele>
        <time>2022-08-14T13:06:46Z</time>
      </trkpt>
      <trkpt lat="49.17308" lon="1.85047">
        <ele>115.93</ele>
        <time>2022-08-14T13:06:48Z</time>
      </trkpt>
      <trkpt lat="49.17305" lon="1.85041">
        <ele>115.52</ele>
        <time>2022-08-14T13:06:52Z</time>
      </trkpt>
      <trkpt lat="49.17298" lon="1.85027">
        <ele>116.95</ele>
        <time>2022-08-14T13:07:04Z</time>
      </trkpt>
      <trkpt lat="49.17291" lon="1.85013">
        <ele>116.17</ele>
        <time>2022-08-14T13:07:15Z</time>
      </trkpt>
      <trkpt lat="49.17285" lon="1.85001">
        <ele>116.17</ele>
        <time>2022-08-14T13:07:25Z</time>
      </trkpt>
      <trkpt lat="49.17283" lon="1.84993">
        <ele>116.08</ele>
        <time>2022-08-14T13:07:30Z</time>
      </trkpt>
      <trkpt lat="49.17275" lon="1.84976">
        <ele>116.67</ele>
        <time>2022-08-14T13:07:42Z</time>
      </trkpt>
      <trkpt lat="49.17269" lon="1.84962">
        <ele>116.47</ele>
        <time>2022-08-14T13:07:52Z</time>
      </trkpt>
      <trkpt lat="49.17265" lon="1.84954">
        <ele>116.13</ele>
        <time>2022-08-14T13:08:02Z</time>
      </trkpt>
      <trkpt lat="49.17262" lon="1.84947">
        <ele>115.61</ele>
        <time>2022-08-14T13:08:07Z</time>
      </trkpt>
      <trkpt lat="49.17255" lon="1.84931">
        <ele>116.55</ele>
        <time>2022-08-14T13:08:19Z</time>
      </trkpt>
      <trkpt lat="49.17247" lon="1.84915">
        <ele>116.19</ele>
        <time>2022-08-14T13:08:31Z</time>
      </trkpt>
      <trkpt lat="49.17238" lon="1.84895">
        <ele>116.48</ele>
        <time>2022-08-14T13:08:46Z</time>
      </trkpt>
      <trkpt lat="49.17232" lon="1.84879">
        <ele>115.13</ele>
        <time>2022-08-14T13:08:58Z</time>
      </trkpt>
      <trkpt lat="49.17228" lon="1.84868">
        <ele>115.78</ele>
        <time>2022-08-14T13:09:06Z</time>
      </trkpt>
      <trkpt lat="49.17222" lon="1.84855">
        <ele>116.06</ele>
        <time>2022-08-14T13:09:15Z</time>
      </trkpt>
      <trkpt lat="49.17217" lon="1.84843">
        <ele>116.38</ele>
        <time>2022-08-14T13:09:25Z</time>
      </trkpt>
      <trkpt lat="49.17211" lon="1.84828">
        <ele>116.42</ele>
        <time>2022-08-14T13:09:36Z</time>
      </trkpt>
      <trkpt lat="49.17209" lon="1.84821">
        <ele>114.5</ele>
        <time>2022-08-14T13:09:41Z</time>
      </trkpt>
      <trkpt lat="49.17205" lon="1.84809">
        <ele>116.22</ele>
        <time>2022-08-14T13:09:49Z</time>
      </trkpt>
      <trkpt lat="49.17202" lon="1.848">
        <ele>117.16</ele>
        <time>2022-08-14T13:09:55Z</time>
      </trkpt>
      <trkpt lat="49.17196" lon="1.84785">
        <ele>116.58</ele>
        <time>2022-08-14T13:10:07Z</time>
      </trkpt>
      <trkpt lat="49.17189" lon="1.84765">
        <ele>116.86</ele>
        <time>2022-08-14T13:10:20Z</time>
      </trkpt>
      <trkpt lat="49.17183" lon="1.84751">
        <ele>116.8</ele>
        <time>2022-08-14T13:10:30Z</time>
      </trkpt>
      <trkpt lat="49.17183" lon="1.84747">
        <ele>117.32</ele>
        <time>2022-08-14T13:10:33Z</time>
      </trkpt>
      <trkpt lat="49.17176" lon="1.84728">
        <ele>116.84</ele>
        <time>2022-08-14T13:10:45Z</time>
      </trkpt>
      <trkpt lat="49.17172" lon="1.84715">
        <ele>117.25</ele>
        <time>2022-08-14T13:10:54Z</time>
      </trkpt>
      <trkpt lat="49.17169" lon="1.84697">
        <ele>117.47</ele>
        <time>2022-08-14T13:11:06Z</time>
      </trkpt>
      <trkpt lat="49.17168" lon="1.84692">
        <ele>117.46</ele>
        <time>2022-08-14T13:11:09Z</time>
      </trkpt>
      <trkpt lat="49.17167" lon="1.84684">
        <ele>117.18</ele>
        <time>2022-08-14T13:11:14Z</time>
      </trkpt>
      <trkpt lat="49.17167" lon="1.8468">
        <ele>117.79</ele>
        <time>2022-08-14T13:11:16Z</time>
      </trkpt>
      <trkpt lat="49.17166" lon="1.84677">
        <ele>118.31</ele>
        <time>2022-08-14T13:11:18Z</time>
      </trkpt>
      <trkpt lat="49.17166" lon="1.8467">
        <ele>117.55</ele>
        <time>2022-08-14T13:11:22Z</time>
      </trkpt>
      <trkpt lat="49.17167" lon="1.84649">
        <ele>117.84</ele>
        <time>2022-08-14T13:11:36Z</time>
      </trkpt>
      <trkpt lat="49.1717" lon="1.84635">
        <ele>117.79</ele>
        <time>2022-08-14T13:11:44Z</time>
      </trkpt>
      <trkpt lat="49.17173" lon="1.84615">
        <ele>117.43</ele>
        <time>2022-08-14T13:11:56Z</time>
      </trkpt>
      <trkpt lat="49.17175" lon="1.84601">
        <ele>115.92</ele>
        <time>2022-08-14T13:12:05Z</time>
      </trkpt>
      <trkpt lat="49.17175" lon="1.84584">
        <ele>116.67</ele>
        <time>2022-08-14T13:12:14Z</time>
      </trkpt>
      <trkpt lat="49.17178" lon="1.84563">
        <ele>117</ele>
        <time>2022-08-14T13:12:27Z</time>
      </trkpt>
      <trkpt lat="49.17179" lon="1.84561">
        <ele>116.73</ele>
        <time>2022-08-14T13:12:28Z</time>
      </trkpt>
      <trkpt lat="49.17178" lon="1.84553">
        <ele>116.59</ele>
        <time>2022-08-14T13:12:33Z</time>
      </trkpt>
      <trkpt lat="49.17182" lon="1.8453">
        <ele>116.32</ele>
        <time>2022-08-14T13:12:48Z</time>
      </trkpt>
      <trkpt lat="49.17181" lon="1.84523">
        <ele>116.44</ele>
        <time>2022-08-14T13:12:53Z</time>
      </trkpt>
      <trkpt lat="49.1718" lon="1.8452">
        <ele>116.08</ele>
        <time>2022-08-14T13:12:55Z</time>
      </trkpt>
      <trkpt lat="49.17179" lon="1.84517">
        <ele>116.55</ele>
        <time>2022-08-14T13:12:57Z</time>
      </trkpt>
      <trkpt lat="49.17173" lon="1.84503">
        <ele>116.95</ele>
        <time>2022-08-14T13:13:09Z</time>
      </trkpt>
      <trkpt lat="49.17173" lon="1.84498">
        <ele>116.88</ele>
        <time>2022-08-14T13:13:12Z</time>
      </trkpt>
      <trkpt lat="49.17171" lon="1.84493">
        <ele>116.79</ele>
        <time>2022-08-14T13:13:16Z</time>
      </trkpt>
      <trkpt lat="49.17164" lon="1.84472">
        <ele>115.34</ele>
        <time>2022-08-14T13:13:28Z</time>
      </trkpt>
      <trkpt lat="49.17157" lon="1.8446">
        <ele>115.39</ele>
        <time>2022-08-14T13:13:38Z</time>
      </trkpt>
      <trkpt lat="49.17155" lon="1.84458">
        <ele>115.49</ele>
        <time>2022-08-14T13:13:40Z</time>
      </trkpt>
      <trkpt lat="49.17152" lon="1.84448">
        <ele>115.53</ele>
        <time>2022-08-14T13:13:46Z</time>
      </trkpt>
      <trkpt lat="49.17148" lon="1.84428">
        <ele>115.02</ele>
        <time>2022-08-14T13:13:57Z</time>
      </trkpt>
      <trkpt lat="49.17142" lon="1.84413">
        <ele>114.82</ele>
        <time>2022-08-14T13:14:07Z</time>
      </trkpt>
      <trkpt lat="49.17139" lon="1.84406">
        <ele>114.5</ele>
        <time>2022-08-14T13:14:12Z</time>
      </trkpt>
      <trkpt lat="49.17135" lon="1.84391">
        <ele>114.38</ele>
        <time>2022-08-14T13:14:23Z</time>
      </trkpt>
      <trkpt lat="49.1713" lon="1.84378">
        <ele>114.27</ele>
        <time>2022-08-14T13:14:32Z</time>
      </trkpt>
      <trkpt lat="49.17125" lon="1.84363">
        <ele>113.73</ele>
        <time>2022-08-14T13:14:43Z</time>
      </trkpt>
      <trkpt lat="49.17119" lon="1.8435">
        <ele>114.18</ele>
        <time>2022-08-14T13:14:53Z</time>
      </trkpt>
      <trkpt lat="49.17119" lon="1.84347">
        <ele>113.2</ele>
        <time>2022-08-14T13:15:04Z</time>
      </trkpt>
      <trkpt lat="49.17119" lon="1.84348">
        <ele>114.31</ele>
        <time>2022-08-14T13:15:20Z</time>
      </trkpt>
      <trkpt lat="49.17116" lon="1.84341">
        <ele>114.55</ele>
        <time>2022-08-14T13:15:26Z</time>
      </trkpt>
      <trkpt lat="49.1711" lon="1.84337">
        <ele>113.86</ele>
        <time>2022-08-14T13:15:37Z</time>
      </trkpt>
      <trkpt lat="49.17107" lon="1.84336">
        <ele>113.38</ele>
        <time>2022-08-14T13:15:40Z</time>
      </trkpt>
      <trkpt lat="49.17095" lon="1.84334">
        <ele>114.17</ele>
        <time>2022-08-14T13:15:52Z</time>
      </trkpt>
      <trkpt lat="49.17085" lon="1.84337">
        <ele>114.63</ele>
        <time>2022-08-14T13:16:04Z</time>
      </trkpt>
      <trkpt lat="49.17065" lon="1.84339">
        <ele>114.41</ele>
        <time>2022-08-14T13:16:21Z</time>
      </trkpt>
      <trkpt lat="49.17058" lon="1.84335">
        <ele>113.22</ele>
        <time>2022-08-14T13:16:34Z</time>
      </trkpt>
      <trkpt lat="49.17049" lon="1.84325">
        <ele>113.23</ele>
        <time>2022-08-14T13:16:46Z</time>
      </trkpt>
      <trkpt lat="49.17039" lon="1.84316">
        <ele>112.93</ele>
        <time>2022-08-14T13:17:03Z</time>
      </trkpt>
      <trkpt lat="49.1702" lon="1.84297">
        <ele>112.07</ele>
        <time>2022-08-14T13:17:19Z</time>
      </trkpt>
      <trkpt lat="49.1701" lon="1.84288">
        <ele>111.72</ele>
        <time>2022-08-14T13:17:30Z</time>
      </trkpt>
      <trkpt lat="49.16998" lon="1.84276">
        <ele>111.68</ele>
        <time>2022-08-14T13:17:46Z</time>
      </trkpt>
      <trkpt lat="49.16985" lon="1.84258">
        <ele>110.63</ele>
        <time>2022-08-14T13:18:05Z</time>
      </trkpt>
      <trkpt lat="49.16972" lon="1.8423">
        <ele>110.65</ele>
        <time>2022-08-14T13:18:23Z</time>
      </trkpt>
      <trkpt lat="49.16958" lon="1.8421">
        <ele>110.36</ele>
        <time>2022-08-14T13:18:41Z</time>
      </trkpt>
      <trkpt lat="49.16944" lon="1.84198">
        <ele>110.85</ele>
        <time>2022-08-14T13:18:57Z</time>
      </trkpt>
      <trkpt lat="49.16926" lon="1.84172">
        <ele>110.28</ele>
        <time>2022-08-14T13:19:18Z</time>
      </trkpt>
      <trkpt lat="49.1692" lon="1.84155">
        <ele>110.24</ele>
        <time>2022-08-14T13:19:30Z</time>
      </trkpt>
      <trkpt lat="49.16917" lon="1.84152">
        <ele>110.22</ele>
        <time>2022-08-14T13:19:32Z</time>
      </trkpt>
      <trkpt lat="49.16906" lon="1.84133">
        <ele>109.86</ele>
        <time>2022-08-14T13:19:44Z</time>
      </trkpt>
      <trkpt lat="49.16901" lon="1.84119">
        <ele>110.07</ele>
        <time>2022-08-14T13:19:55Z</time>
      </trkpt>
      <trkpt lat="49.16889" lon="1.84103">
        <ele>110.19</ele>
        <time>2022-08-14T13:20:12Z</time>
      </trkpt>
      <trkpt lat="49.16876" lon="1.84088">
        <ele>109.14</ele>
        <time>2022-08-14T13:20:30Z</time>
      </trkpt>
      <trkpt lat="49.16863" lon="1.84072">
        <ele>108.21</ele>
        <time>2022-08-14T13:20:46Z</time>
      </trkpt>
      <trkpt lat="49.16849" lon="1.84054">
        <ele>108.84</ele>
        <time>2022-08-14T13:21:00Z</time>
      </trkpt>
      <trkpt lat="49.16838" lon="1.84033">
        <ele>108.49</ele>
        <time>2022-08-14T13:21:17Z</time>
      </trkpt>
      <trkpt lat="49.16825" lon="1.84019">
        <ele>107.46</ele>
        <time>2022-08-14T13:21:32Z</time>
      </trkpt>
      <trkpt lat="49.16822" lon="1.84016">
        <ele>107.47</ele>
        <time>2022-08-14T13:21:37Z</time>
      </trkpt>
      <trkpt lat="49.16813" lon="1.84006">
        <ele>106.96</ele>
        <time>2022-08-14T13:21:53Z</time>
      </trkpt>
      <trkpt lat="49.16808" lon="1.83998">
        <ele>107.4</ele>
        <time>2022-08-14T13:21:59Z</time>
      </trkpt>
      <trkpt lat="49.16799" lon="1.83985">
        <ele>106.74</ele>
        <time>2022-08-14T13:22:09Z</time>
      </trkpt>
      <trkpt lat="49.1679" lon="1.83971">
        <ele>106.47</ele>
        <time>2022-08-14T13:22:21Z</time>
      </trkpt>
      <trkpt lat="49.16779" lon="1.83958">
        <ele>105.92</ele>
        <time>2022-08-14T13:22:38Z</time>
      </trkpt>
      <trkpt lat="49.16774" lon="1.83952">
        <ele>106.17</ele>
        <time>2022-08-14T13:22:46Z</time>
      </trkpt>
      <trkpt lat="49.16769" lon="1.83947">
        <ele>105.68</ele>
        <time>2022-08-14T13:23:06Z</time>
      </trkpt>
      <trkpt lat="49.16758" lon="1.83929">
        <ele>104.92</ele>
        <time>2022-08-14T13:23:25Z</time>
      </trkpt>
      <trkpt lat="49.16747" lon="1.83912">
        <ele>104.9</ele>
        <time>2022-08-14T13:23:40Z</time>
      </trkpt>
      <trkpt lat="49.16736" lon="1.83897">
        <ele>103.74</ele>
        <time>2022-08-14T13:23:56Z</time>
      </trkpt>
      <trkpt lat="49.16719" lon="1.83884">
        <ele>103.88</ele>
        <time>2022-08-14T13:24:15Z</time>
      </trkpt>
      <trkpt lat="49.16718" lon="1.83883">
        <ele>103.81</ele>
        <time>2022-08-14T13:24:17Z</time>
      </trkpt>
      <trkpt lat="49.16702" lon="1.83876">
        <ele>103.43</ele>
        <time>2022-08-14T13:24:31Z</time>
      </trkpt>
      <trkpt lat="49.16685" lon="1.83873">
        <ele>103.13</ele>
        <time>2022-08-14T13:24:45Z</time>
      </trkpt>
      <trkpt lat="49.16682" lon="1.83868">
        <ele>103.05</ele>
        <time>2022-08-14T13:24:49Z</time>
      </trkpt>
      <trkpt lat="49.16681" lon="1.83867">
        <ele>102.29</ele>
        <time>2022-08-14T13:24:51Z</time>
      </trkpt>
      <trkpt lat="49.16668" lon="1.83862">
        <ele>101.99</ele>
        <time>2022-08-14T13:25:04Z</time>
      </trkpt>
      <trkpt lat="49.16651" lon="1.83852">
        <ele>101.01</ele>
        <time>2022-08-14T13:25:19Z</time>
      </trkpt>
      <trkpt lat="49.16635" lon="1.83833">
        <ele>100.51</ele>
        <time>2022-08-14T13:25:37Z</time>
      </trkpt>
      <trkpt lat="49.16633" lon="1.83833">
        <ele>100.36</ele>
        <time>2022-08-14T13:25:39Z</time>
      </trkpt>
      <trkpt lat="49.16622" lon="1.83818">
        <ele>99.05</ele>
        <time>2022-08-14T13:25:53Z</time>
      </trkpt>
      <trkpt lat="49.16615" lon="1.83809">
        <ele>98.59</ele>
        <time>2022-08-14T13:26:05Z</time>
      </trkpt>
      <trkpt lat="49.16607" lon="1.83798">
        <ele>98.42</ele>
        <time>2022-08-14T13:26:16Z</time>
      </trkpt>
      <trkpt lat="49.16592" lon="1.83784">
        <ele>97.28</ele>
        <time>2022-08-14T13:26:35Z</time>
      </trkpt>
      <trkpt lat="49.16577" lon="1.83764">
        <ele>96.9</ele>
        <time>2022-08-14T13:26:52Z</time>
      </trkpt>
      <trkpt lat="49.16564" lon="1.83747">
        <ele>95.85</ele>
        <time>2022-08-14T13:27:09Z</time>
      </trkpt>
      <trkpt lat="49.16555" lon="1.83738">
        <ele>95.71</ele>
        <time>2022-08-14T13:27:20Z</time>
      </trkpt>
      <trkpt lat="49.16533" lon="1.83724">
        <ele>94.95</ele>
        <time>2022-08-14T13:27:38Z</time>
      </trkpt>
      <trkpt lat="49.16522" lon="1.8371">
        <ele>94.96</ele>
        <time>2022-08-14T13:27:52Z</time>
      </trkpt>
      <trkpt lat="49.16496" lon="1.837">
        <ele>94.72</ele>
        <time>2022-08-14T13:28:11Z</time>
      </trkpt>
      <trkpt lat="49.16481" lon="1.83686">
        <ele>93.89</ele>
        <time>2022-08-14T13:28:26Z</time>
      </trkpt>
      <trkpt lat="49.16469" lon="1.83672">
        <ele>93.34</ele>
        <time>2022-08-14T13:28:40Z</time>
      </trkpt>
      <trkpt lat="49.16459" lon="1.83662">
        <ele>93.17</ele>
        <time>2022-08-14T13:28:55Z</time>
      </trkpt>
      <trkpt lat="49.16443" lon="1.83638">
        <ele>93.79</ele>
        <time>2022-08-14T13:29:14Z</time>
      </trkpt>
      <trkpt lat="49.16429" lon="1.83613">
        <ele>92.08</ele>
        <time>2022-08-14T13:29:31Z</time>
      </trkpt>
      <trkpt lat="49.16421" lon="1.8359">
        <ele>91.87</ele>
        <time>2022-08-14T13:29:46Z</time>
      </trkpt>
      <trkpt lat="49.16408" lon="1.83568">
        <ele>91.8</ele>
        <time>2022-08-14T13:30:03Z</time>
      </trkpt>
      <trkpt lat="49.16401" lon="1.83542">
        <ele>91.46</ele>
        <time>2022-08-14T13:30:19Z</time>
      </trkpt>
      <trkpt lat="49.16398" lon="1.83538">
        <ele>90.69</ele>
        <time>2022-08-14T13:30:23Z</time>
      </trkpt>
      <trkpt lat="49.16389" lon="1.83519">
        <ele>90.12</ele>
        <time>2022-08-14T13:30:34Z</time>
      </trkpt>
      <trkpt lat="49.16381" lon="1.83502">
        <ele>89.34</ele>
        <time>2022-08-14T13:30:46Z</time>
      </trkpt>
      <trkpt lat="49.1638" lon="1.83501">
        <ele>89.69</ele>
        <time>2022-08-14T13:30:47Z</time>
      </trkpt>
      <trkpt lat="49.16371" lon="1.83475">
        <ele>88.89</ele>
        <time>2022-08-14T13:31:02Z</time>
      </trkpt>
      <trkpt lat="49.16371" lon="1.83471">
        <ele>88.89</ele>
        <time>2022-08-14T13:31:04Z</time>
      </trkpt>
      <trkpt lat="49.16362" lon="1.83457">
        <ele>87.44</ele>
        <time>2022-08-14T13:31:17Z</time>
      </trkpt>
      <trkpt lat="49.16356" lon="1.83436">
        <ele>85.96</ele>
        <time>2022-08-14T13:31:30Z</time>
      </trkpt>
      <trkpt lat="49.16351" lon="1.83421">
        <ele>84.94</ele>
        <time>2022-08-14T13:31:41Z</time>
      </trkpt>
      <trkpt lat="49.16348" lon="1.8341">
        <ele>83.68</ele>
        <time>2022-08-14T13:31:53Z</time>
      </trkpt>
      <trkpt lat="49.16341" lon="1.83397">
        <ele>81.06</ele>
        <time>2022-08-14T13:32:10Z</time>
      </trkpt>
      <trkpt lat="49.16332" lon="1.83382">
        <ele>78.54</ele>
        <time>2022-08-14T13:32:28Z</time>
      </trkpt>
      <trkpt lat="49.16326" lon="1.83366">
        <ele>76.32</ele>
        <time>2022-08-14T13:32:45Z</time>
      </trkpt>
      <trkpt lat="49.16318" lon="1.83352">
        <ele>74.3</ele>
        <time>2022-08-14T13:33:02Z</time>
      </trkpt>
      <trkpt lat="49.16314" lon="1.83341">
        <ele>73.22</ele>
        <time>2022-08-14T13:33:14Z</time>
      </trkpt>
      <trkpt lat="49.1631" lon="1.83335">
        <ele>72.64</ele>
        <time>2022-08-14T13:33:31Z</time>
      </trkpt>
      <trkpt lat="49.16305" lon="1.83345">
        <ele>71.21</ele>
        <time>2022-08-14T13:33:48Z</time>
      </trkpt>
      <trkpt lat="49.16305" lon="1.83354">
        <ele>71.22</ele>
        <time>2022-08-14T13:33:59Z</time>
      </trkpt>
      <trkpt lat="49.16308" lon="1.83373">
        <ele>70.48</ele>
        <time>2022-08-14T13:34:16Z</time>
      </trkpt>
      <trkpt lat="49.16304" lon="1.83384">
        <ele>70.26</ele>
        <time>2022-08-14T13:34:30Z</time>
      </trkpt>
      <trkpt lat="49.16294" lon="1.83391">
        <ele>70.34</ele>
        <time>2022-08-14T13:34:48Z</time>
      </trkpt>
      <trkpt lat="49.16288" lon="1.83397">
        <ele>70.38</ele>
        <time>2022-08-14T13:35:02Z</time>
      </trkpt>
      <trkpt lat="49.16282" lon="1.83403">
        <ele>70.18</ele>
        <time>2022-08-14T13:35:14Z</time>
      </trkpt>
      <trkpt lat="49.16278" lon="1.83405">
        <ele>70.2</ele>
        <time>2022-08-14T13:35:18Z</time>
      </trkpt>
      <trkpt lat="49.1627" lon="1.83415">
        <ele>70.24</ele>
        <time>2022-08-14T13:35:31Z</time>
      </trkpt>
      <trkpt lat="49.16257" lon="1.83427">
        <ele>71.35</ele>
        <time>2022-08-14T13:35:46Z</time>
      </trkpt>
      <trkpt lat="49.16253" lon="1.83431">
        <ele>71.44</ele>
        <time>2022-08-14T13:35:54Z</time>
      </trkpt>
      <trkpt lat="49.16238" lon="1.83447">
        <ele>70.79</ele>
        <time>2022-08-14T13:36:11Z</time>
      </trkpt>
      <trkpt lat="49.16227" lon="1.83458">
        <ele>71</ele>
        <time>2022-08-14T13:36:25Z</time>
      </trkpt>
      <trkpt lat="49.16222" lon="1.8346">
        <ele>71.18</ele>
        <time>2022-08-14T13:36:33Z</time>
      </trkpt>
      <trkpt lat="49.16213" lon="1.83465">
        <ele>71.64</ele>
        <time>2022-08-14T13:36:44Z</time>
      </trkpt>
      <trkpt lat="49.16208" lon="1.83472">
        <ele>72.26</ele>
        <time>2022-08-14T13:36:57Z</time>
      </trkpt>
      <trkpt lat="49.16205" lon="1.83489">
        <ele>73.25</ele>
        <time>2022-08-14T13:37:10Z</time>
      </trkpt>
      <trkpt lat="49.16211" lon="1.83508">
        <ele>73.53</ele>
        <time>2022-08-14T13:37:28Z</time>
      </trkpt>
      <trkpt lat="49.16207" lon="1.83529">
        <ele>73.1</ele>
        <time>2022-08-14T13:37:38Z</time>
      </trkpt>
      <trkpt lat="49.16208" lon="1.83541">
        <ele>73.78</ele>
        <time>2022-08-14T13:37:55Z</time>
      </trkpt>
      <trkpt lat="49.16205" lon="1.83552">
        <ele>74.06</ele>
        <time>2022-08-14T13:38:16Z</time>
      </trkpt>
      <trkpt lat="49.16206" lon="1.83573">
        <ele>74.14</ele>
        <time>2022-08-14T13:38:35Z</time>
      </trkpt>
      <trkpt lat="49.16206" lon="1.83577">
        <ele>74.32</ele>
        <time>2022-08-14T13:38:50Z</time>
      </trkpt>
      <trkpt lat="49.16213" lon="1.83584">
        <ele>74.47</ele>
        <time>2022-08-14T13:39:02Z</time>
      </trkpt>
      <trkpt lat="49.16216" lon="1.83591">
        <ele>75.06</ele>
        <time>2022-08-14T13:39:13Z</time>
      </trkpt>
      <trkpt lat="49.16217" lon="1.83603">
        <ele>75.48</ele>
        <time>2022-08-14T13:39:21Z</time>
      </trkpt>
      <trkpt lat="49.16218" lon="1.83614">
        <ele>74.63</ele>
        <time>2022-08-14T13:39:33Z</time>
      </trkpt>
      <trkpt lat="49.16219" lon="1.83612">
        <ele>75.92</ele>
        <time>2022-08-14T13:39:40Z</time>
      </trkpt>
      <trkpt lat="49.16221" lon="1.83597">
        <ele>74.98</ele>
        <time>2022-08-14T13:39:52Z</time>
      </trkpt>
      <trkpt lat="49.1623" lon="1.83604">
        <ele>74.89</ele>
        <time>2022-08-14T13:40:05Z</time>
      </trkpt>
      <trkpt lat="49.16235" lon="1.83616">
        <ele>74.74</ele>
        <time>2022-08-14T13:40:14Z</time>
      </trkpt>
      <trkpt lat="49.16239" lon="1.83624">
        <ele>74.43</ele>
        <time>2022-08-14T13:40:20Z</time>
      </trkpt>
      <trkpt lat="49.16241" lon="1.83629">
        <ele>74.78</ele>
        <time>2022-08-14T13:40:23Z</time>
      </trkpt>
      <trkpt lat="49.16247" lon="1.8364">
        <ele>74.94</ele>
        <time>2022-08-14T13:40:32Z</time>
      </trkpt>
      <trkpt lat="49.16247" lon="1.83643">
        <ele>75</ele>
        <time>2022-08-14T13:40:34Z</time>
      </trkpt>
      <trkpt lat="49.16251" lon="1.83652">
        <ele>75.17</ele>
        <time>2022-08-14T13:40:41Z</time>
      </trkpt>
      <trkpt lat="49.16252" lon="1.83657">
        <ele>75.31</ele>
        <time>2022-08-14T13:40:44Z</time>
      </trkpt>
      <trkpt lat="49.16256" lon="1.83672">
        <ele>74.95</ele>
        <time>2022-08-14T13:40:54Z</time>
      </trkpt>
      <trkpt lat="49.16263" lon="1.83689">
        <ele>74.97</ele>
        <time>2022-08-14T13:41:07Z</time>
      </trkpt>
      <trkpt lat="49.1627" lon="1.8372">
        <ele>75.23</ele>
        <time>2022-08-14T13:41:24Z</time>
      </trkpt>
      <trkpt lat="49.16278" lon="1.8374">
        <ele>75.44</ele>
        <time>2022-08-14T13:41:37Z</time>
      </trkpt>
      <trkpt lat="49.16287" lon="1.83756">
        <ele>75.69</ele>
        <time>2022-08-14T13:41:51Z</time>
      </trkpt>
      <trkpt lat="49.163" lon="1.83768">
        <ele>75.84</ele>
        <time>2022-08-14T13:42:11Z</time>
      </trkpt>
      <trkpt lat="49.16304" lon="1.83783">
        <ele>76.44</ele>
        <time>2022-08-14T13:42:23Z</time>
      </trkpt>
      <trkpt lat="49.16312" lon="1.83804">
        <ele>76.92</ele>
        <time>2022-08-14T13:42:40Z</time>
      </trkpt>
      <trkpt lat="49.16314" lon="1.83838">
        <ele>77.17</ele>
        <time>2022-08-14T13:42:55Z</time>
      </trkpt>
      <trkpt lat="49.16319" lon="1.83858">
        <ele>77.37</ele>
        <time>2022-08-14T13:43:08Z</time>
      </trkpt>
      <trkpt lat="49.16319" lon="1.83872">
        <ele>76.22</ele>
        <time>2022-08-14T13:43:26Z</time>
      </trkpt>
      <trkpt lat="49.1632" lon="1.83881">
        <ele>76.28</ele>
        <time>2022-08-14T13:43:40Z</time>
      </trkpt>
      <trkpt lat="49.16319" lon="1.83885">
        <ele>74.08</ele>
        <time>2022-08-14T13:43:53Z</time>
      </trkpt>
      <trkpt lat="49.1632" lon="1.83885">
        <ele>73.96</ele>
        <time>2022-08-14T13:43:55Z</time>
      </trkpt>
      <trkpt lat="49.16327" lon="1.83885">
        <ele>74.11</ele>
        <time>2022-08-14T13:44:12Z</time>
      </trkpt>
      <trkpt lat="49.1633" lon="1.83889">
        <ele>74.57</ele>
        <time>2022-08-14T13:44:23Z</time>
      </trkpt>
      <trkpt lat="49.16321" lon="1.83903">
        <ele>75.97</ele>
        <time>2022-08-14T13:44:38Z</time>
      </trkpt>
      <trkpt lat="49.16317" lon="1.8392">
        <ele>75.28</ele>
        <time>2022-08-14T13:44:52Z</time>
      </trkpt>
      <trkpt lat="49.16318" lon="1.83928">
        <ele>75.15</ele>
        <time>2022-08-14T13:45:08Z</time>
      </trkpt>
      <trkpt lat="49.1632" lon="1.8393">
        <ele>76.01</ele>
        <time>2022-08-14T13:45:26Z</time>
      </trkpt>
      <trkpt lat="49.1632" lon="1.83937">
        <ele>74.78</ele>
        <time>2022-08-14T13:45:39Z</time>
      </trkpt>
      <trkpt lat="49.1632" lon="1.8395">
        <ele>76.09</ele>
        <time>2022-08-14T13:45:49Z</time>
      </trkpt>
      <trkpt lat="49.16319" lon="1.83959">
        <ele>76.29</ele>
        <time>2022-08-14T13:46:10Z</time>
      </trkpt>
      <trkpt lat="49.16321" lon="1.83967">
        <ele>76.51</ele>
        <time>2022-08-14T13:46:27Z</time>
      </trkpt>
      <trkpt lat="49.1632" lon="1.8398">
        <ele>76.3</ele>
        <time>2022-08-14T13:46:46Z</time>
      </trkpt>
      <trkpt lat="49.16321" lon="1.83996">
        <ele>76.88</ele>
        <time>2022-08-14T13:47:01Z</time>
      </trkpt>
      <trkpt lat="49.16323" lon="1.84018">
        <ele>77.38</ele>
        <time>2022-08-14T13:47:17Z</time>
      </trkpt>
      <trkpt lat="49.16315" lon="1.84066">
        <ele>77.55</ele>
        <time>2022-08-14T13:47:35Z</time>
      </trkpt>
      <trkpt lat="49.16319" lon="1.84085">
        <ele>77.74</ele>
        <time>2022-08-14T13:47:49Z</time>
      </trkpt>
      <trkpt lat="49.16322" lon="1.84113">
        <ele>78.03</ele>
        <time>2022-08-14T13:48:03Z</time>
      </trkpt>
      <trkpt lat="49.16321" lon="1.84133">
        <ele>78.08</ele>
        <time>2022-08-14T13:48:19Z</time>
      </trkpt>
      <trkpt lat="49.16323" lon="1.84167">
        <ele>78.57</ele>
        <time>2022-08-14T13:48:36Z</time>
      </trkpt>
      <trkpt lat="49.16326" lon="1.84188">
        <ele>78.3</ele>
        <time>2022-08-14T13:48:49Z</time>
      </trkpt>
      <trkpt lat="49.16329" lon="1.84211">
        <ele>79.14</ele>
        <time>2022-08-14T13:49:07Z</time>
      </trkpt>
      <trkpt lat="49.16331" lon="1.84219">
        <ele>79.79</ele>
        <time>2022-08-14T13:49:21Z</time>
      </trkpt>
      <trkpt lat="49.16333" lon="1.84226">
        <ele>80.69</ele>
        <time>2022-08-14T13:49:39Z</time>
      </trkpt>
      <trkpt lat="49.16339" lon="1.8425">
        <ele>81.69</ele>
        <time>2022-08-14T13:49:57Z</time>
      </trkpt>
      <trkpt lat="49.16341" lon="1.84257">
        <ele>81.83</ele>
        <time>2022-08-14T13:50:13Z</time>
      </trkpt>
      <trkpt lat="49.16338" lon="1.84272">
        <ele>82.58</ele>
        <time>2022-08-14T13:50:25Z</time>
      </trkpt>
      <trkpt lat="49.16328" lon="1.84288">
        <ele>84.57</ele>
        <time>2022-08-14T13:50:40Z</time>
      </trkpt>
      <trkpt lat="49.16318" lon="1.84303">
        <ele>86.43</ele>
        <time>2022-08-14T13:50:58Z</time>
      </trkpt>
      <trkpt lat="49.16306" lon="1.84314">
        <ele>88.57</ele>
        <time>2022-08-14T13:51:16Z</time>
      </trkpt>
      <trkpt lat="49.163" lon="1.8432">
        <ele>88.39</ele>
        <time>2022-08-14T13:51:30Z</time>
      </trkpt>
      <trkpt lat="49.16299" lon="1.8432">
        <ele>88.22</ele>
        <time>2022-08-14T13:51:34Z</time>
      </trkpt>
      <trkpt lat="49.16283" lon="1.84336">
        <ele>89.18</ele>
        <time>2022-08-14T13:51:49Z</time>
      </trkpt>
      <trkpt lat="49.16278" lon="1.84343">
        <ele>91.32</ele>
        <time>2022-08-14T13:51:56Z</time>
      </trkpt>
      <trkpt lat="49.16269" lon="1.84354">
        <ele>92.27</ele>
        <time>2022-08-14T13:52:09Z</time>
      </trkpt>
      <trkpt lat="49.16266" lon="1.84357">
        <ele>93.05</ele>
        <time>2022-08-14T13:52:13Z</time>
      </trkpt>
      <trkpt lat="49.16261" lon="1.84365">
        <ele>94.41</ele>
        <time>2022-08-14T13:52:20Z</time>
      </trkpt>
      <trkpt lat="49.16264" lon="1.84368">
        <ele>95.18</ele>
        <time>2022-08-14T13:52:32Z</time>
      </trkpt>
      <trkpt lat="49.16269" lon="1.84368">
        <ele>95.83</ele>
        <time>2022-08-14T13:52:45Z</time>
      </trkpt>
      <trkpt lat="49.16274" lon="1.84368">
        <ele>96.28</ele>
        <time>2022-08-14T13:52:57Z</time>
      </trkpt>
      <trkpt lat="49.16285" lon="1.84376">
        <ele>96.19</ele>
        <time>2022-08-14T13:53:10Z</time>
      </trkpt>
      <trkpt lat="49.16297" lon="1.84379">
        <ele>95.95</ele>
        <time>2022-08-14T13:53:23Z</time>
      </trkpt>
      <trkpt lat="49.16303" lon="1.84381">
        <ele>96.25</ele>
        <time>2022-08-14T13:53:36Z</time>
      </trkpt>
      <trkpt lat="49.16303" lon="1.84383">
        <ele>96.67</ele>
        <time>2022-08-14T13:54:00Z</time>
      </trkpt>
      <trkpt lat="49.16313" lon="1.84384">
        <ele>96.66</ele>
        <time>2022-08-14T13:54:17Z</time>
      </trkpt>
      <trkpt lat="49.16313" lon="1.8439">
        <ele>96.54</ele>
        <time>2022-08-14T13:54:37Z</time>
      </trkpt>
      <trkpt lat="49.16313" lon="1.84389">
        <ele>96.9</ele>
        <time>2022-08-14T13:54:58Z</time>
      </trkpt>
      <trkpt lat="49.16309" lon="1.84392">
        <ele>97.03</ele>
        <time>2022-08-14T13:55:15Z</time>
      </trkpt>
      <trkpt lat="49.16306" lon="1.84394">
        <ele>97.58</ele>
        <time>2022-08-14T13:55:31Z</time>
      </trkpt>
      <trkpt lat="49.16306" lon="1.84392">
        <ele>96.93</ele>
        <time>2022-08-14T13:55:44Z</time>
      </trkpt>
      <trkpt lat="49.16311" lon="1.84393">
        <ele>96.78</ele>
        <time>2022-08-14T13:56:02Z</time>
      </trkpt>
      <trkpt lat="49.16314" lon="1.84396">
        <ele>96.44</ele>
        <time>2022-08-14T13:56:19Z</time>
      </trkpt>
      <trkpt lat="49.16316" lon="1.84402">
        <ele>96.96</ele>
        <time>2022-08-14T13:56:36Z</time>
      </trkpt>
      <trkpt lat="49.16316" lon="1.844">
        <ele>97.08</ele>
        <time>2022-08-14T13:56:52Z</time>
      </trkpt>
      <trkpt lat="49.16317" lon="1.84399">
        <ele>97.28</ele>
        <time>2022-08-14T13:57:09Z</time>
      </trkpt>
      <trkpt lat="49.16317" lon="1.84398">
        <ele>97.34</ele>
        <time>2022-08-14T13:57:20Z</time>
      </trkpt>
      <trkpt lat="49.16316" lon="1.84398">
        <ele>96.91</ele>
        <time>2022-08-14T13:57:27Z</time>
      </trkpt>
      <trkpt lat="49.16315" lon="1.84398">
        <ele>97.28</ele>
        <time>2022-08-14T13:57:46Z</time>
      </trkpt>
      <trkpt lat="49.16315" lon="1.84397">
        <ele>97.61</ele>
        <time>2022-08-14T13:58:02Z</time>
      </trkpt>
      <trkpt lat="49.16315" lon="1.84397">
        <ele>97.64</ele>
        <time>2022-08-14T13:58:11Z</time>
      </trkpt>
      <trkpt lat="49.16314" lon="1.84397">
        <ele>97.77</ele>
        <time>2022-08-14T13:58:20Z</time>
      </trkpt>
      <trkpt lat="49.16314" lon="1.84393">
        <ele>97.37</ele>
        <time>2022-08-14T13:58:38Z</time>
      </trkpt>
      <trkpt lat="49.16307" lon="1.84386">
        <ele>97.35</ele>
        <time>2022-08-14T13:58:55Z</time>
      </trkpt>
      <trkpt lat="49.16306" lon="1.84383">
        <ele>97.37</ele>
        <time>2022-08-14T13:59:11Z</time>
      </trkpt>
      <trkpt lat="49.16305" lon="1.84383">
        <ele>97.93</ele>
        <time>2022-08-14T13:59:30Z</time>
      </trkpt>
      <trkpt lat="49.16304" lon="1.84377">
        <ele>97.68</ele>
        <time>2022-08-14T13:59:45Z</time>
      </trkpt>
      <trkpt lat="49.16308" lon="1.84366">
        <ele>97.21</ele>
        <time>2022-08-14T13:59:59Z</time>
      </trkpt>
      <trkpt lat="49.16311" lon="1.84364">
        <ele>96.42</ele>
        <time>2022-08-14T14:00:16Z</time>
      </trkpt>
      <trkpt lat="49.16311" lon="1.84364">
        <ele>96.09</ele>
        <time>2022-08-14T14:00:31Z</time>
      </trkpt>
      <trkpt lat="49.16317" lon="1.84362">
        <ele>95.23</ele>
        <time>2022-08-14T14:00:46Z</time>
      </trkpt>
      <trkpt lat="49.16324" lon="1.84366">
        <ele>94.09</ele>
        <time>2022-08-14T14:00:54Z</time>
      </trkpt>
      <trkpt lat="49.16324" lon="1.84367">
        <ele>94.18</ele>
        <time>2022-08-14T14:00:55Z</time>
      </trkpt>
      <trkpt lat="49.16341" lon="1.84378">
        <ele>93.13</ele>
        <time>2022-08-14T14:01:09Z</time>
      </trkpt>
      <trkpt lat="49.16354" lon="1.84391">
        <ele>92.55</ele>
        <time>2022-08-14T14:01:23Z</time>
      </trkpt>
      <trkpt lat="49.1636" lon="1.84402">
        <ele>92.37</ele>
        <time>2022-08-14T14:01:33Z</time>
      </trkpt>
      <trkpt lat="49.16366" lon="1.84413">
        <ele>91.96</ele>
        <time>2022-08-14T14:01:42Z</time>
      </trkpt>
      <trkpt lat="49.16372" lon="1.84428">
        <ele>90.39</ele>
        <time>2022-08-14T14:01:55Z</time>
      </trkpt>
      <trkpt lat="49.16376" lon="1.84441">
        <ele>89.7</ele>
        <time>2022-08-14T14:02:08Z</time>
      </trkpt>
      <trkpt lat="49.16384" lon="1.8446">
        <ele>86.59</ele>
        <time>2022-08-14T14:02:24Z</time>
      </trkpt>
      <trkpt lat="49.16392" lon="1.84475">
        <ele>85.16</ele>
        <time>2022-08-14T14:02:38Z</time>
      </trkpt>
      <trkpt lat="49.164" lon="1.84489">
        <ele>84.67</ele>
        <time>2022-08-14T14:02:52Z</time>
      </trkpt>
      <trkpt lat="49.16407" lon="1.84501">
        <ele>83.69</ele>
        <time>2022-08-14T14:03:07Z</time>
      </trkpt>
      <trkpt lat="49.16413" lon="1.84504">
        <ele>83.97</ele>
        <time>2022-08-14T14:03:25Z</time>
      </trkpt>
      <trkpt lat="49.16415" lon="1.8451">
        <ele>82.92</ele>
        <time>2022-08-14T14:03:34Z</time>
      </trkpt>
      <trkpt lat="49.1642" lon="1.84532">
        <ele>83.11</ele>
        <time>2022-08-14T14:03:49Z</time>
      </trkpt>
      <trkpt lat="49.16422" lon="1.84537">
        <ele>82.52</ele>
        <time>2022-08-14T14:04:01Z</time>
      </trkpt>
      <trkpt lat="49.1642" lon="1.84538">
        <ele>82.98</ele>
        <time>2022-08-14T14:04:04Z</time>
      </trkpt>
      <trkpt lat="49.16421" lon="1.84543">
        <ele>82.54</ele>
        <time>2022-08-14T14:04:10Z</time>
      </trkpt>
      <trkpt lat="49.16417" lon="1.84559">
        <ele>82.51</ele>
        <time>2022-08-14T14:04:30Z</time>
      </trkpt>
      <trkpt lat="49.1642" lon="1.8456">
        <ele>82.81</ele>
        <time>2022-08-14T14:04:48Z</time>
      </trkpt>
      <trkpt lat="49.16422" lon="1.84573">
        <ele>82.2</ele>
        <time>2022-08-14T14:05:02Z</time>
      </trkpt>
      <trkpt lat="49.16432" lon="1.84591">
        <ele>82.01</ele>
        <time>2022-08-14T14:05:16Z</time>
      </trkpt>
      <trkpt lat="49.16433" lon="1.84595">
        <ele>82</ele>
        <time>2022-08-14T14:05:19Z</time>
      </trkpt>
      <trkpt lat="49.16434" lon="1.84601">
        <ele>81.99</ele>
        <time>2022-08-14T14:05:22Z</time>
      </trkpt>
      <trkpt lat="49.16439" lon="1.84624">
        <ele>82.73</ele>
        <time>2022-08-14T14:05:37Z</time>
      </trkpt>
      <trkpt lat="49.1644" lon="1.84641">
        <ele>83.69</ele>
        <time>2022-08-14T14:05:47Z</time>
      </trkpt>
      <trkpt lat="49.16442" lon="1.84654">
        <ele>83.91</ele>
        <time>2022-08-14T14:05:56Z</time>
      </trkpt>
      <trkpt lat="49.16442" lon="1.8467">
        <ele>84.13</ele>
        <time>2022-08-14T14:06:05Z</time>
      </trkpt>
      <trkpt lat="49.16442" lon="1.84689">
        <ele>83.98</ele>
        <time>2022-08-14T14:06:17Z</time>
      </trkpt>
      <trkpt lat="49.16444" lon="1.8471">
        <ele>84.05</ele>
        <time>2022-08-14T14:06:32Z</time>
      </trkpt>
      <trkpt lat="49.16446" lon="1.84731">
        <ele>84.03</ele>
        <time>2022-08-14T14:06:50Z</time>
      </trkpt>
      <trkpt lat="49.16452" lon="1.84744">
        <ele>83.64</ele>
        <time>2022-08-14T14:07:03Z</time>
      </trkpt>
      <trkpt lat="49.16452" lon="1.84777">
        <ele>84.32</ele>
        <time>2022-08-14T14:07:18Z</time>
      </trkpt>
      <trkpt lat="49.16446" lon="1.84816">
        <ele>84.07</ele>
        <time>2022-08-14T14:07:35Z</time>
      </trkpt>
      <trkpt lat="49.16446" lon="1.84821">
        <ele>84.57</ele>
        <time>2022-08-14T14:07:38Z</time>
      </trkpt>
      <trkpt lat="49.16446" lon="1.84841">
        <ele>84.23</ele>
        <time>2022-08-14T14:07:49Z</time>
      </trkpt>
      <trkpt lat="49.16445" lon="1.84846">
        <ele>84.3</ele>
        <time>2022-08-14T14:07:52Z</time>
      </trkpt>
      <trkpt lat="49.16452" lon="1.84861">
        <ele>84.65</ele>
        <time>2022-08-14T14:08:03Z</time>
      </trkpt>
      <trkpt lat="49.1646" lon="1.84866">
        <ele>85</ele>
        <time>2022-08-14T14:08:12Z</time>
      </trkpt>
      <trkpt lat="49.16461" lon="1.84868">
        <ele>85.25</ele>
        <time>2022-08-14T14:08:14Z</time>
      </trkpt>
      <trkpt lat="49.16464" lon="1.84891">
        <ele>84.91</ele>
        <time>2022-08-14T14:08:28Z</time>
      </trkpt>
      <trkpt lat="49.16466" lon="1.84909">
        <ele>84.37</ele>
        <time>2022-08-14T14:08:41Z</time>
      </trkpt>
      <trkpt lat="49.16466" lon="1.84928">
        <ele>84.94</ele>
        <time>2022-08-14T14:08:56Z</time>
      </trkpt>
      <trkpt lat="49.16468" lon="1.84938">
        <ele>84.54</ele>
        <time>2022-08-14T14:09:09Z</time>
      </trkpt>
      <trkpt lat="49.16472" lon="1.84938">
        <ele>85.12</ele>
        <time>2022-08-14T14:09:14Z</time>
      </trkpt>
      <trkpt lat="49.16475" lon="1.84938">
        <ele>84.56</ele>
        <time>2022-08-14T14:09:17Z</time>
      </trkpt>
      <trkpt lat="49.16487" lon="1.84924">
        <ele>84.83</ele>
        <time>2022-08-14T14:09:31Z</time>
      </trkpt>
      <trkpt lat="49.16492" lon="1.84912">
        <ele>86.19</ele>
        <time>2022-08-14T14:09:45Z</time>
      </trkpt>
      <trkpt lat="49.16493" lon="1.84905">
        <ele>86.29</ele>
        <time>2022-08-14T14:10:06Z</time>
      </trkpt>
      <trkpt lat="49.16492" lon="1.84908">
        <ele>85.89</ele>
        <time>2022-08-14T14:10:31Z</time>
      </trkpt>
      <trkpt lat="49.16488" lon="1.84922">
        <ele>85.08</ele>
        <time>2022-08-14T14:10:46Z</time>
      </trkpt>
      <trkpt lat="49.1648" lon="1.84941">
        <ele>84.98</ele>
        <time>2022-08-14T14:11:01Z</time>
      </trkpt>
      <trkpt lat="49.16472" lon="1.84961">
        <ele>85.26</ele>
        <time>2022-08-14T14:11:15Z</time>
      </trkpt>
      <trkpt lat="49.1647" lon="1.84983">
        <ele>85.7</ele>
        <time>2022-08-14T14:11:31Z</time>
      </trkpt>
      <trkpt lat="49.16469" lon="1.84991">
        <ele>84.98</ele>
        <time>2022-08-14T14:11:36Z</time>
      </trkpt>
      <trkpt lat="49.16469" lon="1.84998">
        <ele>84.92</ele>
        <time>2022-08-14T14:11:41Z</time>
      </trkpt>
      <trkpt lat="49.16471" lon="1.85008">
        <ele>85.42</ele>
        <time>2022-08-14T14:11:47Z</time>
      </trkpt>
      <trkpt lat="49.16471" lon="1.85018">
        <ele>84.91</ele>
        <time>2022-08-14T14:11:55Z</time>
      </trkpt>
      <trkpt lat="49.16472" lon="1.85022">
        <ele>85.36</ele>
        <time>2022-08-14T14:11:58Z</time>
      </trkpt>
      <trkpt lat="49.16472" lon="1.85039">
        <ele>85.54</ele>
        <time>2022-08-14T14:12:11Z</time>
      </trkpt>
      <trkpt lat="49.16472" lon="1.85042">
        <ele>85.97</ele>
        <time>2022-08-14T14:12:13Z</time>
      </trkpt>
      <trkpt lat="49.16475" lon="1.85065">
        <ele>85.76</ele>
        <time>2022-08-14T14:12:29Z</time>
      </trkpt>
      <trkpt lat="49.16469" lon="1.8507">
        <ele>86.05</ele>
        <time>2022-08-14T14:12:39Z</time>
      </trkpt>
      <trkpt lat="49.16467" lon="1.85071">
        <ele>86.05</ele>
        <time>2022-08-14T14:12:41Z</time>
      </trkpt>
      <trkpt lat="49.16461" lon="1.85082">
        <ele>85.5</ele>
        <time>2022-08-14T14:12:54Z</time>
      </trkpt>
      <trkpt lat="49.16459" lon="1.85087">
        <ele>86.12</ele>
        <time>2022-08-14T14:13:04Z</time>
      </trkpt>
      <trkpt lat="49.16459" lon="1.85096">
        <ele>85.71</ele>
        <time>2022-08-14T14:13:12Z</time>
      </trkpt>
      <trkpt lat="49.16461" lon="1.85114">
        <ele>85.96</ele>
        <time>2022-08-14T14:13:23Z</time>
      </trkpt>
      <trkpt lat="49.16461" lon="1.85132">
        <ele>86.79</ele>
        <time>2022-08-14T14:13:34Z</time>
      </trkpt>
      <trkpt lat="49.16463" lon="1.85147">
        <ele>86.41</ele>
        <time>2022-08-14T14:13:44Z</time>
      </trkpt>
      <trkpt lat="49.16464" lon="1.85164">
        <ele>87.08</ele>
        <time>2022-08-14T14:13:55Z</time>
      </trkpt>
      <trkpt lat="49.16467" lon="1.85179">
        <ele>87.14</ele>
        <time>2022-08-14T14:14:04Z</time>
      </trkpt>
      <trkpt lat="49.16467" lon="1.85186">
        <ele>86.95</ele>
        <time>2022-08-14T14:14:14Z</time>
      </trkpt>
      <trkpt lat="49.16467" lon="1.85189">
        <ele>86.63</ele>
        <time>2022-08-14T14:14:18Z</time>
      </trkpt>
      <trkpt lat="49.16467" lon="1.85195">
        <ele>87.42</ele>
        <time>2022-08-14T14:14:22Z</time>
      </trkpt>
      <trkpt lat="49.16462" lon="1.85209">
        <ele>88.74</ele>
        <time>2022-08-14T14:14:34Z</time>
      </trkpt>
      <trkpt lat="49.16453" lon="1.85225">
        <ele>90.82</ele>
        <time>2022-08-14T14:14:49Z</time>
      </trkpt>
      <trkpt lat="49.16446" lon="1.85238">
        <ele>91.44</ele>
        <time>2022-08-14T14:15:04Z</time>
      </trkpt>
      <trkpt lat="49.16442" lon="1.85249">
        <ele>91.89</ele>
        <time>2022-08-14T14:15:22Z</time>
      </trkpt>
      <trkpt lat="49.16438" lon="1.85256">
        <ele>92.53</ele>
        <time>2022-08-14T14:15:30Z</time>
      </trkpt>
      <trkpt lat="49.16434" lon="1.85269">
        <ele>92.7</ele>
        <time>2022-08-14T14:15:40Z</time>
      </trkpt>
      <trkpt lat="49.16429" lon="1.85277">
        <ele>92.88</ele>
        <time>2022-08-14T14:15:46Z</time>
      </trkpt>
      <trkpt lat="49.16422" lon="1.85287">
        <ele>92.83</ele>
        <time>2022-08-14T14:15:58Z</time>
      </trkpt>
      <trkpt lat="49.1642" lon="1.8529">
        <ele>93.47</ele>
        <time>2022-08-14T14:16:00Z</time>
      </trkpt>
      <trkpt lat="49.16419" lon="1.85293">
        <ele>93.67</ele>
        <time>2022-08-14T14:16:02Z</time>
      </trkpt>
      <trkpt lat="49.16408" lon="1.85303">
        <ele>94.17</ele>
        <time>2022-08-14T14:16:14Z</time>
      </trkpt>
      <trkpt lat="49.16397" lon="1.85314">
        <ele>93.91</ele>
        <time>2022-08-14T14:16:25Z</time>
      </trkpt>
      <trkpt lat="49.16395" lon="1.85315">
        <ele>94.3</ele>
        <time>2022-08-14T14:16:26Z</time>
      </trkpt>
      <trkpt lat="49.16391" lon="1.85322">
        <ele>94.77</ele>
        <time>2022-08-14T14:16:31Z</time>
      </trkpt>
      <trkpt lat="49.16383" lon="1.85328">
        <ele>94.91</ele>
        <time>2022-08-14T14:16:43Z</time>
      </trkpt>
      <trkpt lat="49.16372" lon="1.85337">
        <ele>95.55</ele>
        <time>2022-08-14T14:16:54Z</time>
      </trkpt>
      <trkpt lat="49.16356" lon="1.85345">
        <ele>96.47</ele>
        <time>2022-08-14T14:17:10Z</time>
      </trkpt>
      <trkpt lat="49.16343" lon="1.85349">
        <ele>97.22</ele>
        <time>2022-08-14T14:17:26Z</time>
      </trkpt>
      <trkpt lat="49.16336" lon="1.85353">
        <ele>96.92</ele>
        <time>2022-08-14T14:17:33Z</time>
      </trkpt>
      <trkpt lat="49.16335" lon="1.85356">
        <ele>97.34</ele>
        <time>2022-08-14T14:17:36Z</time>
      </trkpt>
      <trkpt lat="49.16325" lon="1.85361">
        <ele>97.98</ele>
        <time>2022-08-14T14:17:46Z</time>
      </trkpt>
      <trkpt lat="49.16317" lon="1.85363">
        <ele>98.12</ele>
        <time>2022-08-14T14:17:56Z</time>
      </trkpt>
      <trkpt lat="49.16308" lon="1.85364">
        <ele>98.55</ele>
        <time>2022-08-14T14:18:06Z</time>
      </trkpt>
      <trkpt lat="49.163" lon="1.85369">
        <ele>98.92</ele>
        <time>2022-08-14T14:18:16Z</time>
      </trkpt>
      <trkpt lat="49.16288" lon="1.85373">
        <ele>99.24</ele>
        <time>2022-08-14T14:18:29Z</time>
      </trkpt>
      <trkpt lat="49.16277" lon="1.85369">
        <ele>99.94</ele>
        <time>2022-08-14T14:18:41Z</time>
      </trkpt>
      <trkpt lat="49.16259" lon="1.8536">
        <ele>100.67</ele>
        <time>2022-08-14T14:19:00Z</time>
      </trkpt>
      <trkpt lat="49.1625" lon="1.85352">
        <ele>100.78</ele>
        <time>2022-08-14T14:19:14Z</time>
      </trkpt>
      <trkpt lat="49.16244" lon="1.85348">
        <ele>101.57</ele>
        <time>2022-08-14T14:19:24Z</time>
      </trkpt>
      <trkpt lat="49.16241" lon="1.85346">
        <ele>101.87</ele>
        <time>2022-08-14T14:19:42Z</time>
      </trkpt>
      <trkpt lat="49.16239" lon="1.85345">
        <ele>102.22</ele>
        <time>2022-08-14T14:19:52Z</time>
      </trkpt>
      <trkpt lat="49.16234" lon="1.85344">
        <ele>102.1</ele>
        <time>2022-08-14T14:20:01Z</time>
      </trkpt>
      <trkpt lat="49.1623" lon="1.85342">
        <ele>102.41</ele>
        <time>2022-08-14T14:20:04Z</time>
      </trkpt>
      <trkpt lat="49.16225" lon="1.85341">
        <ele>103.03</ele>
        <time>2022-08-14T14:20:08Z</time>
      </trkpt>
      <trkpt lat="49.16221" lon="1.85341">
        <ele>102.54</ele>
        <time>2022-08-14T14:20:11Z</time>
      </trkpt>
      <trkpt lat="49.16212" lon="1.85338">
        <ele>102.6</ele>
        <time>2022-08-14T14:20:19Z</time>
      </trkpt>
      <trkpt lat="49.16209" lon="1.85337">
        <ele>102.2</ele>
        <time>2022-08-14T14:20:22Z</time>
      </trkpt>
      <trkpt lat="49.16196" lon="1.85331">
        <ele>103.1</ele>
        <time>2022-08-14T14:20:33Z</time>
      </trkpt>
      <trkpt lat="49.16195" lon="1.85331">
        <ele>103.36</ele>
        <time>2022-08-14T14:20:34Z</time>
      </trkpt>
      <trkpt lat="49.16184" lon="1.85326">
        <ele>104.55</ele>
        <time>2022-08-14T14:20:45Z</time>
      </trkpt>
      <trkpt lat="49.16173" lon="1.85318">
        <ele>105.43</ele>
        <time>2022-08-14T14:20:58Z</time>
      </trkpt>
      <trkpt lat="49.16171" lon="1.8532">
        <ele>105.38</ele>
        <time>2022-08-14T14:21:01Z</time>
      </trkpt>
      <trkpt lat="49.16169" lon="1.85322">
        <ele>105.32</ele>
        <time>2022-08-14T14:21:03Z</time>
      </trkpt>
      <trkpt lat="49.16169" lon="1.85326">
        <ele>105.66</ele>
        <time>2022-08-14T14:21:06Z</time>
      </trkpt>
      <trkpt lat="49.16168" lon="1.85331">
        <ele>104.83</ele>
        <time>2022-08-14T14:21:18Z</time>
      </trkpt>
      <trkpt lat="49.16167" lon="1.85328">
        <ele>105.08</ele>
        <time>2022-08-14T14:21:41Z</time>
      </trkpt>
      <trkpt lat="49.16161" lon="1.85326">
        <ele>105.13</ele>
        <time>2022-08-14T14:22:01Z</time>
      </trkpt>
      <trkpt lat="49.16158" lon="1.85316">
        <ele>104.92</ele>
        <time>2022-08-14T14:22:11Z</time>
      </trkpt>
      <trkpt lat="49.16149" lon="1.8531">
        <ele>105.04</ele>
        <time>2022-08-14T14:22:24Z</time>
      </trkpt>
      <trkpt lat="49.16137" lon="1.85299">
        <ele>104.13</ele>
        <time>2022-08-14T14:22:39Z</time>
      </trkpt>
      <trkpt lat="49.16129" lon="1.85292">
        <ele>104.17</ele>
        <time>2022-08-14T14:22:50Z</time>
      </trkpt>
      <trkpt lat="49.16115" lon="1.85283">
        <ele>103.04</ele>
        <time>2022-08-14T14:23:02Z</time>
      </trkpt>
      <trkpt lat="49.16099" lon="1.85267">
        <ele>101.35</ele>
        <time>2022-08-14T14:23:19Z</time>
      </trkpt>
      <trkpt lat="49.16095" lon="1.85263">
        <ele>101.08</ele>
        <time>2022-08-14T14:23:23Z</time>
      </trkpt>
      <trkpt lat="49.16088" lon="1.85258">
        <ele>101.17</ele>
        <time>2022-08-14T14:23:29Z</time>
      </trkpt>
      <trkpt lat="49.16077" lon="1.85251">
        <ele>100.22</ele>
        <time>2022-08-14T14:23:41Z</time>
      </trkpt>
      <trkpt lat="49.16065" lon="1.85239">
        <ele>99.48</ele>
        <time>2022-08-14T14:23:53Z</time>
      </trkpt>
      <trkpt lat="49.16049" lon="1.85224">
        <ele>99.47</ele>
        <time>2022-08-14T14:24:09Z</time>
      </trkpt>
      <trkpt lat="49.16032" lon="1.85222">
        <ele>99.37</ele>
        <time>2022-08-14T14:24:24Z</time>
      </trkpt>
      <trkpt lat="49.16018" lon="1.85221">
        <ele>99.44</ele>
        <time>2022-08-14T14:24:37Z</time>
      </trkpt>
      <trkpt lat="49.16016" lon="1.85221">
        <ele>99.73</ele>
        <time>2022-08-14T14:24:49Z</time>
      </trkpt>
      <trkpt lat="49.16016" lon="1.8522">
        <ele>99.3</ele>
        <time>2022-08-14T14:25:08Z</time>
      </trkpt>
      <trkpt lat="49.16009" lon="1.85219">
        <ele>99.67</ele>
        <time>2022-08-14T14:25:27Z</time>
      </trkpt>
      <trkpt lat="49.15997" lon="1.85226">
        <ele>100.43</ele>
        <time>2022-08-14T14:25:43Z</time>
      </trkpt>
      <trkpt lat="49.15996" lon="1.85227">
        <ele>100.2</ele>
        <time>2022-08-14T14:25:44Z</time>
      </trkpt>
      <trkpt lat="49.15984" lon="1.85238">
        <ele>100.06</ele>
        <time>2022-08-14T14:25:56Z</time>
      </trkpt>
      <trkpt lat="49.15977" lon="1.85243">
        <ele>100.56</ele>
        <time>2022-08-14T14:26:09Z</time>
      </trkpt>
      <trkpt lat="49.15975" lon="1.85243">
        <ele>100.45</ele>
        <time>2022-08-14T14:26:17Z</time>
      </trkpt>
      <trkpt lat="49.15974" lon="1.85246">
        <ele>100.72</ele>
        <time>2022-08-14T14:26:27Z</time>
      </trkpt>
      <trkpt lat="49.15971" lon="1.85253">
        <ele>100.07</ele>
        <time>2022-08-14T14:26:41Z</time>
      </trkpt>
      <trkpt lat="49.15962" lon="1.85265">
        <ele>100.65</ele>
        <time>2022-08-14T14:26:56Z</time>
      </trkpt>
      <trkpt lat="49.15957" lon="1.85274">
        <ele>100.85</ele>
        <time>2022-08-14T14:27:08Z</time>
      </trkpt>
      <trkpt lat="49.1596" lon="1.85279">
        <ele>101.36</ele>
        <time>2022-08-14T14:27:23Z</time>
      </trkpt>
      <trkpt lat="49.15953" lon="1.85282">
        <ele>101.03</ele>
        <time>2022-08-14T14:27:37Z</time>
      </trkpt>
      <trkpt lat="49.15945" lon="1.85293">
        <ele>101.26</ele>
        <time>2022-08-14T14:27:51Z</time>
      </trkpt>
      <trkpt lat="49.15937" lon="1.85306">
        <ele>101.97</ele>
        <time>2022-08-14T14:28:03Z</time>
      </trkpt>
      <trkpt lat="49.15929" lon="1.85316">
        <ele>102.35</ele>
        <time>2022-08-14T14:28:14Z</time>
      </trkpt>
      <trkpt lat="49.15917" lon="1.85329">
        <ele>101.17</ele>
        <time>2022-08-14T14:28:27Z</time>
      </trkpt>
      <trkpt lat="49.15906" lon="1.85343">
        <ele>102.27</ele>
        <time>2022-08-14T14:28:40Z</time>
      </trkpt>
      <trkpt lat="49.15898" lon="1.85354">
        <ele>103.33</ele>
        <time>2022-08-14T14:28:50Z</time>
      </trkpt>
      <trkpt lat="49.15898" lon="1.85359">
        <ele>103.62</ele>
        <time>2022-08-14T14:28:53Z</time>
      </trkpt>
      <trkpt lat="49.15886" lon="1.85368">
        <ele>103.91</ele>
        <time>2022-08-14T14:29:05Z</time>
      </trkpt>
      <trkpt lat="49.15879" lon="1.85374">
        <ele>103.87</ele>
        <time>2022-08-14T14:29:15Z</time>
      </trkpt>
      <trkpt lat="49.15873" lon="1.85383">
        <ele>104.13</ele>
        <time>2022-08-14T14:29:25Z</time>
      </trkpt>
      <trkpt lat="49.15864" lon="1.85386">
        <ele>104.61</ele>
        <time>2022-08-14T14:29:37Z</time>
      </trkpt>
      <trkpt lat="49.15858" lon="1.85392">
        <ele>105.14</ele>
        <time>2022-08-14T14:29:49Z</time>
      </trkpt>
      <trkpt lat="49.15852" lon="1.854">
        <ele>105.34</ele>
        <time>2022-08-14T14:29:58Z</time>
      </trkpt>
    </trkseg>
  </trk>
</gpx>